     2              OBSERVATION DATA    GPS                 RINEX VERSION / TYPE
teqc 1997Jul24 19970814                                     PGM / RUN BY / DATE
                                                            COMMENT
Original Marker Name: ROUN                                  COMMENT
Campaign Name: HPGN 1991                                    COMMENT
4-Character Station Name: ROUN                              COMMENT
6-Character Antenna Code: TRMSST                            COMMENT
Vertical Measurement Point: BPA                             COMMENT
Vertical Offset to Rinex Ref. Point: 0.0000                 COMMENT
Radial Measurement Point: RRP                               COMMENT
Radial Offset to Rinex Ref. Point: 0.0000                   COMMENT
Antenna Height from Field Measurement: 2.2200 m             COMMENT
Original XYZ: -2474603.9139 -4562004.3023 3696428.9607      COMMENT
New XYZ position is based on association with SCEC monument COMMENT
E1F1L3W3+0011. Position of that monument is believed to be  COMMENT
valid to within 1 m horizontally; vertical accuracy         COMMENT
should be no worse than 3-times this value.                 COMMENT
                                                            COMMENT
Revised Rinex header created by UCSD GPS archive for        COMMENT
GSAC on 14-Apr-1999 (1999:104) 18:16:44 GMT                 COMMENT
For assistance contact dagnew@ucsd.edu or hjohnson@ucsd.edu COMMENT
                                                            COMMENT
ROUND 1945                                                  MARKER NAME
unknown NATIONAL GEODETIC SURVEY                            OBSERVER / AGENCY
486 TRIMBLE 4000 SST NP 4.30 / SP 4.20                      REC # / TYPE / VERS
17 TR 4000SST L1/L2 GEO                                     ANT # / TYPE
 -2474604.0000 -4561996.0000  3696416.0000                  APPROX POSITION XYZ
        2.2200        0.0000        0.0000                  ANTENNA: DELTA H/E/N
     1     1     0                                          WAVELENGTH FACT L1/2
     3    C1    L1    L2                                    # / TYPES OF OBSERV
     0                                                      INTERVAL
  1991     5     3    20    38   45.000000                  TIME OF FIRST OBS
  1991     5     4     1    17   60.000000                  TIME OF LAST OBS
     0                                                      # OF SATELLITES
                                                            END OF HEADER
 91  5  3 20 38 45.0000000  0  6G 2G 6G11G18G19G16
  21609674.1094    -220442.03047        -0.20473
  23145395.648          -0.31316        -0.16331
  23224871.2274         -0.18056        -0.22671
  23161373.2664         -0.45856        -0.37671
  21330034.8204         -0.96957        -0.13072
  23915856.7894         -0.53455
 91  5  3 20 39  0.0000000  0  6G 2G 6G11G18G19G16
  21603567.4694    -252533.24647    -25006.30462
  23137977.977      -38956.992 5    -30355.97521
  23226107.1024       6489.05846      5056.33761
  23169513.469       42767.942 6     33325.49321
  21331452.281        7460.340 7      5813.86322
  23916466.6174       3201.00345
 91  5  3 20 39 15.0000000  0  6G 2G 6G11G18G19G16
  21597468.9774    -284583.49047    -49980.48363
  23130565.133      -77940.406 6    -60732.60621
  23227360.813       13089.996 6     10199.93521
  23177654.492       85553.905 6     66665.04521
  21332878.484       14942.887 7     11644.40322
  23917087.0944       6485.59845
 91  5  3 20 39 30.0000000  0  6G 2G 6G11G18G19G16
  21591379.0634    -316582.85847    -74915.01663
  23123140.695     -116940.575 5    -91122.30321
  23228639.3984      19812.55546     15438.30261
  23185800.883      128367.293 6    100025.95921
  21334307.922       22456.751 7     17499.34622
  23917735.4384       9862.61645
 91  5  3 20 39 45.0000000  0  6G 2G 6G11G18G19G16
  21585301.5164    -348522.07047    -99802.67563
  23115716.617     -155948.086 5   -121517.72121
  23229943.0784      26665.99346     20778.65261
  23193956.211      171217.062 6    133415.23521
  21335746.313       30011.244 7     23385.94622
  23918398.398       13341.254 5
 91  5  3 20 40  0.0000000  0  6G 2G 6G11G18G19G16
  21579235.9774    -380399.93947   -124642.53463
  23108290.7734    -194961.71545   -151917.90261
  23231277.0704      33651.44346     26221.86661
  23202114.961      214104.150 6    166833.57821
  21337188.898       37607.783 7     29305.31022
  23919076.125       16922.637 5
 91  5  3 20 40 15.0000000  0  6G 2G 6G11G18G19G16
  21573180.7734    -412218.39647   -149436.10263
  23100868.953     -233983.225 6   -182324.22821
  23232627.0474      40766.84346     31766.34461
  23210285.609      257026.239 6    200279.19821
  21338644.883       45244.508 7     35255.98422
  23919780.0084      20604.45645        -0.21771
 91  5  3 20 40 30.0000000  0  6G 2G 6G11G18G19G16
  21567138.9144    -443968.58147   -174176.46963
  23093444.320     -273003.871 6   -212729.88421
  23234007.3134      48020.94446     37418.90561
  23218461.984      299992.046 6    233758.88621
  21340108.195       52930.170 7     41244.79122
  23920500.8914      24395.28145      2953.62961
 91  5  3 20 40 45.0000000  0  6G 2G 6G11G18G19G16
  21561109.7114    -475651.19347   -198864.18063
  23086016.1024    -312024.36445   -243135.43261
  23235416.3054      55412.87246     43178.84861
  23226645.4224     343000.36246    267271.69561
  21341577.914       60664.175 7     47271.26822
  23921242.805       28294.619 5      5992.02621
 91  5  3 20 41  0.0000000  0  6G 2G 6G11G18G19G16
  21555093.3444    -507269.76247   -223501.99262
  23078590.281     -351048.282 6   -273543.62121
  23236847.2974      62938.83546     49043.24361
  23234838.211      386047.398 6    300814.67121
  21343057.906       68442.997 7     53332.66422
  23922002.398       32298.268 5      9111.69921
 91  5  3 20 41 15.0000000  0  6G 2G 6G11G18G19G16
  21549089.1094    -538819.62247   -248086.26463
  23071162.508     -390070.968 5   -303950.87321
  23238308.5704      70603.38646     55015.62361
  23243037.758      429137.577 6    334391.26821
  21344547.016       76271.276 7     59432.60322
  23922783.3134      36410.74345     12316.19361
 91  5  3 20 41 30.0000000  0  6G 2G 6G11G18G19G16
  21543097.8914    -570301.71047   -272617.72663
  23063739.2344    -429093.39146   -334357.91761
  23239792.7734      78405.38446
  23251246.8754     472269.68046    368000.51961
  21346044.969       84148.063 7
  23923588.9694      40630.73645     15604.45461
 91  5  3 20 41 45.0000000  0  6G 2G 6G11G18G19G16
  21537120.0704    -601712.93447   -297093.97063
  23056317.305     -468112.426 6   -364762.31821
  23241302.4924      86347.91046
  23259462.539      515446.488 6    401644.62921
  21347556.266       92076.557 7
  23924416.2974      44961.36245     18978.89761
 91  5  3 20 42  0.0000000  0  6G 2G 6G11G18G19G16
  21531155.2504    -633055.65847   -321516.83563
  23048891.516     -507130.212 6   -395165.74021
  23242843.6414      94428.42746     73580.58261
  23267685.414      558665.479 6    435321.59021
  21349071.922      100054.515 7     77964.93122
  23925254.555       49400.061 5     22437.59621
 91  5  3 20 42 15.0000000  0  6G 2G 6G11G18G19G16
  21525204.8364    -664330.18247   -345886.55862
  23041463.5474    -546147.16746   -425568.53161
  23244405.9454     102646.52646     79984.30261
  23275918.109      601925.932 6    469030.86321
  21350600.773      108081.753 7     84219.89622
  23926127.0474      53946.25645     25980.03861
 91  5  3 20 42 30.0000000  0  6G 2G 6G11G18G19G16
  21519266.8674    -695535.41147   -370202.28763
  23034043.148     -585162.089 6   -455969.72221
  23245991.9064     111003.23546     86496.01761
  23284158.9224     645228.89246    502773.24961
  21352137.984      116159.515 7     90514.23422
  23927008.531       58600.726 5     29606.84121
 91  5  3 20 42 45.0000000  0  6G 2G 6G11G18G19G16
  21513342.1644    -726673.67547   -394465.83663
  23026616.3134    -624177.28446   -486371.13661
  23247610.1174     119496.05646     93113.79961
  23292407.398      688571.645 6    536546.65121
  21353685.680      124285.302 7     96845.99222
  23927915.5944      63361.16745     33316.24361
 91  5  3 20 43  0.0000000  0  6G 2G 6G11G18G19G16
  21507429.9384    -757744.74747   -418677.02663
  23019189.172     -663192.503 6   -516772.56021
  23249253.3444     128125.11746     99837.74061
  23300664.305      731954.311 6    570351.15721
  21355241.492      132459.443 7    103215.42922
  23928837.117       68227.459 5     37108.12421
 91  5  3 20 43 15.0000000  0  6G 2G 6G11G18G19G16
  21501528.0084    -788752.77747   -442839.09463
  23011768.500     -702211.969 6   -547177.28921
  23250918.4384     136885.99646    106664.40161
  23308922.133      775372.200 6    604183.10221
  21356803.273      140677.825 7    109619.33722
  23929787.477       73195.329 5     40979.14421
 91  5  3 20 43 30.0000000  0  6G 2G 6G11G18G19G16
  21495639.9144    -819694.02147   -466949.11863
  23004341.602     -741231.867 6   -577582.36121
  23252612.1024     145782.12146    113596.44061
  23317195.9924     818828.78746    638045.19261
  21358378.320      148944.181 7    116060.62922
  23930754.688       78267.977 5     44931.81021
 91  5  3 20 43 45.0000000  0  6G 2G 6G11G18G19G16
  21489764.8754    -850567.51247   -491006.35163
  22996917.109     -780251.280 6   -607987.05521
  23254333.7584     154814.49446    120634.64861
  23325472.148      862324.875 6    671938.07421
  21359959.555      157259.674 7    122540.21022
  23931733.4844      83446.47545     48966.95761
 91  5  3 20 44  0.0000000  0  6G 2G 6G11G18G19G16
  21483903.1564    -881372.26347   -515010.02263
  22989489.016     -819268.955 6   -638390.38921
  23256074.2814     163984.03846    127779.74461
  23333759.1174     905861.32646    705862.40561
  21361554.094      165625.253 7    129058.81522
  23932743.055       88731.281 5     53084.94521
 91  5  3 20 44 15.0000000  0  6G 2G 6G11G18G19G16
  21478053.9224    -912108.92047   -538960.63263
  22982066.3674    -858285.51546   -668792.86961
  23257847.945      173289.947 6    135031.08721
  23342048.3134     949437.08246    739817.35261
  21363153.141      174040.487 7    135616.11822
  23933766.4694      94121.74545     57285.25561
 91  5  3 20 44 30.0000000  0  6G 2G 6G11G18G19G16
  21472217.7584    -942780.59347   -562860.60563
  22974641.766     -897304.211 6   -699196.99121
  23259643.2814     182728.87946    142386.09861
  23350346.7584     993048.47046    773800.07161
  21364760.484      182502.158 7    142209.60322
  23934811.4384      99614.32845     61565.14661
 91  5  3 20 44 45.0000000  0  6G 2G 6G11G18G19G16
  21466394.4064    -973375.84447   -586701.03063
  22967216.648     -936313.480 6   -729593.78721
  23261464.383      192312.111 6    149853.53721
  23358656.4454    1036707.00046    807819.52661
  21366384.516      191021.846 7    148848.29622
  23935879.930      105220.758 5     65933.74821
 91  5  3 20 45  0.0000000  0  6G 2G 6G11G18G19G16
  21460586.2504   -1003905.29747   -610490.18363
  22959794.227     -975323.943 6   -759991.50121
  23263316.000      202028.933 6    157425.07221
  23366972.6884    1080401.49746    841867.00261
  21368017.953      199589.002 7    155523.97722
  23936967.5944     110930.00945     70382.44661
 91  5  3 20 45 15.0000000  0  6G 2G 6G11G18G19G16
  21454788.2424   -1034369.70447   -634228.65263
  22952373.195    -1014336.154 6   -790390.57121
  23265189.992      211878.516 6    165100.06321
  23375293.6174    1124131.30046    875941.98961
  21369653.023      208203.071 7    162236.21822
  23938073.836      116741.031 5     74910.46621
 91  5  3 20 45 30.0000000  0  6G 2G 6G11G18G19G16
  21449003.7734   -1064768.42847   -657915.94163
  22944944.133    -1053349.478 6   -820790.52121
  23267091.688      221861.620 6    172879.09021
  23383622.0944    1167896.86646    910044.84261
  21371300.688      216864.788 7    168985.58322
  23939197.6644     122654.28545     79518.14461
 91  5  3 20 45 45.0000000  0  6G 2G 6G11G18G19G16
  21443231.4694   -1095101.80447   -681552.31263
  22937521.7114   -1092364.21546   -851191.57461
  23269015.8594     231977.46046    180761.55061
  23391956.695     1211697.454 6    944174.98721
  21372960.094      225573.724 7    175771.74522
  23940339.5474     128668.82445     84204.73961
 91  5  3 20 46  0.0000000  0  6G 2G 6G11G18G19G16
  21437472.3284   -1125371.22247   -705138.83463
  22930098.758    -1131381.816 6   -881594.84121
  23270965.148      242224.508 6    188746.24721
  23400297.3914    1255531.26446    978331.01861
  21374628.125      234328.554 7    182593.66922
  23941512.445      134783.488 5     88969.37321
 91  5  3 20 46 15.0000000  0  6G 2G 6G11G18G19G16
  21431723.8444   -1155578.06947   -728676.60963
  22922672.031    -1170403.654 6   -912001.43021
  23272939.406      252601.162 6    196831.93621
  23408645.758     1299396.587 6   1012511.59821
  21376300.109      243127.882 7    189450.26622
  23942690.8834     140996.54845     93810.66761
 91  5  3 20 46 30.0000000  0  6G 2G 6G11G18G19G16
  21425988.3594   -1185717.16647   -752161.58963
  22915248.031    -1209424.422 6   -942407.17421
  23274940.898      263112.624 6    205022.67221
  23416999.8204    1343298.40446   1046720.62461
  21377985.453      251977.079 7    196345.71822
  23943892.1564     147313.04045     98732.56361
 91  5  3 20 46 45.0000000  0  6G 2G 6G11G18G19G16
  21420264.7424   -1215794.31147   -775598.29963
  22907820.617    -1248449.967 6   -972816.64421
  23276966.023      273752.851 6    213313.73821
  23425361.977     1387230.792 6   1080953.46521
  21379675.344      260870.417 7    203275.57022
  23945110.719      153726.899 5    103730.33021
 91  5  3 20 47  0.0000000  0  6G 2G 6G11G18G19G16
  21414552.9304   -1245805.39947   -798983.53363
  22900395.602    -1287475.982 6  -1003226.47721
  23279016.047      284525.834 6    221708.25621
  23433727.766     1431197.569 6   1115213.10421
  21381379.320      269812.030 7    210243.03822
  23946350.2274     160241.80845    108806.81161
 91  5  3 20 47 15.0000000  0  6G 2G 6G11G18G19G16
  21408854.5314   -1275752.90847   -822319.22563
  22892969.141    -1326504.965 6  -1033638.63021
  23281087.8984     295428.93446    230204.16461
  23442099.234     1475195.934 6   1149497.35921
  21383089.422      278799.442 7    217246.19422
  23947611.945      166855.100 5    113959.99421
 91  5  3 20 47 30.0000000  0  6G 2G 6G11G18G19G16
  21403167.055    -1305641.370 7   -845608.90823
  22885540.359    -1365541.446 6  -1064056.62321
  23283188.094      306457.540 6    238797.87321
  23450477.023     1519221.327 6   1183802.66621
  21384809.383      287828.340 7    224281.67322
  23948884.438      173562.135 5    119186.20221
 91  5  3 20 47 45.0000000  0  6G 2G 6G11G18G19G16
  21397491.7814   -1335467.12647   -868849.72963
  22878110.516    -1404581.718 6  -1094477.56521
  23285310.961      317614.979 6    247491.95921
  23458858.3134    1563276.86446   1218131.47161
  21386532.875      296902.312 7    231352.27722
  23950178.219      180366.172 5    124487.98521
 91  5  3 20 48  0.0000000  0  6G 2G 6G11G18G19G16
  21391828.828    -1365225.167 7   -892037.78523
  22870682.7114   -1443620.75546  -1124897.55561
  23287458.2814     328905.99846    256290.14661
  23467254.742     1607367.088 6   1252487.29321
  21388270.4144     306026.46647    238461.98262
  23951496.5554     187271.77245    129868.92061
 91  5  3 20 48 15.0000000  0  6G 2G 6G11G18G19G16
  21386177.7194   -1394919.40547   -915176.12763
  22863251.7974   -1482662.41046  -1155319.58361
  23289633.563      340326.660 6    265189.34221
  23475647.563     1651487.956 6   1286866.99221
  21390012.648      315196.914 7    245607.75822
  23952832.1954     194275.03445    135325.94261
 91  5  3 20 48 30.0000000  0  6G 2G 6G11G18G19G16
  21380539.4454   -1424548.01947   -938263.33163
  22855819.6724   -1521704.76146  -1185742.15561
  23291830.469      351878.603 6    274190.83821
  23484048.875     1695641.189 6   1321271.91621
  21391769.195      324415.563 7    252791.09622
  23954178.9694     201377.83045    140860.54461
 91  5  3 20 48 45.0000000  0  6G 2G 6G11G18G19G16
  21374915.523    -1454104.286 7   -961294.16123
  22848393.445    -1560741.020 6  -1216159.97621
  23294056.484      363568.551 6    283299.87321
  23492461.914     1739833.287 6   1355707.12821
  21393533.3054     333689.19347    260017.27662
  23955548.7344     208586.61145    146477.73461
 91  5  3 20 49  0.0000000  0  6G 2G 6G11G18G19G16
  21369303.3444   -1483599.67547   -984277.55563
  22840965.828    -1599782.574 6  -1246581.92021
  23296305.070      375384.750 6    292507.27321
  23500873.6254    1784052.29046   1390163.29161
  21395308.641      343006.273 6    267277.31522
  23956941.2034     215889.48845    152168.20861
 91  5  3 20 49 15.0000000  0  6G 2G 6G11G18G19G16
  21363701.8984   -1513031.41847  -1007211.35263
  22833536.1644   -1638826.68546  -1277005.87261
  23298575.781      387329.844 6    301815.11721
  23509293.9224    1828300.75446   1424642.42061
  21397089.3594     352369.70047    274573.46462
  23958347.4534     223288.80645    157933.86561
 91  5  3 20 49 30.0000000  0  6G 2G 6G11G18G19G16
  21358113.6804   -1542398.32847  -1030094.63263
  22826106.234    -1677872.090 6  -1307430.81121
  23300876.781      399404.695 6    311224.07021
  23517720.242     1872579.702 6   1459145.29821
  21398879.047      361780.808 7    281906.76922
  23959775.4384     230785.72245    163775.56461
 91  5  3 20 49 45.0000000  0  6G 2G 6G11G18G19G16
  21352538.117    -1571698.111 7  -1052925.60423
  22818673.0084   -1716916.32746  -1337854.85761
  23303198.500      411611.560 6    320735.89721
  23526152.273     1916891.272 6   1493673.59721
  21400679.1884     371241.90947    289279.02562
  23961221.102      238382.448 5    169695.05121
 91  5  3 20 50  0.0000000  0  6G 2G 6G11G18G19G16
  21346974.0944   -1600936.74247  -1075708.92863
  22811242.1564   -1755965.45746  -1368282.70461
  23305545.273      423944.292 6    330345.79621
  23534590.9774    1961229.04646   1528222.30961
  21402488.8754     380747.09747    296685.63962
  23962690.2344     246072.67745    175687.36661
 91  5  3 20 50 15.0000000  0  6G 2G 6G11G18G19G16
  21341422.070    -1630111.578 7  -1098442.54123
  22803811.3134   -1795016.74146  -1398712.23161
  23307915.516      436405.357 6    340055.69921
  23543032.8984    2005595.35646   1562793.25161
  21404308.320      390299.164 7    304128.77722
  23964166.7504     253858.52045    181754.20561
 91  5  3 20 50 30.0000000  0  6G 2G 6G11G18G19G16
  21335882.227    -1659223.297 7  -1121126.97323
  22796379.586    -1834070.856 6  -1429143.97021
  23310310.445      448993.898 6    349864.93921
  23551480.422     2049989.180 6   1597385.64421
  21406134.1884     399897.28647    311607.80562
  23965667.563      261739.171 5    187894.90121
 91  5  3 20 50 45.0000000  0  6G 2G 6G11G18G19G16
  21330354.7734   -1688272.79947  -1143762.92163
  22788949.180    -1873128.505 6  -1459578.46021
  23312730.391      461708.914 6    359772.72621
  23559934.9384    2094409.54546   1631998.70061
  21407969.0944     409540.99947    319122.36662
  23967184.8444     269713.47945    194108.59561
 91  5  3 20 51  0.0000000  0  6G 2G 6G11G18G19G16
  21324839.1024   -1717255.90447  -1166347.13163
  22781512.383    -1912185.499 6  -1490012.44021
  23315174.938      474554.445 6    369782.21121
  23568393.2664    2138860.18346   1666635.36161
  21409813.3984     419234.38247    326675.61562
  23968723.227      277785.703 5    200398.57521
 91  5  3 20 51 15.0000000  0  6G 2G 6G11G18G19G16
  21319337.0474   -1746172.20947  -1188879.28963
  22774082.8834   -1951241.38546  -1520445.55261
  23317645.734      487530.764 6    379893.60421
  23576859.5314    2183341.45946   1701295.87161
  21411666.6564     428977.89447    334267.93262
  23970275.203      285955.815 5    206764.84721
 91  5  3 20 51 30.0000000  0  6G 2G 6G11G18G19G16
  21313846.2114   -1775020.90447  -1211358.76563
  22766651.102    -1990295.233 6  -1550877.08121
  23320140.992      500638.541 6    390107.43621
  23585328.0634    2227854.03246   1735980.79561
  21413530.7734     438772.40147    341899.98762
  23971847.734      294224.372 5    213207.82521
 91  5  3 20 51 45.0000000  0  6G 2G 6G11G18G19G16
  21308369.1484   -1803806.33347  -1233788.94463
  22759219.516    -2029351.429 6  -1581310.43621
  23322659.609      513873.070 6    400420.03521
  23593805.6334    2272393.01246   1770686.28561
  21415402.5704     448613.70047    349568.50362
  23973441.820      302586.745 5    219723.90221
 91  5  3 20 52  0.0000000  0  6G 2G 6G11G18G19G16
  21302903.3444   -1832524.79947  -1256166.94263
  22751788.0704   -2068406.16246  -1611742.65461
  23325201.656      527237.835 6    410834.11621
  23602285.336     2316961.969 6   1805415.12421
  21417286.383      458505.493 7    357276.36922
  23975049.781      311046.388 5    226315.78221
 91  5  3 20 52 15.0000000  0  6G 2G 6G11G18G19G16
  21297451.7504   -1861178.18247  -1278494.22363
  22744356.383    -2107461.291 6  -1642175.18421
  23327769.359      540730.936 6    421348.19521
  23610774.1254    2361558.80546   1840165.68661
  21419178.4064     468445.88347    365022.09762
  23976680.336      319601.321 5    232981.90821
 91  5  3 20 52 30.0000000  0  6G 2G 6G11G18G19G16
  21292011.2814   -1889767.95347  -1300771.93963
  22736923.7274   -2146518.17646  -1672609.07761
  23330362.1414     554350.58546    431960.88961
  23619264.7424    2406181.51345   1874936.42261
  21421076.0944     478433.50547    372804.63362
  23978326.063      328249.802 5    239720.93421
 91  5  3 20 52 45.0000000  0  6G 2G 6G11G18G19G16
  21286582.5164   -1918293.50647  -1322999.60963
  22729490.070    -2185576.201 6  -1703043.85021
  23332976.813      568097.132 6    442672.45921
  23627762.063     2450830.577 5   1909727.67321
  21422988.5864     488469.04847    380624.50862
  23979989.391      336992.084 5    246533.05521
 91  5  3 20 53  0.0000000  0  6G 2G 6G11G18G19G16
  21281165.5314   -1946758.78747  -1345180.32263
  22722056.3524   -2224639.09946  -1733482.43161
  23335617.438      581966.748 6    453479.93221
  23636260.023     2495501.756 5   1944536.17321
  21424907.4844     498548.81747    388478.84262
  23981669.2194     345824.14945    253415.10561
 91  5  3 20 53 15.0000000  0  6G 2G 6G11G18G19G16
  21275762.3674   -1975161.33147  -1367312.14863
  22714622.9224   -2263704.26346  -1763922.77461
  23338277.9304     595961.74646    464385.09661
  23644765.844     2540197.524 5   1979363.81521
  21426831.9454     508675.22447    396369.52262
  23983363.508      354748.289 5    260368.93521
 91  5  3 20 53 30.0000000  0  6G 2G 6G11G18G19G16
  21270368.5394   -2003501.00547  -1389394.98263
  22707190.000    -2302771.695 6  -1794364.88321
  23340966.195      610081.850 6    475387.75521
  23653275.1254    2584917.69845   2014210.50261
  21428766.8984     518848.27247    404296.54362
  23985082.0864     363763.90945    267394.04261
 91  5  3 20 53 45.0000000  0  6G 2G 6G11G18G19G16
  21264987.7424   -2031775.10847  -1411426.72063
  22699753.711    -2341838.452 6  -1824806.47021
  23343676.289      624329.671 6    486489.93921
  23661793.7034    2629664.64445   2049078.02161
  21430714.8674     529070.98747    412262.26862
  23986818.195      372873.775 5    274492.57921
 91  5  3 20 54  0.0000000  0  6G 2G 6G11G18G19G16
  21259620.5864   -2059983.03347  -1433406.89263
  22692319.203    -2380903.972 6  -1855247.09421
  23346412.5704     638705.58346    497691.92361
  23670312.2734    2674438.60345   2083966.60261
  21432669.1954     539343.98147    420267.16662
  23988565.953      382078.317 5    281664.89321
 91  5  3 20 54 15.0000000  0  6G 2G 6G11G18G19G16
  21254265.7114   -2088122.87747  -1455334.01463
  22684885.7034   -2419966.36846  -1885685.28461
  23349173.4064     653211.30346    508995.06761
  23678839.1954    2719241.31945   2118877.58761
  21434632.8444     549669.18347    428312.75262
  23990338.000      391379.027 5    288912.13821
 91  5  3 20 54 30.0000000  0  6G 2G 6G11G18G19G16
  21248922.8444   -2116198.98647  -1477211.47063
  22677454.5474   -2459029.97146  -1916124.41461
  23351957.148      667842.139 6    520395.70521
  23687367.1644    2764068.05145   2153807.26961
  21436608.352      560042.334 7    436395.70022
  23992125.8674     400771.35145    296230.78161
 91  5  3 20 54 45.0000000  0  6G 2G 6G11G18G19G16
  21243593.1024   -2144206.26147  -1499035.29363
  22670023.063    -2498089.309 6  -1946560.21821
  23354766.305      682603.311 6    531897.89421
  23695905.8364    2808923.76345   2188759.54161
  21438592.4304     570468.65847    444520.08162
  23993929.9534     410260.53445    303624.89461
 91  5  3 20 55  0.0000000  0  6G 2G 6G11G18G19G16
  21238275.4694   -2172149.61247  -1520809.30263
  22662587.6484   -2537149.30046  -1976996.53761
  23357598.391      697489.740 6    543497.68821
  23704442.6564    2853803.32945   2223730.41961
  21440583.9224     580943.29347    452682.11162
  23995751.9694     419840.97845    311090.12061
 91  5  3 20 55 15.0000000  0  6G 2G 6G11G18G19G16
  21232970.0004   -2200027.13547  -1542532.01863
  22655155.336    -2576208.056 6  -2007431.88821
  23360456.5634     712502.99746    555196.31261
  23712989.742     2898708.373 5   2258721.11721
  21442588.938      591468.246 7    460883.34522
  23997594.9774     429514.22645    318627.66161
 91  5  3 20 55 30.0000000  0  6G 2G 6G11G18G19G16
  21227678.5394   -2227839.48747  -1564203.94963
  22647721.992    -2615266.026 6  -2037866.62821
  23363337.930      727642.409 6    566993.23021
  23721539.914     2943638.292 5   2293731.21221
  21444601.320      602043.116 7    469123.47922
  23999450.500      439279.608 5    326236.98921
 91  5  3 20 55 45.0000000  0  6G 2G 6G11G18G19G16
  21222398.8914   -2255582.80447  -1585822.09463
  22640290.2734   -2654319.21646  -2068297.64861
  23366242.648      742911.627 6    578891.30521
  23730096.7504    2988596.16145   2328763.08861
  21446623.4614     612671.83447    477405.57362
  24001328.8444     449140.75045    333920.93361
 91  5  3 20 56  0.0000000  0  6G 2G 6G11G18G19G16
  21217131.2584   -2283262.47647  -1607390.63663
  22632859.484    -2693373.121 6  -2098729.21921
  23369172.078      758304.975 6    590886.09221
  23738657.0084    3033576.33445   2363812.32761
  21448654.0084     623348.91047    485725.34162
  24003223.609      459092.041 5    341675.11821
 91  5  3 20 56 15.0000000  0  6G 2G 6G11G18G19G16
  21211876.8674   -2310878.00647  -1628909.20563
  22625430.1804   -2732427.06446  -2129160.82661
  23372123.945      773822.825 6    602977.90321
  23747222.0554    3078579.27245   2398879.32161
  21450696.6884     634074.87747    494083.21462
  24005130.4304     469133.53645    349499.59561
 91  5  3 20 56 30.0000000  0  6G 2G 6G11G18G19G16
  21206633.9304   -2338424.82747  -1650374.22963
  22617998.531    -2771476.418 6  -2159588.85121
  23375101.4774     789469.49846    615170.08461
  23755789.4844    3123609.27745   2433967.39261
  21452748.8524     644854.54447    502482.92562
  24007063.148      479269.846 5    357397.95421
 91  5  3 20 56 45.0000000  0  6G 2G 6G11G18G19G16
  21201404.7584   -2365905.95147  -1671788.06563
  22610566.5394   -2810524.11646  -2190015.59361
  23378104.367      805241.773 6    627460.15421
  23764362.9224    3168663.09445   2469074.02961
  21454808.445      655685.000 7    510922.21522
  24009006.1174     489497.64845    365367.61161
 91  5  3 20 57  0.0000000  0  6G 2G 6G11G18G19G16
  21196186.9534   -2393325.49047  -1693153.91263
  22603137.164    -2849574.254 6  -2220444.23021
  23381131.703      821135.381 6    639844.75321
  23772941.1414    3213736.26045   2504195.73361
  21456876.4774     666561.96647    519397.74462
  24010972.5004     499812.22445    373404.86761
 91  5  3 20 57 15.0000000  0  6G 2G 6G11G18G19G16
  21190981.4844   -2420680.68047  -1714469.61863
  22595705.1644   -2888623.95546  -2250872.52761
  23384174.594      837152.794 6    652325.83621
  23781521.0554    3258831.17645   2539334.37761
  21458957.820      677488.233 7    527911.69322
  24012951.4924     510216.46345    381512.00061
 91  5  3 20 57 30.0000000  0  6G 2G 6G11G18G19G16
  21185788.3364   -2447970.44747  -1735734.34363
  22588272.5474   -2927671.98246  -2281299.53161
  23387247.6174     853294.90346    664904.07261
  23790105.273     3303948.854 5   2574490.77121
  21461049.5704     688464.96246    536464.96562
  24014945.6484     520710.99845    389689.50161
 91  5  3 20 57 45.0000000  0  6G 2G 6G11G18G19G16
  21180607.7664   -2475197.42647  -1756950.14263
  22580842.492    -2966720.910 6  -2311727.21921
  23390344.336      869558.998 6    677577.37521
  23798694.844     3349086.410 5   2609662.63521
  21463143.5084     699489.71947    545055.65662
  24016963.406      531292.932 5    397935.09121
 91  5  3 20 58  0.0000000  0  6G 2G 6G11G18G19G16
  21175438.7194   -2502360.34447  -1778116.02363
  22573412.922    -3005769.485 6  -2342154.64621
  23393460.8364     885946.00246    690346.43861
  23807288.3284    3394244.73545   2644850.69561
  21465250.945      710563.836 7    553684.81322
  24018990.0784     541963.25445    406249.55461
 91  5  3 20 58 15.0000000  0  6G 2G 6G11G18G19G16
  21170281.1254   -2529463.74247  -1799235.52663
  22565981.0314   -3044821.97946  -2372585.12161
  23396605.4304     902451.28046    703207.66361
  23815887.242     3439419.156 5   2680051.28821
  21467366.6334     721682.96647    562349.04162
  24021036.609      552717.243 5    414629.23921
 91  5  3 20 58 30.0000000  0  6G 2G 6G11G18G19G16
  21165135.0784   -2556502.41847  -1820304.59263
  22558549.5474   -3083873.25646  -2403014.65361
  23399765.609      919079.827 6    716164.95321
  23824485.9614    3484614.55545   2715268.22461
  21469496.406      732852.277 6    571052.37422
  24023100.6254     563559.90045    423077.96261
 91  5  3 20 58 45.0000000  0  6G 2G 6G11G18G19G16
  21160002.5554   -2583471.25047  -1841319.24463
  22551121.797    -3122918.075 6  -2433439.14321
  23402956.8134     935836.38346    729221.98561
  23833090.8444    3529835.70645   2750505.24661
  21471628.563      744076.914 7    579798.81322
  24025184.6564     574496.17445    431599.68661
 91  5  3 20 59  0.0000000  0  6G 2G 6G11G18G19G16
  21154883.5474   -2610376.88247  -1862284.64463
  22543691.4774   -3161962.95346  -2463863.69061
  23406168.742      952714.322 6    742373.59921
  23841702.297     3575076.028 5   2785757.18021
  21473776.5704     755350.51546    588583.41462
  24027284.469      585519.197 5    440188.97821
 91  5  3 20 59 15.0000000  0  6G 2G 6G11G18G19G16
  21149775.5474   -2637219.84447  -1883201.21063
  22536260.6334   -3201008.17046  -2494288.49661
  23409400.9224     969712.95046    755619.25661
  23850309.555     3620334.751 5   2821023.45321
  21475928.6024     766672.54647    597405.74762
  24029396.477      596627.892 5    448845.03821
 91  5  3 20 59 30.0000000  0  6G 2G 6G11G18G19G16
  21144680.6094   -2663997.12747  -1904066.59963
  22528829.2814   -3240050.66146  -2524711.18261
  23412660.7034     986835.16646    768961.21561
  23858926.031     3665614.535 5   2856306.14521
  21478095.5474     778046.18447    606268.29362
  24031526.313      607825.264 5    457570.19321
 91  5  3 20 59 45.0000000  0  6G 2G 6G11G18G19G16
  21139597.0554   -2690704.12747  -1924877.22163
  22521403.0084   -3279085.81646  -2555128.14761
  23415943.758     1004085.308 6    782402.86221
  23867553.766     3710919.692 5   2891608.60521
  21480268.1644     789476.09147    615174.68362
  24033672.477      619115.423 5    466367.64521
 91  5  3 21  0  0.0000000  0  6G 2G 6G11G18G19G16
  21134526.4694   -2717350.43247  -1945640.54663
  22513972.5164   -3318123.12546  -2585546.79161
  23419248.477     1021453.522 6    795936.50921
  23876178.539     3756240.321 5   2926923.12121
  21482454.7114     800952.52146
  24035837.0944     630488.66145
 91  5  3 21  0 15.0000000  0  6G 2G 6G11G18G19G16
  21129468.070    -2743934.536 7  -1966355.40723
  22506543.8594   -3357161.18446  -2615966.01661
  23422575.836     1038940.911 6    809563.02321
  23884801.3054    3801577.68745   2962250.68861
  21484644.7194     812477.08247
  24038021.7114     641946.16745
 91  5  3 21  0 30.0000000  0  6G 2G 6G11G18G19G16
  21124421.180    -2770455.045 7  -1987020.71323
  22499114.7194   -3396198.30946  -2646384.52061
  23425924.625     1056548.893 6    823283.50621
  23893437.5784    3846932.98245   2997592.18661
  21486847.8594     824051.25547
  24040216.2584     653489.31945
 91  5  3 21  0 45.0000000  0  6G 2G 6G11G18G19G16
  21119387.164    -2796910.704 7  -2007635.49023
  22491685.8984   -3435233.12946  -2676801.21661
  23429299.789     1074278.425 6    837098.69621
  23902068.3914    3892307.04845   3032948.36461
  21489060.4384     835676.32147
  24042430.7344     665118.83945
 91  5  3 21  1  0.0000000  0  6G 2G 6G11G18G19G16
  21114365.789    -2823299.712 7  -2028198.32723
  22484261.1954   -3474263.82746  -2707214.70961
  23432696.695     1092131.086 6    851009.83921
  23910708.5234    3937701.42245   3068320.32861
  21491282.2584     847354.26147
  24044662.9774     676836.52145
 91  5  3 21  1 15.0000000  0  6G 2G 6G11G18G19G16
  21109355.6804   -2849620.87647  -2048708.30163
  22476837.203    -3513288.873 6  -2737623.79021
  23436116.078     1110108.068 6    865017.84421
  23919351.6804    3983117.16145   3103708.94661
  21493516.3834     859086.59847
  24046907.0394     688643.01745
 91  5  3 21  1 30.0000000  0  6G 2G 6G11G18G19G16
  21104360.641    -2875875.966 7  -2069166.79023
  22469410.867    -3552310.114 6  -2768029.90721
  23439561.117     1128207.290 6    879121.11121
  23927995.6564    4028552.13245   3139112.56561
  21495759.961      870871.458 6    678599.44222
  24049171.7504     700536.13745    491457.83961
 91  5  3 21  1 45.0000000  0  6G 2G 6G11G18G19G16
  21099376.766    -2902064.068 7  -2089573.08123
  22461984.4924   -3591326.45446  -2798432.20961
  23443028.6254    1146429.49046    893320.20061
  23936645.977     4074007.374 5   3174531.96421
  21498009.1174     882709.84647    687824.13562
  24051450.078      712516.784 5    500793.33521
 91  5  3 21  2  0.0000000  0  6G 2G 6G11G18G19G16
  21094404.164    -2928193.575 7  -2109933.71123
  22454558.563    -3630346.255 6  -2828837.20321
  23446521.1094    1164765.96346    907608.32861
  23945297.555     4119474.030 5   3209960.26121
  21500268.9694     894593.46547    697084.06962
  24053742.703      724576.396 5    510190.36221
 91  5  3 21  2 15.0000000  0  6G 2G 6G11G18G19G16
  21089444.492    -2954262.592 7  -2130247.21123
  22447132.8754   -3669367.58346  -2859243.40061
  23450032.352     1183218.471 6    921986.88221
  23953954.4694    4164953.81245   3245398.75661
  21502541.1174     906524.25347    706380.75962
  24056052.258      736716.357 5    519649.97621
 91  5  3 21  2 30.0000000  0  6G 2G 6G11G18G19G16
  21084495.938    -2980266.467 7  -2150509.94723
  22439707.7114   -3708385.60646  -2889647.01461
  23453562.852     1201791.321 6    936459.19721
  23962611.1254    4210450.76045   3280850.65861
  21504822.0474     918506.86247    715717.82662
  24058376.070      748941.245 5    529175.79621
 91  5  3 21  2 45.0000000  0  6G 2G 6G11G18G19G16
  21079560.016    -3006203.492 7  -2170720.59623
  22432284.3204   -3747398.47246  -2920046.61061
  23457124.719     1220486.142 6    951026.56121
  23971275.5634    4255966.78545   3316317.42461
  21507112.4224     930543.35347    725096.88162
  24060720.117      761252.640 5    538769.01021
 91  5  3 21  3  0.0000000  0  6G 2G 6G11G18G19G16
  21074636.945    -3032075.242 7  -2190880.37923
  22424861.9534   -3786407.77246  -2950443.43161
  23460703.6334    1239301.06246    965687.50561
  23979937.6564    4301499.80545   3351797.42961
  21509412.0944     942631.86047    734516.46862
  24063083.4304     773648.42445    548427.99161
 91  5  3 21  3 15.0000000  0  6G 2G 6G11G18G19G16
  21069726.211    -3057875.750 7  -2210984.65023
  22417441.4224   -3825407.22646  -2980832.58861
  23464307.688     1258241.956 6    980446.62221
  23988607.016     4347055.676 5   3387295.21521
  21511723.9614     954778.50647    743981.35462
  24065463.164      786134.546 5    558157.37421
 91  5  3 21  3 30.0000000  0  6G 2G 6G11G18G19G16
  21064829.609    -3083610.178 7  -2231037.43523
  22410020.2034   -3864401.95446  -3011218.03661
  23467933.0474    1277303.44146    995299.69261
  23997278.547     4392629.033 5   3422806.64421
  21514045.4454     966978.36747    753487.70962
  24067851.344      798705.342 5    567952.71321
 91  5  3 21  3 45.0000000  0  6G 2G 6G11G18G19G16
  21059944.734    -3109281.173 7  -2251040.78823
  22402601.1174   -3903394.59846  -3041601.88261
  23471583.6254    1296482.57146   1010244.44061
  24005957.4304    4438216.80845   3458329.30261
  21516377.3754     979228.76647    763033.43962
  24070258.6174     811357.89345    577811.75861
 91  5  3 21  4  0.0000000  0  6G 2G 6G11G18G19G16
  21055072.922    -3134884.239 7  -2270991.21423
  22395182.2894   -3942380.49446  -3071980.46361
  23475259.0784    1315783.62946   1025284.19061
  24014631.5004    4483823.46245   3493866.66561
  21518718.1174     991534.49947    772622.29262
  24072681.703      824096.407 5    587737.79221
 91  5  3 21  4 15.0000000  0  6G 2G 6G11G18G19G16
  21050212.477    -3160421.965 7  -2290890.72823
  22387762.664    -3981362.165 6  -3102355.75121
  23478953.8674    1335203.86746   1040416.80961
  24023320.508     4529446.007 5   3529416.42121
  21521068.9454    1003892.93647    782252.21262
  24075125.8914     836918.19345    597728.69661
 91  5  3 21  4 30.0000000  0  6G 2G 6G11G18G19G16
  21045365.422    -3185894.376 7  -2310739.34523
  22380346.4224   -4020339.42246  -3132727.59861
  23482670.8134    1354743.05246   1055642.11561
  24032002.477     4575084.306 5   3564978.44521
  21523432.7814    1016304.20347    791923.29762
  24077577.516      849823.012 5    607784.32821
 91  5  3 21  4 45.0000000  0  6G 2G 6G11G18G19G16
  21040530.367    -3211302.165 7  -2330537.60623
  22372929.4304   -4059312.79446  -3163096.42061
  23486412.9614    1374400.33446   1070959.44561
  24040688.102     4620737.073 5   3600551.73121
  21525803.8674    1028767.58147    801634.98662
  24080052.2814     862809.83245    617903.85361
 91  5  3 21  5  0.0000000  0  6G 2G 6G11G18G19G16
  21035707.234    -3236646.108 7  -2350286.12123
  22365514.102    -4098283.056 6  -3193462.81421
  23490176.5394    1394174.57346   1086367.91361
  24049382.1174    4666403.50145   3636135.68261
  21528184.6724    1041282.29847    811386.68362
  24082536.461      875877.551 5    628086.40421
 91  5  3 21  5 15.0000000  0  6G 2G 6G11G18G19G16
  21030897.320    -3261925.564 7  -2369984.38423
  22358098.3134   -4137249.48146  -3223826.22461
  23493961.6644    1414066.23446   1101867.87761
  24058072.5314    4712083.83545   3671730.44261
  21530578.0004    1053849.06047    821178.93762
  24085037.3984     889026.67845    638332.39961
 91  5  3 21  5 30.0000000  0  6G 2G 6G11G18G19G16
  21026098.352    -3287143.477 7  -2389634.69223
  22350683.2424   -4176214.91246  -3254188.85861
  23497769.7114    1434072.07446   1117456.81361
  24066770.141     4757774.849 5   3707333.55121
  21532978.9454    1066465.00147    831009.50662
  24087555.438      902253.945 5    648639.27821
 91  5  3 21  5 45.0000000  0  6G 2G 6G11G18G19G16
  21021312.4694   -3312295.94247  -2409234.00263
  22343271.0634   -4215175.14546  -3284547.44261
  23501595.836     1454195.930 6   1133137.71221
  24075466.102     4803480.417 5   3742947.97421
  21535389.0554    1079134.27747    840881.63662
  24090087.0164     915562.80645    659009.74461
 91  5  3 21  6  0.0000000  0  6G 2G 6G11G18G19G16
  21016538.430    -3337382.696 7  -2428782.10823
  22335856.3054   -4254129.99846  -3314901.83261
  23505449.3834    1474437.67346   1148910.46361
  24084165.602     4849200.766 5   3778573.90821
  21537809.1024    1091857.13347    850795.51162
  24092639.086      928953.185 5    669443.69321
 91  5  3 21  6 15.0000000  0  6G 2G 6G11G18G19G16
  21011775.7034   -3362406.05947  -2448280.81963
  22328443.375    -4293081.584 6  -3345253.67521
  23509321.984     1494794.745 6   1164773.08421
  24092867.695     4894933.126 5   3814209.22521
  21540240.5554    1104631.39047    860749.44262
  24095201.2504     942422.77945    679939.38161
 91  5  3 21  6 30.0000000  0  6G 2G 6G11G18G19G16
  21007028.391    -3387358.203 7  -2467724.03723
  22321034.7344   -4332021.84146  -3375596.70061
  23513221.2114    1515274.92746   1180731.63561
  24101573.4694    4940685.23545   3849859.91561
  21542680.7664    1117465.09147    870749.69662
  24097775.5554     955979.09045    690502.68161
 91  5  3 21  6 45.0000000  0  6G 2G 6G11G18G19G16
  21002291.078    -3412251.344 7  -2487121.27623
  22313625.0704   -4370962.86146  -3405940.30761
  23517140.2194    1535865.83646   1196776.46361
  24110284.0004    4986444.57545   3885516.24561
  21545134.7814    1130346.09747    880786.80862
  24100375.6804     969609.90345    701123.99261
 91  5  3 21  7  0.0000000  0  6G 2G 6G11G18G19G16
  20997566.852    -3437077.541 7  -2506466.35423
  22306216.031    -4409896.585 6  -3436278.23021
  23521079.6484    1556575.18546   1212913.57561
  24118991.7034    5032218.69245   3921184.07861
  21547595.094     1143282.372 7    890866.97922
  24102979.313      983322.755 5    711809.27221
 91  5  3 21  7 15.0000000  0  6G 2G 6G11G18G19G16
  20992855.227    -3461834.204 7  -2525757.24723
  22298807.9064   -4448820.43146  -3466608.46361
  23525045.3984    1577405.20046   1229144.72461
  24127706.1094    5078009.87845   3956865.21961
  21550067.3754    1156276.43447    900992.18762
  24105606.5474     997119.66045    722560.01761
 91  5  3 21  7 30.0000000  0  6G 2G 6G11G18G19G16
  20988157.578    -3486521.401 7  -2544994.01123
  22291403.3134   -4487734.28646  -3496930.90761
  23529030.0864    1598355.59946   1245469.68361
  24136427.070     5123817.912 5   3992559.47621
  21552552.0164    1169328.28047    911162.41762
  24108249.461     1011000.273 5    733375.97021
 91  5  3 21  7 45.0000000  0  6G 2G 6G11G18G19G16
  20983472.3524   -3511145.90447  -2564181.92363
  22283998.9924   -4526644.84246  -3527250.78161
  23533039.703     1619419.426 6   1261883.02221
  24145150.2194    5169635.96445   4028261.56161
  21555045.7584    1182431.35847    921372.56662
  24110905.8914    1024957.47745    744251.64661
 91  5  3 21  8  0.0000000  0  6G 2G 6G11G18G19G16
  20978798.4924   -3535707.43947  -2583320.76963
  22276594.5704   -4565551.77446  -3557567.83361
  23537067.7974    1640596.69146   1278384.74661
  24153869.383     5215463.652 5   4063971.12221
  21557549.6414    1195585.78746    931622.72562
  24113577.664     1038991.447 5    755187.10621
 91  5  3 21  8 15.0000000  0  6G 2G 6G11G18G19G16
  20974137.156    -3560201.501 7  -2602407.03623
  22269192.4774   -4604450.28746  -3587878.32461
  23541119.2114    1661891.74146   1294978.26061
  24162591.297     5261305.498 5   4099691.73921
  21560063.4534    1208796.20247    941916.51862
  24116263.305     1053106.501 5    766185.76021
 91  5  3 21  8 30.0000000  0  6G 2G 6G11G18G19G16
  20969488.422    -3584630.015 7  -2621442.22923
  22261791.7734   -4643342.25346  -3618183.70961
  23545196.6484    1683302.44546   1311661.89161
  24171312.6414    5307159.11445   4135421.52161
  21562585.8444    1222061.04647    952252.71862
  24118963.5944    1067300.52345    777245.95161
 91  5  3 21  8 45.0000000  0  6G 2G 6G11G18G19G16
  20964851.188    -3608997.658 7  -2640429.99123
  22254391.4694   -4682232.24546  -3648487.55861
  23549289.5474    1704823.70546   1328431.67761
  24180042.1954    5353019.94845   4171156.91861
  21565122.0314    1235375.50447    962627.57862
  24121679.305     1081568.313 5    788363.62121
 91  5  3 21  9  0.0000000  0  6G 2G 6G11G18G19G16
  20960227.023    -3633301.910 7  -2659368.35623
  22246991.1094   -4721117.47546  -3678787.69961
  23553408.039     1726457.908 6   1345289.46821
  24188774.203     5398890.006 5   4206899.50721
  21567664.477     1248742.205 6    973043.14722
  24124407.133     1095912.444 5    799540.76221
 91  5  3 21  9 15.0000000  0  6G 2G 6G11G18G19G16
  20955613.305    -3657545.054 7  -2678259.10223
  22239593.102    -4760000.190 6  -3709085.87421
  23557546.5944    1748202.52246   1362233.28761
  24197502.430     5444767.111 5   4242647.58721
  21570216.789     1262158.921 6    983497.68922
  24127150.258     1110330.198 5    810775.32221
 91  5  3 21  9 30.0000000  0  6G 2G 6G11G18G19G16
  20951012.766    -3681722.471 7  -2697098.63223
  22232194.320    -4798875.567 6  -3739378.33821
  23561705.3914    1770061.98046   1379266.60561
  24206233.117     5490655.615 5   4278404.54321
  21572779.922     1275630.486 7    993994.97022
  24129907.445     1124825.807 5    822070.50521
 91  5  3 21  9 45.0000000  0  6G 2G 6G11G18G19G16
  20946425.688    -3705829.540 7  -2715883.34723
  22224798.7194   -4837738.95546  -3769661.45561
  23565886.9844    1792040.65646   1396392.80661
  24214971.7734    5536559.60445   4314173.58661
  21575355.906     1289161.693 6   1004538.72222
  24132685.617     1139403.814 5    833429.91521
 91  5  3 21 10  0.0000000  0  6G 2G 6G11G18G19G16
  20941849.820    -3729871.523 8  -2734617.34423
  22217406.938    -4876595.326 6  -3799939.10921
  23570090.031     1814133.183 6   1413607.73421
  24223706.7344    5582473.75745   4349950.51561
  21577942.422     1302747.253 6   1015124.82622
  24135474.4144    1154058.76145    844849.28061
 91  5  3 21 10 15.0000000  0  6G 2G 6G11G18G19G16
  20937286.656    -3753850.433 8  -2753302.19223
  22210012.1644   -4915446.73446  -3830212.89161
  23574314.9924    1836337.07746   1430909.43561
  24232445.703     5628395.491 5   4385733.35521
  21580536.0394    1316385.17846   1025751.74062
  24138275.8834    1168788.12745    856326.61461
 91  5  3 21 10 30.0000000  0  6G 2G 6G11G18G19G16
  20932735.828    -3777765.297 8  -2771937.13423
  22202620.7194   -4954291.97546  -3860481.87261
  23578564.3444    1858653.23446   1448298.61361
  24241183.742     5674325.854 5   4421522.93121
  21583140.352     1330076.599 6   1036420.33822
  24141091.8984    1183592.76645    867862.65661
 91  5  3 21 10 45.0000000  0  6G 2G 6G11G18G19G16
  20928197.828    -3801616.129 7  -2790522.17823
  22195228.3594   -4993130.78646  -3890745.84061
  23582832.2114    1881081.55246   1465775.18461
  24249929.7344    5720264.62245   4457319.05261
  21585759.031     1343821.732 6   1047130.78122
  24143928.570     1198472.118 5    879456.83921
 91  5  3 21 11  0.0000000  0  6G 2G 6G11G18G19G16
  20923671.070    -3825399.632 8  -2809054.76223
  22187842.719    -5031959.866 6  -3921002.23021
  23587122.1334    1903625.01246   1483341.48861
  24258673.9304    5766214.94345   4493124.15461
  21588386.766     1357623.771 6   1057885.57622
  24146773.867     1213429.288 5    891111.70621
 91  5  3 21 11 15.0000000  0  5G 2G 6G11G18G19
  20919159.281    -3849114.783 8  -2827534.08323
  22180453.0474   -5070778.20046  -3951250.24361
  23591434.1884    1926284.20346   1500997.96161
  24267418.4844    5812177.33745   4528938.68661
  21591022.242     1371483.706 6   1068685.48322
 91  5  3 21 11 30.0000000  0  5G 2G 6G11G18G19
  20914656.984    -3872768.524 8  -2845965.55123
  22173067.9694   -5109592.45646  -3981495.08361
  23595765.6564    1949052.08946   1518739.14061
  24276167.539     5858144.667 5   4564757.05521
  21593670.906     1385394.823 6   1079525.26822
 91  5  3 21 11 45.0000000  0  5G 2G 6G11G18G19
  20910168.664    -3896359.883 8  -2864348.40923
  22165680.5164   -5148401.61746  -4011735.94961
  23600117.6724    1971929.24946   1536565.46061
  24284914.4924    5904117.72345   4600579.87561
  21596326.375     1399358.077 6   1090405.68422
 91  5  3 21 12  0.0000000  0  5G 2G 6G11G18G19
  20905692.219    -3919883.856 8  -2882678.75923
  22158297.7194   -5187200.37146  -4041968.71161
  23604493.648     1994920.671 6   1554480.81421
  24293663.297     5950101.361 5   4636410.93921
  21598995.227     1413378.737 6   1101330.82622
 91  5  3 21 12 15.0000000  0  5G 2G 6G11G18G19
  20901227.547    -3943347.928 8  -2900962.43223
  22150916.8364   -5225996.20146  -4072199.18561
  23608891.5554    2018018.49446   1572479.08761
  24302417.258     5996087.621 5   4672244.07821
  21601671.594     1427449.317 6   1112294.86922
 91  5  3 21 12 29.9990000  0  5G 2G 6G11G18G19
  20896776.237    -3966738.926 8  -2919189.16423
  22143536.5504   -5264774.76846  -4102416.21661
  23613309.8784    2041232.49946   1590567.88961
  24311172.237     6042084.807 5   4708085.68621
  21604363.761     1441580.451 6   1123306.09922
 91  5  3 21 12 44.9990000  0  5G 2G 6G11G18G19
  20892336.730    -3990066.601 8  -2937366.55523
  22136158.6054   -5303547.67546  -4132628.83361
  23617745.1284    2064558.99346   1608744.34161
  24319923.5344    6088092.43045   4743935.43961
  21607060.4094    1455767.58446   1134360.97062
 91  5  3 21 12 59.9990000  0  5G 2G 6G11G18G19
  20887909.730    -4013331.282 8  -2955494.85923
  22128781.3004   -5342314.04246  -4162836.35261
  23622204.480     2087994.254 6   1627005.53621
  24328678.5504    6134105.20244   4779789.19461
  21609769.5114    1470007.91546   1145457.28862
 91  5  3 21 13 14.9990000  0  5G 2G 6G11G18G19
  20883495.519    -4036529.664 8  -2973571.49923
  22121406.4094   -5381070.42446  -4193036.09561
  23626685.9254    2111541.46246   1645353.97661
  24337441.6364    6180126.23345   4815649.41061
  21612490.1444    1484304.93646   1156597.78062
 91  5  3 21 13 29.9990000  0  4G 2G 6G11G19
  20879091.558    -4059667.864 8  -2991601.24923
  22114033.1674   -5419822.66946  -4223232.61561
  23631189.245     2135194.347 6   1663784.76621
  21615218.808     1498652.532 6   1167777.68322
 91  5  3 21 13 44.9990000  0  4G 2G 6G11G19
  20874701.401    -4082739.062 8  -3009578.78923
  22106660.0894   -5458563.89846  -4253420.54861
  23635711.151     2158959.363 6   1682302.91321
  21617962.214     1513057.584 6   1179002.35622
 91  5  3 21 13 59.9990000  0  4G 2G 6G11G19
  20870324.315    -4105742.114 8  -3027503.22923
  22099290.1674   -5497292.93946  -4283598.99061
  23640252.1054    2182837.35946   1700909.10961
  21620717.065     1527521.270 6   1190272.71422
 91  5  3 21 14 14.9990000  0  4G 2G 6G11G19
  20865959.808    -4128680.010 8  -3045376.89523
  22091921.1514   -5536012.46746  -4313770.01261
  23644819.7614    2206825.24346   1719600.93161
  21623477.362     1542040.884 6   1201586.65722
 91  5  3 21 14 29.9990000  0  4G 2G 6G11G19
  20861607.190    -4151549.829 8  -3063197.51723
  22084554.6834   -5574719.71546  -4343931.47061
  23649405.105     2230925.298 6   1738380.14521
  21626252.714     1556619.246 6   1212946.37722
 91  5  3 21 14 44.9990000  0  4G 2G 6G11G19
  20857267.745    -4174352.119 8  -3080965.51623
  22077191.9334   -5613414.89946  -4374083.52761
  23654013.183     2255136.886 6   1757246.28221
  21629037.214     1571255.983 6   1224351.58322
 91  5  3 21 14 59.9990000  0  4G 2G 6G11G19
  20852940.487    -4197093.891 8  -3098686.36523
  22069829.7374   -5652104.75446  -4404231.42761
  23658639.440     2279453.094 6   1776193.92821
  21631832.159     1585944.372 6   1235797.03422
 91  5  3 21 15 14.9990000  0  4G 2G 6G11G19
  20848626.198    -4219763.356 8  -3116350.86823
  22062469.4174   -5690777.30146  -4434365.85061
  23663290.8474    2303885.23146   1795231.91561
  21634640.362     1600696.179 6   1247291.90722
 91  5  3 21 15 29.9990000  0  4G 2G 6G11G19
  20844325.175    -4242368.513 8  -3133965.26123
  22055114.5734   -5729440.60046  -4464493.06361
  23667957.6284    2328425.00746   1814353.77761
  21637457.276     1615503.426 6   1258829.97622
 91  5  3 21 15 44.9990000  0  4G 2G 6G11G19
  20840035.495    -4264908.658 8  -3151528.99623
  22047758.1674   -5768093.75346  -4494612.36361
  23672650.417     2353072.950 6   1833559.92721
  21640286.706     1630366.814 6   1270411.79422
 91  5  3 21 15 59.9990000  0  4G 2G 6G11G19
  20835758.081    -4287385.043 8  -3169043.04623
  22040404.5194   -5806737.71946  -4524724.51061
  23677358.370     2377827.666 6   1852849.27621
  21643124.448     1645285.177 6   1282036.45322
 91  5  3 21 16 14.9990000  0  4G 2G 6G11G19
  20831494.378    -4309791.680 8  -3186502.74823
  22033054.5264   -5845366.42246  -4554824.76761
  23682090.1444    2402694.77946   1872226.21461
  21645974.823     1660264.600 6   1293708.68322
 91  5  3 21 16 29.9990000  0  4G 2G 6G11G19
  20827243.636    -4332131.791 8  -3203910.61223
  22025704.8864   -5883982.83646  -4584915.44061
  23686843.706     2427670.848 6   1891688.03421
  21648837.605     1675301.942 6   1305426.05122
 91  5  3 21 16 44.9990000  0  4G 2G 6G11G19
  20823005.690    -4354403.679 8  -3221265.31923
  22018358.4564   -5922585.04246  -4614995.04261
  23691618.370     2452757.337 6   1911235.90421
  21651709.956     1690398.909 6   1317189.87722
 91  5  3 21 16 59.9990000  0  4G 2G 6G11G19
  20818779.175    -4376611.810 8  -3238570.34123
  22011014.1514   -5961177.52246  -4645067.07161
  23696412.7614    2477949.56446   1930866.18161
  21654593.487     1705551.321 6   1328996.91122
 91  5  3 21 17 14.9990000  0  4G 2G 6G11G19
  20814564.995    -4398755.922 8  -3255825.47923
  22003674.4804   -5999759.82246  -4675131.16461
  23701224.8004    2503247.43946   1950578.76361
  21657487.323     1720759.425 6   1340847.33722
 91  5  3 21 17 29.9990000  0  4G 2G 6G11G19
  20810363.464    -4420832.891 8  -3273028.29623
  21996334.8704   -6038328.65746  -4705184.76461
  23706059.628     2528653.852 6   1970375.93021
  21660394.261     1736026.425 6   1352743.65422
 91  5  3 21 17 44.9990000  0  4G 2G 6G11G19
  20806176.019    -4442844.451 8  -3290180.14823
  21988995.2534   -6076885.68646  -4735229.16661
  23710915.0584    2554166.81746   1990256.11961
  21663308.753     1751350.727 6   1364684.62522
 91  5  3 21 17 59.9990000  0  4G 2G 6G11G19
  20801998.917    -4464788.161 8  -3307279.13123
  21981662.3474   -6115428.16446  -4765262.23461
  23715790.901     2579788.591 6   2010221.09121
  21666238.815     1766734.868 6   1376672.21922
 91  5  3 21 18 14.9990000  0  4G 2G 6G11G19
  20797837.276    -4486661.929 8  -3324323.61223
  21974330.7764   -6153954.05246  -4795282.37061
  23720690.2694    2605520.77646   2030272.11361
  21669176.190     1782180.786 6   1388707.95522
 91  5  3 21 18 29.9990000  0  4G 2G 6G11G19
  20793685.909    -4508475.585 8  -3341321.25023
  21967001.7844   -6192472.85546  -4825296.98861
  23725602.8864    2631353.42146   2050401.41061
  21672125.683     1797678.899 6   1400784.36322
 91  5  3 21 18 44.9990000  0  4G 2G 6G11G19
  20789548.0504   -4530221.62048  -3358266.20363
  21959674.8084   -6230976.99546  -4855300.17461
  23730542.1364    2657293.75546   2070614.61861
  21675086.315     1813236.789 6   1412907.34822
 91  5  3 21 18 59.9990000  0  4G 2G 6G11G19
  20785423.448    -4551897.119 8  -3375156.18723
  21952349.8154   -6269463.27346  -4885289.44361
  23735499.362     2683344.414 6   2090913.79021
  21678058.175     1828857.432 6   1425079.22922
 91  5  3 21 19 14.9990000  0  4G 2G 6G11G19
  20781310.6984   -4573509.32548  -3391996.85663
  21945029.0974   -6307938.86446  -4915270.38561
  23740476.558     2709497.964 6   2111293.13521
  21681041.605     1844533.860 6   1437294.58322
 91  5  3 21 19 29.9990000  0  4G 2G 6G11G19
  20777209.7614   -4595058.69248  -3408788.55863
  21937709.8784   -6346403.87446  -4945243.08961
  23745469.6514    2735753.81846   2131752.20361
  21684035.245     1860265.605 6   1449553.04122
 91  5  3 21 19 44.9990000  0  4G 2G 6G11G19
  20773122.589    -4616539.369 8  -3425526.73323
  21930393.737    -6384852.303 6  -4975202.86721
  23750487.3624    2762117.64146   2152295.39361
  21687039.675     1876058.664 6   1461859.27522
 91  5  3 21 19 59.9990000  0  4G 2G 6G11G19
  20769047.1124   -4637953.36748  -3442212.95563
  21923078.6284   -6423285.96146  -5005151.13361
  23755523.667     2788587.083 6   2172920.88621
  21690055.870     1891910.995 6   1474211.69122
 91  5  3 21 20 14.9990000  0  4G 2G 6G11G19
  20764984.8474   -4659301.39648  -3458847.77163
  21915769.0034   -6461705.32546  -5035088.26861
  23760582.5264    2815161.27346   2193628.00161
  21693084.472     1907821.979 6   1486609.80722
 91  5  3 21 20 29.9990000  0  4G 2G 6G11G19
  20760936.7224   -4680578.84148  -3475427.58863
  21908460.7374   -6500105.73146  -5065010.62661
  23765658.8944    2841844.47246   2214420.06561
  21696126.222     1923796.371 6   1499057.33822
 91  5  3 21 20 44.9990000  0  4G 2G 6G11G19
  20756900.7694   -4701785.02448  -3491951.87763
  21901156.6204   -6538486.36746  -5094917.58661
  23770757.831     2868637.088 6   2235297.38321
  21699175.894     1939834.856 6   1511554.80722
 91  5  3 21 20 59.9990000  0  4G 2G 6G11G19
  20752879.1904   -4722919.41648  -3508420.22363
  21893856.6754   -6576846.57246  -5124808.61461
  23775876.1204    2895539.23946   2256260.06061
  21702241.112     1955938.070 6   1524102.71522
 91  5  3 21 21 14.9990000  0  4G 2G 6G11G19
  20748871.1124   -4743981.66448  -3524832.35363
  21886560.2224   -6615185.79046  -5154683.30261
  23781019.5034    2922550.97346   2277308.11361
  21705318.698     1972106.536 6   1536701.48222
 91  5  3 21 21 29.9990000  0  4G 2G 6G11G19
  20744876.4874   -4764972.42748  -3541188.78163
  21879271.1444   -6653504.62446  -5184542.09661
  23786177.8784    2949671.43846   2298440.90361
  21708408.230     1988339.491 6   1549350.47622
 91  5  3 21 21 44.9990000  0  4G 2G 6G11G19
  20740895.089    -4785891.405 8  -3557489.27223
  21871982.4404   -6691802.42046  -5214384.50561
  23791361.378     2976900.821 6   2319658.56021
  21711510.323     2004637.362 6   1562050.07222
 91  5  3 21 21 59.9990000  0  4G 2G 6G11G19
  20736929.6754   -4806734.58648  -3573730.70263
  21864697.6364   -6730074.93346  -5244207.20761
  23796561.940     3004242.880 6   2340964.01521
  21714621.480     2021004.477 6   1574803.61522
 91  5  3 21 22 14.9990000  0  4G 2G 6G11G19
  20732977.2694   -4827500.76648  -3589912.13063
  21857419.5894   -6768320.92546  -5274009.25161
  23801791.2144    3031698.37446   2362357.87261
  21717751.581     2037441.928 6   1587611.96921
 91  5  3 21 22 29.9990000  0  4G 2G 6G11G19
  20729039.2534   -4848197.26148  -3606039.26363
  21850146.9404   -6806547.32546  -5303796.02961
  23807032.4404    3059259.97146   2383834.39661
  21720892.690     2053942.535 6   1600469.53422
 91  5  3 21 22 44.9990000  0  4G 2G 6G11G19
  20725114.5654   -4868823.77648  -3622111.86263
  21842874.9804   -6844753.74946  -5333567.23961
  23812295.831     3086927.611 6   2405393.55521
  21724043.8234    2070506.67846   1613376.60561
 91  5  3 21 22 59.9990000  0  4G 2G 6G11G19
  20721203.8394   -4889373.25748  -3638124.43563
  21835611.9014   -6882932.87246  -5363317.17961
  23817584.5814    3114708.10946   2427040.65261
  21727207.847     2087141.586 6   1626338.82021
 91  5  3 21 23 14.9990000  0  4G 2G 6G11G19
  20717307.1364   -4909852.92348  -3654082.61163
  21828348.0264   -6921092.05846  -5393051.58061
  23822887.7224    3142593.87246   2448769.79561
  21730385.769     2103839.810 6   1639350.38222
 91  5  3 21 23 29.9990000  0  4G 2G 6G11G19
  20713423.1594   -4930257.72548  -3669982.44863
  21821092.597    -6959225.791 6  -5422766.15221
  23828222.605     3170589.869 6   2470584.81021
  21733579.784     2120606.594 6   1652415.35422
 91  5  3 21 23 44.9990000  0  4G 2G 6G11G19
  20709554.5114   -4950590.65548  -3685826.28663
  21813839.5814   -6997336.93546  -5452463.11961
  23833563.5974    3198692.81846   2492483.18161
  21736779.948     2137439.164 6   1665531.58922
 91  5  3 21 23 59.9990000  0  4G 2G 6G11G19
  20705699.4874   -4970850.06048  -3701612.82863
  21806593.9874   -7035423.74946  -5482141.12961
  23838938.097     3226903.985 6   2514465.87421
  21739999.769     2154339.051 6   1678700.28221
 91  5  3 21 24 14.9990000  0  4G 2G 6G11G19
  20701857.3394   -4991037.85248  -3717343.56663
  21799348.1284   -7073487.88446  -5511801.46161
  23844321.019     3255221.297 6   2536531.26021
  21743225.651     2171304.505 6   1691920.06422
 91  5  3 21 24 29.9990000  0  4G 2G 6G11G19
  20698030.0974   -5011150.32548  -3733015.61563
  21792109.323    -7111525.458 6  -5541441.10821
  23849735.175     3283648.178 6   2558682.04221
  21746467.597     2188339.469 6   1705194.01522
 91  5  3 21 24 44.9990000  0  4G 2G 6G11G19
  20694215.6834   -5031190.01348  -3748630.95263
  21784876.8624   -7149538.76846  -5571061.83861
  23855160.6364    3312181.73046   2580915.93761
  21749720.987     2205441.379 6   1718520.13222
 91  5  3 21 24 59.9990000  0  4G 2G 6G11G19
  20690417.1674   -5051161.27448  -3764192.96363
  21777646.7924   -7187532.02746  -5600666.94561
  23860613.698     3340817.368 6   2603229.38021
  21752989.144     2222606.080 6   1731895.16722
 91  5  3 21 25 14.9990000  0  4G 2G 6G11G19
  20686630.3154   -5071058.64148  -3779697.39563
  21770421.5814   -7225499.68946  -5630252.10761
  23866082.0344    3369560.21846   2625626.37261
  21756266.9644    2239838.82146   1745323.22661
 91  5  3 21 25 29.9990000  0  4G 2G 6G11G19
  20682858.7844   -5090876.07948  -3795139.54863
  21763202.5894   -7263435.55046  -5659812.48661
  23871572.0654    3398416.10046   2648111.42861
  21759560.112     2257145.884 6   1758809.19622
 91  5  3 21 25 44.9990000  0  4G 2G 6G11G19
  20679101.8864   -5110613.26948  -3810519.16863
  21755990.183    -7301338.917 6  -5689347.54621
  23877084.120     3427385.052 6   2670684.59021
  21762868.644     2274527.574 6   1772353.31722
 91  5  3 21 25 59.9990000  0  4G 2G 6G11G19
  20675360.1514   -5130279.09248  -3825843.18163
  21748782.3314   -7339218.42346  -5718864.01361
  23882618.7844    3456458.17946   2693338.94361
  21766186.675     2291975.395 6   1785948.96921
 91  5  3 21 26 14.9990000  0  4G 2G 6G11G19
  20671632.2844   -5149872.85148  -3841111.03863
  21741578.3004   -7377073.31446  -5748361.30461
  23888168.769     3485635.565 6   2716074.51521
  21769522.7764    2309489.79146   1799596.49461
 91  5  3 21 26 29.9990000  0  4G 2G 6G11G19
  20667919.3474   -5169386.84548  -3856316.74263
  21734381.8154   -7414895.72146  -5777833.28061
  23893740.2374    3514924.79046   2738897.24961
  21772870.019     2327078.732 6   1813302.10422
 91  5  3 21 26 44.9990000  0  4G 2G 6G11G19
  20664220.1284   -5188825.77448  -3871463.95263
  21727187.8004   -7452690.17646  -5807283.47161
  23899338.378     3544320.896 6   2761803.25721
  21776226.612     2344737.400 6   1827062.05222
 91  5  3 21 26 59.9990000  0  4G 2G 6G11G19
  20660535.1984   -5208188.06348  -3886551.44463
  21720001.589    -7490454.969 6  -5836710.55421
  23904953.987     3573824.927 6   2784793.37721
  21779602.2304    2362467.40846   1840877.58561
 91  5  3 21 27 14.9990000  0  4G 2G 6G11G19
  20656865.8394   -5227472.77348  -3901578.48663
  21712822.1594   -7528188.91946  -5866113.59861
  23910585.4334    3603437.98946   2807868.44261
  21782990.2064    2380269.96146   1854749.64862
 91  5  3 21 27 29.9990000  0  4G 2G 6G11G19
  20653209.5194   -5246685.34548  -3916549.31463
  21705645.4804   -7565897.03046  -5895496.51061
  23916240.8084    3633154.25846   2831023.93161
  21786391.6514    2398139.69646   1868674.06262
 91  5  3 21 27 44.9990000  0  4G 2G 6G11G19
  20649567.5034   -5265822.52348  -3931461.39863
  21698477.0424   -7603576.11746  -5924856.80661
  23921915.5734    3662976.44146   2854261.96961
  21789805.8004    2416079.90046   1882653.38862
 91  5  3 21 27 59.9990000  0  4G 2G 6G11G19
  20645941.2924   -5284882.76548  -3946313.52563
  21691312.3314   -7641224.28546  -5954193.00861
  23927612.081     3692905.996 6   2877583.64421
  21793232.940     2434092.237 6   1896688.91821
 91  5  3 21 28 14.9990000  0  4G 2G 6G11G19
  20642328.2224   -5303866.73648  -3961106.22663
  21684153.2694   -7678841.96046  -5983505.44761
  23933329.1204    3722942.01746   2900988.29661
  21796673.956     2452176.202 6   1910780.26322
 91  5  3 21 28 29.9990000  0  4G 2G 6G11G19
  20638729.3084   -5322778.17348  -3975842.40463
  21676999.4804   -7716432.69146  -6012796.89061
  23939062.4804    3753080.58646   2924472.83261
  21800127.620     2470328.129 6   1924924.56222
 91  5  3 21 28 44.9990000  0  4G 2G 6G11G19
  20635144.5584   -5341613.27848  -3990519.10363
  21669853.4484   -7753992.58146  -6042064.30061
  23944817.847     3783325.156 6   2948040.00721
  21803595.1594    2488551.86546   1939124.82261
 91  5  3 21 28 59.9990000  0  4G 2G 6G11G19
  20631575.5114   -5360365.16448  -4005130.95863
  21662713.5504   -7791514.43546  -6071302.07562
  23950592.1594    3813682.39546   2971694.95361
  21807078.3474    2506854.43146   1953386.50061
 91  5  3 21 29 14.9990000  0  4G 2G 6G11G19
  20628022.4404   -5379040.71948  -4019683.33163
  21655578.3234   -7829005.05346  -6100515.50861
  23956393.331     3844144.903 6   2995431.92021
  21810573.8474    2525228.96246   1967704.25561
 91  5  3 21 29 29.9990000  0  4G 2G 6G11G19
  20624482.6754   -5397643.48948  -4034178.98963
  21648448.8234   -7866467.82046  -6129707.23962
  23962207.542     3874708.928 6   3019248.00021
  21814082.222     2543671.889 6   1982075.30821
 91  5  3 21 29 44.9990000  0  4G 2G 6G11G19
  20620956.4954   -5416172.12948  -4048616.88363
  21641326.5424   -7903901.18046  -6158876.06262
  23968042.5264    3905375.55946   3043144.04161
  21817609.0584    2562184.60246   1996500.74161
 91  5  3 21 29 59.9990000  0  4G 2G 6G11G19
  20617445.1364   -5434625.95248  -4062996.47963
  21634207.9014   -7941304.11646  -6188021.17662
  23973900.855     3936145.213 6   3067120.36521
  21821143.1444    2580767.97746   2010981.23761
 91  5  3 21 30 14.9990000  0  4G 2G 6G11G19
  20613948.4804   -5453002.44048  -4077315.81063
  21627097.6594   -7978673.99046  -6217140.51862
  23979773.011     3967020.263 6   3091178.78821
  21824693.0734    2599424.44546   2025518.68661
 91  5  3 21 30 29.9990000  0  4G 2G 6G11G19
  20610466.6204   -5471301.25348  -4091574.61863
  21619992.8624   -8016010.11846  -6246233.58262
  23985668.6514    3998000.84146   3115319.47161
  21828259.4174    2618154.60146   2040113.55161
 91  5  3 21 30 44.9990000  0  4G 2G 6G11G19
  20606997.3554   -5489528.69848  -4105777.81263
  21612892.011    -8053318.688 6  -6275305.16322
  23991585.644     4029080.275 6   3139537.15421
  21831836.2534    2636952.11146   2054760.90161
 91  5  3 21 30 59.9990000  0  4G 2G 6G11G19
  20603543.0034   -5507681.10448  -4119922.53563
  21605798.5264   -8090595.94946  -6304352.34862
  23997518.409     4060261.804 6   3163834.43621
  21835424.2224    2655820.64746   2069463.59161
 91  5  3 21 31 14.9990000  0  4G 2G 6G11G19
  20600103.0194   -5525759.27748  -4134009.41463
  21598710.3234   -8127842.24446  -6333375.40562
  24003469.1674    4091544.58946   3188210.58961
  21839032.042     2674759.645 6   2084221.19721
 91  5  3 21 31 29.9990000  0  4G 2G 6G11G19
  20596677.9404   -5543762.66048  -4148038.01563
  21591630.1444   -8165057.02146  -6362373.90062
  24009444.495     4122928.838 6   3212665.78521
  21842646.8474    2693769.57446   2099034.06961
 91  5  3 21 31 44.9990000  0  4G 2G 6G11G19
  20593265.6364   -5561687.83548  -4162005.67263
  21584554.253    -8202236.702 6  -6391345.05422
  24015433.1834    4154417.52846   3237202.40761
  21846279.6834    2712853.81146   2113904.84561
 91  5  3 21 31 59.9990000  0  4G 2G 6G11G19
  20589868.9094   -5579539.90648  -4175916.36863
  21577486.2144   -8239385.88147  -6420292.43762
  24021445.784     4186005.597 5   3261816.43721
  21849922.8394    2732007.66746   2128829.85861
 91  5  3 21 32 14.9990000  0  4G 2G 6G11G19
  20586485.0114   -5597320.61948  -4189771.45763
  21570421.5974   -8276506.11447  -6449217.26362
  24027475.3704    4217691.07345   3286506.40461
  21853581.6754    2751229.67946   2143807.98561
 91  5  3 21 32 29.9990000  0  4G 2G 6G11G19
  20583116.4334   -5615026.47248  -4203568.21863
  21563364.511    -8313593.921 7  -6478116.82722
  24033524.894     4249476.821 6   3311274.46421
  21857250.6904    2770523.14046   2158841.78861
 91  5  3 21 32 44.9990000  0  4G 2G 6G11G19
  20579761.433    -5632658.616 8  -4217307.53823
  21556311.394    -8350650.152 7  -6506991.78622
  24039591.7304    4281361.45946   3336119.58761
  21860938.7304    2789886.92746   2173930.39461
 91  5  3 21 32 59.9990000  0  4G 2G 6G11G19
  20576418.8944   -5650219.88948  -4230991.63663
  21549267.0894   -8387677.61547  -6535844.32962
  24045674.6514    4313341.83445   3361039.34361
  21864638.2064    2809318.15046   2189071.55261
 91  5  3 21 33 14.9990000  0  4G 2G 6G11G19
  20573091.3944   -5667705.06848  -4244616.44263
  21542226.519    -8424670.726 7  -6564670.10222
  24051785.761     4345423.041 5   3386037.63221
  21868348.9874    2828822.07746   2204269.35061
 91  5  3 21 33 29.9990000  0  4G 2G 6G11G19
  20569778.2694   -5685115.76348  -4258183.20763
  21535192.1284   -8461630.82947  -6593470.15562
  24057907.253     4377603.161 6   3411112.99421
  21872073.6754    2848397.47146   2219522.84061
 91  5  3 21 33 44.9990000  0  4G 2G 6G11G19
  20566478.2064   -5702458.49948  -4271697.01963
  21528166.175    -8498564.168 7  -6622249.35422
  24064045.651     4409875.432 5   3436260.17421
  21875809.6674    2868037.81546   2234826.93261
 91  5  3 21 33 59.9990000  0  4G 2G 6G11G19
  20563190.9954   -5719733.30148  -4285157.89363
  21521142.081    -8535470.672 7  -6651007.64722
  24070205.831     4442239.477 5   3461478.88021
  21879561.9334    2887743.02446   2250181.57761
 91  5  3 21 34 14.9990000  0  4G 2G 6G11G19
  20559918.6674   -5736935.22048  -4298561.97563
  21514124.659    -8572345.078 7  -6679740.92722
  24076385.011     4474700.066 6   3486772.79621
  21883323.1124    2907518.22246   2265590.75761
 91  5  3 21 34 29.9990000  0  4G 2G 6G11G19
  20556658.9174   -5754061.62948  -4311907.22363
  21507113.401    -8609184.672 7  -6708447.07922
  24082581.4954    4507259.47245   3512143.72161
  21887100.7534    2927366.13446   2281056.60061
 91  5  3 21 34 44.9990000  0  4G 2G 6G11G19
  20553412.0584   -5771123.24148  -4325201.97363
  21500108.0814   -8645999.96647  -6737134.29462
  24088790.4094    4539906.52145   3537582.96161
  21890888.8234    2947275.95246   2296570.67861
 91  5  3 21 34 59.9990000  0  4G 2G 6G11G19
  20550178.3394   -5788115.61848  -4338442.77963
  21493109.011    -8682786.223 7  -6765798.88622
  24095021.4954    4572645.64246   3563093.87861
  21894691.0654    2967252.27346   2312136.58661
 91  5  3 21 35 14.9990000  0  4G 2G 6G11G19
  20546958.2374   -5805035.52448  -4351627.11463
  21486115.362    -8719539.999 7  -6794438.17022
  24101268.1444    4605479.76345   3588678.91761
  21898504.128     2987298.338 6   2327756.82321
 91  5  3 21 35 29.9990000  0  4G 2G 6G11G19
  20543751.6204   -5821883.86448  -4364755.68263
  21479127.0894   -8756261.87847  -6823052.59162
  24107534.3084    4638407.75646   3614337.02561
  21902331.2764    3007413.40146   2343430.83761
 91  5  3 21 35 44.9990000  0  4G 2G 6G11G19
  20540559.1054   -5838662.94748  -4377830.28563
  21472145.230    -8792954.056 7  -6851643.87522
  24113819.8784    4671426.79845   3640066.10161
  21906173.9014    3027595.09346   2359156.77061
 91  5  3 21 35 59.9990000  0  4G 2G 6G11G19
  20537379.4724   -5855370.00848  -4390848.76563
  21465169.0734   -8829613.61247  -6880209.73362
  24120120.136     4704539.377 5   3665868.07421
  21910031.3084    3047846.20946   2374936.79161
 91  5  3 21 36 14.9990000  0  4G 2G 6G11G19
  20534215.0344   -5872001.88048  -4403808.65763
  21458199.237    -8866237.160 7  -6908747.53822
  24126441.300     4737748.393 6   3691745.18621
  21913895.534     3068170.065 6   2390773.49121
 91  5  3 21 36 29.9990000  0  4G 2G 6G11G19
  20531064.7304   -5888558.53048  -4416709.93563
  21451237.3554   -8902824.43947  -6937257.07862
  24132776.925     4771053.694 5   3717697.32321
  21917776.8554    3088566.77946   2406666.97561
 91  5  3 21 36 44.9990000  0  4G 2G 6G11G19
  20527928.0814   -5905038.96348  -4429551.82263
  21444282.503    -8939374.066 7  -6965737.28422
  24139133.917     4804456.152 5   3743725.18121
  21921672.3154    3109037.52146   2422618.13761
 91  5  3 21 36 59.9990000  0  4G 2G 6G11G19
  20524806.4644   -5921448.78948  -4442338.69463
  21437333.0584   -8975891.21147  -6994192.17362
  24145506.9804    4837949.99746   3769824.22361
  21925580.3704    3129576.93746   2438622.80961
 91  5  3 21 37 14.9990000  0  4G 2G 6G11G19
  20521695.8704   -5937792.45848  -4455074.01263
  21430389.6834   -9012380.43047  -7022625.30362
  24151897.706     4871530.256 5   3795990.62521
  21929501.6444    3150180.37446   2454677.37161
 91  5  3 21 37 29.9990000  0  4G 2G 6G11G19
  20518599.2924   -5954063.36348  -4467752.63263
  21423452.230    -9048834.906 7  -7051031.36022
  24158304.6904    4905203.14945   3822229.19761
  21933437.4644    3170854.43846   2470786.97061
 91  5  3 21 37 44.9990000  0  4G 2G 6G11G19
  20515515.9874   -5970267.10048  -4480378.91663
  21416518.9094   -9085259.92747  -7079414.46562
  24164730.612     4938962.881 5   3848535.43821
  21937381.7064    3191593.66446   2486947.33561
 91  5  3 21 37 59.9990000  0  4G 2G 6G11G19
  20512444.3624   -5986404.83548  -4492953.76863
  21409594.737    -9121656.370 7  -7107775.30422
  24171170.4724    4972808.01245   3874908.22361
  21941339.7064    3212396.97946   2503157.64061
 91  5  3 21 38 14.9990000  0  4G 2G 6G11G19
  20509387.6594   -6002470.82948  -4505472.71963
  21402673.9484   -9158018.47347  -7136109.38162
  24177628.136     5006743.961 5   3901351.77121
  21945313.5424    3233270.04546   2519422.30261
 91  5  3 21 38 29.9990000  0  4G 2G 6G11G19
  20506343.8944   -6018468.51648  -4517938.44663
  21395760.620    -9194349.355 7  -7164419.13422
  24184100.558     5040766.950 5   3927863.13721
  21949295.2534    3254209.52246   2535738.71161
 91  5  3 21 38 44.9990000  0  4G 2G 6G11G19
  20503312.0584   -6034396.62848  -4530349.95663
  21388854.8704   -9230647.45247  -7192703.34162
  24190594.5894    5074878.03045   3954443.16861
  21953294.440     3275217.067 6   2552108.15921
 91  5  3 21 38 59.9990000  0  4G 2G 6G11G19
  20500294.4644   -6050256.90848  -4542708.61363
  21381951.628    -9266914.173 7  -7220963.09822
  24197102.292     5109075.305 5   3981090.33321
  21957306.9644    3296291.05146   2568529.37961
 91  5  3 21 39 14.9990000  0  4G 2G 6G11G19
  20497289.8474   -6066051.08348  -4555015.75963
  21375055.9724   -9303151.17847  -7249199.69362
  24203623.8864    5143356.60645   4007803.01461
  21961326.5114    3317429.49246   2585000.82261
 91  5  3 21 39 29.9990000  0  4G 2G 6G11G19
  20494294.7844   -6081782.76748  -4567274.21163
  21368167.0734   -9339361.88047  -7277415.79762
  24210165.9564    5177718.07645   4034578.12061
  21965360.511     3338628.750 6   2601519.65421
 91  5  3 21 39 44.9990000  0  4G 2G 6G11G19
  20491314.2374   -6097444.13348  -4579477.86963
  21361282.9334   -9375538.14847  -7305605.06862
  24216720.815     5212167.264 5   4061421.62321
  21969410.526     3359896.857 6   2618092.13121
 91  5  3 21 39 59.9990000  0  4G 2G 6G11G19
  20488347.7454   -6113038.15548  -4591629.05463
  21354403.8944   -9411682.72147  -7333769.64362
  24223289.6594    5246700.91245   4088330.90461
  21973467.7374    3381230.93046   2634716.02661
 91  5  3 21 40 14.9990000  0  4G 2G 6G11G19
  20485391.6124   -6128571.15248  -4603732.68163
  21347531.6514   -9447801.57047  -7361914.17162
  24229878.667     5281312.417 5   4115300.88521
  21977540.9724    3402624.70746   2651386.43061
 91  5  3 21 40 29.9990000  0  4G 2G 6G11G19
  20482448.8004   -6144036.90048  -4615783.91463
  21340663.5034   -9483888.29147  -7390033.66462
  24236476.987     5316007.786 5   4142336.17521
  21981623.0114    3424084.51946   2668108.29161
 91  5  3 21 40 44.9990000  0  4G 2G 6G11G19
  20479518.8864   -6159433.40448  -4627781.18963
  21333802.8394   -9519940.69547  -7418126.42062
  24243095.9954    5350788.67745   4169438.15261
  21985718.956     3445612.384 6   2684883.17721
 91  5  3 21 40 59.9990000  0  3G 2G 6G19
  20476602.3624   -6174760.06548  -4639724.04063
  21326949.269    -9555957.958 7  -7446191.78622
  21989830.5034    3467209.07846   2701711.70261
 91  5  3 21 41 14.9990000  0  3G 2G 6G19
  20473699.8554   -6190016.56148  -4651612.22063
  21320101.8624   -9591939.54747  -7474229.36662
  21993953.7614    3488874.85746   2718594.05361
 91  5  3 21 41 29.9990000  0  3G 2G 6G19
  20470807.3154   -6205207.73748  -4663449.49563
  21313261.3624   -9627890.06647  -7502242.73062
  21998087.542     3510604.866 6   2735526.45821
 91  5  3 21 41 44.9990000  0  3G 2G 6G19
  20467929.4954   -6220337.02448  -4675238.54763
  21306424.565    -9663812.715 7  -7530234.37722
  22002236.5264    3532395.75846   2752506.30461
 91  5  3 21 41 59.9990000  0  3G 2G 6G19
  20465062.3154   -6235400.90348  -4686976.63163
  21299595.1674   -9699703.74847  -7558201.38962
  22006391.815     3554250.914 6   2769536.22621
 91  5  3 21 42 14.9990000  0  3G 2G 6G19
  20462208.6124   -6250399.75148  -4698664.04263
  21292769.8704   -9735563.30747  -7586143.86962
  22010565.5264    3576170.28746   2786616.18461
 91  5  3 21 42 29.9990000  0  3G 2G 6G19
  20459366.3314   -6265332.15348  -4710299.67663
  21285954.151    -9771389.763 7  -7614060.56422
  22014748.0264    3598155.41446   2803747.38061
 91  5  3 21 42 44.9990000  0  3G 2G 6G19
  20456538.2064   -6280198.55748  -4721883.88263
  21279141.9874   -9807183.23647  -7641951.54862
  22018943.9404    3620205.77446   2820929.41261
 91  5  3 21 42 59.9990000  0  3G 2G 6G19
  20453721.5194   -6295000.61148  -4733417.94663
  21272337.722    -9842945.018 7  -7669817.84422
  22023154.331     3642319.819 6   2838161.05821
 91  5  3 21 43 14.9990000  0  3G 2G 6G19
  20450917.2454   -6309734.52748  -4744898.91563
  21265540.4874   -9878671.19447  -7697656.38962
  22027374.823     3664501.321 6   2855445.27221
 91  5  3 21 43 29.9990000  0  3G 2G 6G19
  20448124.4804   -6324411.76248  -4756335.71763
  21258744.8154   -9914373.01247  -7725475.96162
  22031606.9334    3686738.93646   2872773.21561
 91  5  3 21 43 44.9990000  0  3G 2G 6G19
  20445342.7304   -6339025.43848  -4767722.99163
  21251957.4874   -9950043.54647  -7753271.15362
  22035850.487     3709039.447 6   2890150.16021
 91  5  3 21 43 59.9990000  0  3G 2G 6G19
  20442574.6984   -6353569.07648  -4779055.69063
  21245176.7614   -9985675.92647  -7781036.61562
  22040105.300     3731409.596 6   2907581.37221
 91  5  3 21 44 14.9990000  0  3G 2G 6G19
  20439819.7064   -6368050.64648  -4790340.02163
  21238402.6444  -10021277.67747  -7808778.20762
  22044374.940     3753841.646 6   2925060.81821
 91  5  3 21 44 29.9990000  0  3G 2G 6G19
  20437077.2924   -6382468.44948  -4801574.66763
  21231632.4094  -10056847.02347  -7836494.55162
  22048655.0114    3776337.07046   2942589.64762
 91  5  3 21 44 44.9990000  0  3G 2G 6G19
  20434344.5654   -6396822.83148  -4812759.88963
  21224870.1594  -10092384.12647  -7864185.77362
  22052951.081     3798895.454 6   2960167.53322
 91  5  3 21 44 59.9990000  0  3G 2G 6G19
  20431624.2844   -6411121.36148  -4823901.59263
  21218113.0654  -10127896.17647  -7891857.47062
  22057250.4724    3821509.63746   2977788.90961
 91  5  3 21 45 14.9990000  0  3G 2G 6G19
  20428915.519    -6425357.021 8  -4834994.30323
  21211361.0194  -10163375.81047  -7919503.91062
  22061566.870     3844186.634 6   2995459.22322
 91  5  3 21 45 29.9990000  0  3G 2G 6G19
  20426219.5194   -6439527.48848  -4846036.21563
  21204615.0034  -10198820.54647  -7947123.16062
  22065895.534     3866928.743 6   3013180.27422
 91  5  3 21 45 44.9990000  0  3G 2G 6G19
  20423534.3004   -6453637.10548  -4857030.71163
  21197876.2454  -10234234.60747  -7974718.50362
  22070237.175     3889731.694 6   3030948.73022
 91  5  3 21 45 59.9990000  0  3G 2G 6G19
  20420861.2064   -6467680.95348  -4867973.96263
  21191145.5584  -10269612.75747  -8002285.86062
  22074589.487     3912600.298 6   3048768.33921
 91  5  3 21 46 14.9990000  0  3G 2G 6G19
  20418201.1594   -6481660.39048  -4878867.01663
  21184419.034   -10304956.002 7  -8029826.02622
  22078948.948     3935533.463 6   3066638.26321
 91  5  3 21 46 29.9990000  0  3G 2G 6G19
  20415552.7224   -6495573.17148  -4889708.13363
  21177701.3314  -10340261.98547  -8057337.14762
  22083328.097     3958533.458 6   3084560.25721
 91  5  3 21 46 44.9990000  0  3G 2G 6G19
  20412917.5114   -6509424.58148  -4900501.43363
  21170987.8394  -10375535.71347  -8084823.13762
  22087714.737     3981594.887 6   3102530.12221
 91  5  3 21 46 59.9990000  0  3G 2G 6G19
  20410293.3394   -6523212.96148  -4911245.61563
  21164282.2694  -10410775.37547  -8112282.58362
  22092116.222     4004719.474 6   3120549.20321
 91  5  3 21 47 14.9990000  0  3G 2G 6G19
  20407680.8154   -6536943.74148  -4921944.91763
  21157581.3234  -10445986.08547  -8139719.46962
  22096527.581     4027901.903 6   3138613.35521
 91  5  3 21 47 29.9990000  0  3G 2G 6G19
  20405080.9014   -6550608.78348  -4932592.99363
  21150887.4094  -10481159.35447  -8167127.18062
  22100955.878     4051150.488 6   3156729.05421
 91  5  3 21 47 44.9990000  0  3G 2G 6G19
  20402492.6364   -6564209.23348  -4943190.74063
  21144202.1594  -10516296.17547  -8194506.48962
  22105388.823     4074463.968 6   3174895.32821
 91  5  3 21 47 59.9990000  0  3G 2G 6G19
  20399915.4334   -6577751.77448  -4953743.36563
  21137522.5194  -10551402.98947  -8221862.42262
  22109836.362     4097835.659 6   3193106.94822
 91  5  3 21 48 14.9990000  0  3G 2G 6G19
  20397350.6514   -6591226.63948  -4964243.25163
  21130848.9174  -10586469.61447  -8249187.03162
  22114296.956     4121275.509 6   3211371.68121
 91  5  3 21 48 29.9990000  0  3G 2G 6G19
  20394799.1444   -6604640.20648  -4974695.37563
  21124181.3004  -10621502.34947  -8276485.23262
  22118769.050     4144777.030 6   3229684.47921
 91  5  3 21 48 44.9990000  0  3G 2G 6G19
  20392256.8864   -6617994.60548  -4985101.39463
  21117522.6984  -10656502.94647  -8303758.39362
  22123252.089     4168338.256 6   3248043.79621
 91  5  3 21 48 59.9990000  0  3G 2G 6G19
  20389728.4724   -6631285.90748  -4995458.24763
  21110868.7924  -10691467.22547  -8331003.25262
  22127749.956     4191963.233 6   3266452.79121
 91  5  3 21 49 14.9990000  0  3G 2G 6G19
  20387211.0584   -6644514.06648  -5005765.89963
  21104222.4644  -10726394.94347  -8358219.62162
  22132258.667     4215651.991 6   3284911.48021
 91  5  3 21 49 29.9990000  0  3G 2G 6G19
  20384705.8394   -6657680.76648  -5016025.65863
  21097582.2454  -10761287.47347  -8385408.57762
  22136774.503     4239402.934 6   3303418.62821
 91  5  3 21 49 44.9990000  0  3G 2G 6G19
  20382212.7844   -6670780.82148  -5026233.49063
  21090950.0344  -10796139.35747  -8412565.85662
  22141309.136     4263221.415 6   3321978.39721
 91  5  3 21 49 59.9990000  0  3G 2G 6G19
  20379731.6514   -6683819.55848  -5036393.54063
  21084323.6754  -10830955.81547  -8439695.53162
  22145852.995     4287101.776 6   3340586.39321
 91  5  3 21 50 14.9990000  0  3G 2G 6G19
  20377262.5894   -6696796.84148  -5046505.70363
  21077706.1834  -10865736.39947  -8466797.25662
  22150410.331     4311044.396 6   3359242.89521
 91  5  3 21 50 29.9990000  0  3G 2G 6G19
  20374804.0734   -6709715.11548  -5056571.88663
  21071094.0974  -10900483.14847  -8493872.61662
  22154973.894     4335046.891 6   3377946.05321
 91  5  3 21 50 44.9990000  0  3G 2G 6G19
  20372355.4254   -6722578.89348  -5066595.60363
  21064487.9334  -10935200.43547  -8520925.01862
  22159554.222     4359104.921 6   3396692.48921
 91  5  3 21 50 59.9990000  0  3G 2G 6G19
  20369919.9564   -6735375.57648  -5076567.04163
  21057889.0264  -10969875.23747  -8547944.30962
  22164144.964     4383231.136 6   3415492.05221
 91  5  3 21 51 14.9990000  0  3G 2G 6G19
  20367497.6754   -6748109.59548  -5086489.65263
  21051298.6904  -11004511.72447  -8574933.75462
  22168748.339     4407421.210 6   3434341.37721
 91  5  3 21 51 29.9990000  0  3G 2G 6G19
  20365085.4254   -6760785.08248  -5096366.65163
  21044713.6594  -11039113.90147  -8601896.45862
  22173365.284     4431670.939 6   3453237.18921
 91  5  3 21 51 44.9990000  0  3G 2G 6G19
  20362685.6124   -6773396.83248  -5106193.98963
  21038137.6204  -11073676.39247  -8628828.24262
  22177992.6984    4455985.40746   3472183.43961
 91  5  3 21 51 59.9990000  0  3G 2G 6G19
  20360297.1054   -6785945.59648  -5115972.24463
  21031567.183   -11108199.543 7  -8655729.37122
  22182629.9014    4480364.05946   3491179.70361
 91  5  3 21 52 14.9980000  0  3G 2G 6G19
  20357921.5454   -6798434.90348  -5125704.16963
  21025003.7324  -11142685.23447  -8682601.31162
  22187278.068     4504800.904 6   3510221.32321
 91  5  3 21 52 29.9980000  0  3G 2G 6G19
  20355555.0924   -6810867.63948  -5135392.01263
  21018448.779   -11177139.056 7  -8709448.42122
  22191942.506     4529297.999 6   3529309.88521
 91  5  3 21 52 44.9980000  0  3G 2G 6G19
  20353200.6624   -6823235.77948  -5145029.52163
  21011898.982   -11211551.275 7  -8736263.11022
  22196618.779     4553860.838 6   3548449.67521
 91  5  3 21 52 59.9980000  0  3G 2G 6G19
  20350859.1004   -6835544.83348  -5154620.98863
  21005357.0064  -11245927.11847  -8763049.45462
  22201299.607     4578483.886 6   3567636.38421
 91  5  3 21 53 14.9980000  0  3G 2G 6G19
  20348529.5684   -6847786.54648  -5164159.98363
  20998823.787   -11280257.944 7  -8789800.72122
  22205999.920     4603175.789 6   3586876.74721
 91  5  3 21 53 29.9980000  0  3G 2G 6G19
  20346211.1074   -6859969.28448  -5173653.02063
  20992299.5224  -11314551.94447  -8816523.29562
  22210711.709     4627928.075 6   3606164.15721
 91  5  3 21 53 44.9980000  0  3G 2G 6G19
  20343903.6394   -6872097.95648  -5183103.92863
  20985778.115   -11348813.676 7  -8843220.72322
  22215433.311     4652735.810 6   3625494.77921
 91  5  3 21 53 59.9980000  0  4G 2G 6G13G19
  20341607.5144   -6884165.31448  -5192507.05963
  20979266.592   -11383035.735 7  -8869887.23822
  23686327.1314         -0.02053
  22220163.7254    4677606.22746   3644874.23661
 91  5  3 21 54 14.9980000  0  4G 2G 6G13G19
  20339322.6704   -6896168.65848  -5201860.30663
  20972762.8114  -11417215.05747  -8896520.44762
  23673003.9754     -70042.78044
  22224911.7874    4702542.24546   3664304.80761
 91  5  3 21 54 29.9980000  0  4G 2G 6G13G19
  20337051.4204   -6908103.91848  -5211160.50263
  20966266.553   -11451347.283 7  -8923116.96322
  23659679.6314    -140053.25244
  22229670.0064    4727547.98046   3683789.70461
 91  5  3 21 54 44.9980000  0  4G 2G 6G13G19
  20334791.2644   -6919983.51448  -5220417.32663
  20959779.834   -11485444.642 7  -8949686.30622
  23646359.1544    -210043.71744
  22234437.8974    4752610.70446   3703319.01761
 91  5  3 21 54 59.9980000  0  5G 2G 6G13G15G19
  20332541.6704   -6931801.26148  -5229625.94963
  20953297.201   -11519500.659 7  -8976223.43722
  23633045.4754    -280007.60144
  23837011.9364         -0.83755
  22239220.4594    4777736.88346   3722897.75961
 91  5  3 21 55 14.9980000  0  5G 2G 6G13G15G19
  20330305.5294   -6943551.74248  -5238782.16863
  20946827.100   -11553509.751 7  -9002724.00322
  23619738.584     -349939.076 4
  23830439.3114     -34560.40745
  22244013.1474    4802931.98846   3742530.21861
 91  5  3 21 55 29.9980000  0  5G 2G 6G13G15G19
  20328081.3424   -6955246.76448  -5247895.16363
  20940360.9044  -11587483.34747  -9029196.90762
  23606431.3504    -419849.43744
  23823878.1394     -69035.75445
  22248820.0684    4828184.31346   3762207.26661
 91  5  3 21 55 44.9980000  0  5G 2G 6G13G15G19
  20325866.0374   -6966881.97548  -5256961.55163
  20933904.5144  -11621416.90547  -9055638.61462
  23593138.779     -489733.712 4        -0.12731
  23817337.2954    -103422.33045
  22253634.5374    4853498.16346   3781932.25361
 91  5  3 21 55 59.9980000  0  5G 2G 6G13G15G19
  20323664.4434   -6978454.65548  -5265979.21463
  20927454.623   -11655307.308 7  -9082046.69722
  23579841.193     -559588.801 4    -54432.41921
  23810805.0144    -137716.83845
  22258461.9514    4878876.29546   3801707.32861
 91  5  3 21 56 14.9980000  0  5G 2G 6G13G15G19
  20321472.4904   -6989971.67648  -5274953.51363
  20921013.404   -11689161.272 7  -9108426.38222
  23566557.0454    -629421.14445   -108847.01261
  23804299.904     -171925.877 5        -0.38131
  22263306.0454    4904311.84446   3821527.14261
 91  5  3 21 56 29.9980000  0  5G 2G 6G13G15G19
  20319291.1004   -7001434.56948  -5283885.63063
  20914576.639   -11722979.989 7  -9134778.60322
  23553267.6234    -699231.77444   -163244.65761
  23797800.779     -206050.452 5    -26590.89121
  22268158.2644    4929803.40646   3841390.60261
 91  5  3 21 56 44.9980000  0  5G 2G 6G13G15G19
  20317121.0614   -7012838.05948  -5292771.46263
  20908149.3034  -11756757.90147  -9161099.02862
  23539988.389     -769015.040 4   -217621.00921
  23791331.553     -240084.861 5    -53111.09221
  22273020.0924    4955356.29546   3861301.84861
 91  5  3 21 56 59.9980000  0  5G 2G 6G13G15G19
  20314962.3814   -7024185.19348  -5301613.37863
  20901727.568   -11790497.804 7  -9187389.83522
  23526708.8504    -838773.65944   -271978.12861
  23784871.717     -274031.854 5    -79563.17921
  22277893.725     4980967.527 6   3881258.55821
 91  5  3 21 57 14.9980000  0  5G 2G 6G13G15G19
  20312812.9984   -7035476.16348  -5310411.52863
  20895316.6004  -11824199.54747  -9213650.90762
  23513441.6784    -908507.24844   -326315.77461
  23778428.5764    -307891.32645   -105947.08761
  22282779.5764    5006636.76746   3901260.46861
 91  5  3 21 57 29.9980000  0  5G 2G 6G13G15G19
  20310676.6154   -7046706.26448  -5319162.24963
  20888909.725   -11857858.249 7
  23500179.412     -978210.648 4   -380629.85721
  23772003.545     -341658.280 5
  22287676.264     5032368.781 6   3921311.28921
 91  5  3 21 57 44.9980000  0  5G 2G 6G13G15G19
  20308549.7014   -7057877.59848  -5327867.17763
  20882513.139   -11891475.707 7
  23486921.6544   -1047885.71844   -434921.86661
  23765595.779     -375334.032 5
  22292584.7564    5058161.53946   3941409.44361
 91  5  3 21 57 59.9980000  0  5G 2G 6G13G15G19
  20306435.4594   -7068990.40348  -5336526.50063
  20876123.7484  -11925051.89547
  23473663.834    -1117531.889 4   -489191.36221
  23759204.225     -408918.727 5
  22297501.0614    5084014.73746   3961554.69461
 91  5  3 21 58 14.9980000  0  5G 2G 6G13G15G19
  20304331.5844   -7080046.04748  -5345141.27963
  20869742.436   -11958587.954 7
  23460420.3734   -1187150.09944   -543439.09361
  23752825.897     -442413.218 5
  22302432.295     5109927.169 6   3981746.09821
 91  5  3 21 58 29.9980000  0  5G 2G 6G13G15G19
  20302238.9754   -7091046.58148  -5353713.11563
  20863367.693   -11992085.614 7  -9344471.08922
  23447174.217    -1256741.998 4   -597666.30521
  23746472.6624    -475819.16945   -236799.46161
  22307373.2874    5135896.74446   4001982.02961
 91  5  3 21 58 44.9980000  0  5G 2G 6G13G15G19
  20300156.8574   -7101989.58548  -5362240.12763
  20857000.928   -12025542.304 7  -9370541.21322
  23433942.037    -1326304.804 4   -651870.84321
  23740132.3814    -509133.76345   -262758.74561
  22312327.131     5161925.889 6   4022264.37721
 91  5  3 21 58 59.9980000  0  5G 2G 6G13G15G19
  20298084.7324   -7112877.12448  -5370723.91763
  20850641.482   -12058959.637 7  -9396580.67122
  23420706.4594   -1395840.01544   -706053.89361
  23733810.084     -542358.572 5   -288648.11121
  22317292.357     5188012.705 6   4042591.66721
 91  5  3 21 59 14.9980000  0  5G 2G 6G13G15G19
  20296024.6234   -7123702.56148  -5379159.31663
  20844291.6314  -12092330.60647  -9422583.99662
  23407477.717    -1465340.350 4   -760209.71621
  23727504.6934    -575486.62045   -314462.09061
  22322268.951     5214163.952 6   4062969.16021
 91  5  3 21 59 29.9980000  0  5G 2G 6G13G15G19
  20293974.8734   -7134472.44548  -5387551.42663
  20837949.990   -12125661.790 7  -9448556.32622
  23394260.2254   -1534812.26844   -814343.46961
  23721215.5844    -608524.18345   -340205.55661
  22327255.545     5240372.659 6   4083391.43521
 91  5  3 21 59 44.9980000  0  5G 2G 6G13G15G19
  20291935.3344   -7145192.52948  -5395904.73063
  20831612.420   -12158958.439 7  -9474501.74322
  23381047.4824   -1604260.91744   -868459.04961
  23714945.756     -641476.273 5   -365882.39421
  22332255.443     5266633.346 6   4103854.20121
 91  5  3 21 59 59.9980000  0  5G 2G 6G13G15G19
  20289906.3974   -7155850.63848  -5404209.74463
  20825285.779   -12192208.142 7  -9500410.57622
  23367837.529    -1673673.879 4   -922546.78421
  23708691.7644    -674330.55845   -391483.05261
  22337269.240     5292958.255 6   4124367.01221
 91  5  3 22  0 14.9980000  0  5G 2G 6G13G15G19
  20287889.6624   -7166454.00848  -5412472.10463
  20818965.123   -12225417.816 7  -9526288.22022
  23354629.2014   -1743057.53644   -976611.76861
  23702461.5064    -707093.93845   -417012.85961
  22342283.0374    5319340.24146   4144924.30761
 91  5  3 22  0 29.9980000  0  5G 2G 6G13G15G19
  20285881.6784   -7176999.60048  -5420689.44163
  20812655.256   -12258584.414 7  -9552132.29522
  23341433.693    -1812408.726 4  -1030651.35721
  23696240.9204    -739763.17645   -442469.30961
  22347316.287     5345782.026 6   4165528.18821
 91  5  3 22  0 44.9980000  0  5G 2G 6G13G15G19
  20283886.8344   -7187492.08548  -5428865.39963
  20806350.326   -12291712.175 7  -9577946.11422
  23328239.7794   -1881731.67144  -1084669.04961
  23690048.5534    -772342.18345   -467855.44361
  22352358.107     5372279.105 6   4186175.15621
 91  5  3 22  0 59.9980000  0  5G 2G 6G13G15G19
  20281899.2094   -7197930.09548  -5436998.90763
  20800053.904   -12324799.426 7  -9603728.36222
  23315057.7324   -1951024.31245  -1138663.06361
  23683858.3264    -804829.44745   -493170.10161
  22357412.725     5398832.877 6   4206866.30321
 91  5  3 22  1 14.9980000  0  5G 2G 6G13G15G19
  20279924.6474   -7208310.01948  -5445087.15863
  20793766.506   -12357842.388 7  -9629476.10323
  23301875.936    -2020282.935 5  -1192630.56621
  23677696.8814    -837220.92745   -518410.12961
  22362473.2404    5425446.79646   4227604.31261
 91  5  3 22  1 29.9980000  0  5G 2G 6G13G15G19
  20277957.7564   -7218641.97748  -5453138.02563
  20787486.178   -12390850.641 7  -9655196.79722
  23288702.2794   -2089517.07545  -1246579.00061
  23671547.6624    -869526.25045   -543582.99261
  22367550.139     5452111.092 6   4248381.58121
 91  5  3 22  1 44.9980000  0  5G 2G 6G13G15G19
  20276000.6784   -7228925.21248  -5461150.93263
  20781211.443   -12423823.311 7  -9680889.76723
  23275530.6004   -2158725.25145  -1300507.19861
  23665417.8654    -901744.39345   -568687.95961
  22372631.420     5478826.513 6   4269198.67321
 91  5  3 22  1 59.9980000  0  5G 2G 6G13G15G19
  20274054.9594   -7239151.43148  -5469119.40863
  20774944.209   -12456751.824 7  -9706548.32523
  23262366.631    -2227898.824 5  -1354408.46021
  23659307.936     -933866.360 5   -593717.97021
  22377730.865     5505601.388 6   4290062.10821
 91  5  3 22  2 14.9980000  0  5G 2G 6G13G15G19
  20272120.9044   -7249312.74348  -5477037.30963
  20768689.092   -12489627.896 7  -9732166.02323
  23249213.4674   -2297029.45045  -1408276.24761
  23653214.0064    -965884.00145   -618666.69461
  22382838.607     5532443.621 6   4310978.02721
 91  5  3 22  2 29.9980000  0  5G 2G 6G13G15G19
  20270197.7794   -7259420.95548  -5484913.83163
  20762441.506   -12522463.095 7  -9757751.86922
  23236060.686    -2366128.645 5  -1462119.53721
  23647135.295     -997808.754 5   -643543.03321
  22387955.318     5559341.374 6   4331937.20021
 91  5  3 22  2 44.9980000  0  5G 2G 6G13G15G19
  20268284.4824   -7269475.01248  -5492748.15563
  20756199.514   -12555256.123 7  -9783304.85823
  23222922.1154   -2435194.71045  -1515937.01061
  23641079.201    -1029639.350 5   -668346.00621
  22393082.631     5586295.686 6   4352940.44921
 91  5  3 22  2 59.9980000  0  5G 2G 6G13G15G19
  20266383.3264   -7279467.91248  -5500534.82863
  20749969.279   -12587999.644 7  -9808819.27023
  23209786.0924   -2504220.21745  -1569722.87361
  23635041.857    -1061368.421 5   -693069.88321
  22398224.139     5613313.669 6   4373993.31121
 91  5  3 22  3 14.9980000  0  5G 2G 6G13G15G19
  20264491.5764   -7289407.15848  -5508279.68963
  20743745.201   -12620700.980 7  -9834300.80923
  23196656.0614   -2573212.27745  -1623482.66061
  23629020.9824   -1093002.98045   -717720.10061
  22403379.2014    5640387.88846   4395089.98761
 91  5  3 22  3 29.9980000  0  5G 2G 6G13G15G19
  20262610.0224   -7299297.85048  -5515986.71763
  20737529.553   -12653364.768 7  -9859753.08723
  23183535.4514   -2642175.55245  -1677220.06361
  23623023.6154   -1124547.57946   -742300.20461
  22408538.068     5667513.261 6   4416226.53621
 91  5  3 22  3 44.9980000  0  5G 2G 6G13G15G19
  20260736.6934   -7309136.97148  -5523653.56263
  20731322.256   -12685987.873 7  -9885173.66723
  23170416.3734   -2711106.66044  -1730932.39961
  23617037.639    -1155998.953 5   -766807.68521
  22413710.7174    5694692.62246   4437405.13761
 91  5  3 22  3 59.9980000  0  5G 2G 6G13G15G19
  20258874.8654   -7318924.05948  -5531279.85963
  20725123.420   -12718569.547 7  -9910561.96322
  23157303.123    -2780004.469 5  -1784618.76121
  23611066.404    -1187356.048 5   -791241.69521
  22418895.3734    5721926.54145   4458626.26061
 91  5  3 22  4 14.9980000  0  5G 2G 6G13G15G19
  20257022.4204   -7328657.24448  -5538864.15463
  20718930.186   -12751107.603 7  -9935916.27223
  23144199.4824   -2848866.81344  -1838277.50961
  23605119.4364   -1218617.01445   -815600.81361
  22424084.5764    5749216.84046   4479891.31561
 91  5  3 22  4 29.9980000  0  5G 2G 6G13G15G19
  20255181.6394   -7338335.29748  -5546405.49263
  20712746.982   -12783600.652 7  -9961235.50923
  23131101.287    -2917692.063 4  -1891907.35021
  23599188.4434   -1249780.51245   -839883.96261
  22429290.397     5776564.728 6   4501201.23921
 91  5  3 22  4 44.9980000  0  5G 2G 6G13G15G19
  20253349.0924   -7347960.18548  -5553905.39863
  20706572.006   -12816050.180 7  -9986520.83223
  23118012.7484   -2986481.57745  -1945509.31661
  23593277.982    -1280847.647 5   -864092.02621
  22434506.936     5803968.382 6   4522554.62221
 91  5  3 22  4 59.9980000  0  5G 2G 6G13G15G19
  20251527.7644   -7357529.77248  -5561362.21663
  20700406.084   -12848453.743 7 -10011770.34223
  23104929.3734   -3055232.71045  -1999081.37861
  23587387.5374   -1311815.67746   -888222.85961
  22439734.967     5831429.934 6   4543953.11521
 91  5  3 22  5 14.9980000  0  5G 2G 6G13G15G19
  20249715.8894   -7367054.23248  -5568783.87163
  20694246.498   -12880821.393 7 -10036991.86623
  23091849.889    -3123955.439 5  -2052631.35221
  23581507.490    -1342694.750 5   -912284.38821
  22444967.3344    5858939.17246   4565388.76461
 91  5  3 22  5 29.9980000  0  5G 2G 6G13G15G19
  20247915.4364   -7376520.57848  -5576160.24163
  20688095.662   -12913139.819 7 -10062175.03323
  23078781.3814   -3192636.24045  -2106148.62461
  23575648.8424   -1373471.55045   -936266.20561
  22450210.4824    5886509.16146   4586871.75561
 91  5  3 22  5 44.9980000  0  5G 2G 6G13G15G19
  20246123.4434   -7385932.87148  -5583494.49563
  20681955.061   -12945412.759 7 -10087322.75723
  23065720.3654   -3261278.68145  -2159636.02361
  23569805.475    -1404149.672 5   -960171.13421
  22455471.3114    5914135.84746   4608398.93461
 91  5  3 22  5 59.9980000  0  5G 2G 6G13G15G19
  20244342.8344   -7395294.06448  -5590788.92663
  20675822.076   -12977642.936 7 -10112437.15523
  23052665.998    -3329885.367 5  -2213095.56421
  23563998.1004   -1434731.60745   -984001.10761
  22460737.7174    5941816.13046   4629967.86961
 91  5  3 22  6 14.9980000  0  5G 2G 6G13G15G19
  20242570.7174   -7404603.55048  -5598043.07063
  20669697.107   -13009829.418 7 -10137517.50923
  23039615.537    -3398454.834 5  -2266526.08121
  23558195.8344   -1465216.54345  -1007755.52961
  22466015.506     5969550.802 6   4651579.19321
 91  5  3 22  6 29.9980000  0  5G 2G 6G13G15G19
  20240808.9204   -7413860.19748  -5605256.04363
  20663581.412   -13041970.744 7 -10162562.67522
  23026573.279    -3466985.749 5  -2319926.59921
  23552405.272    -1495602.963 5  -1031433.16121
  22471305.1864    5997340.91446   4673233.70261
 91  5  3 22  6 44.9980000  0  5G 2G 6G13G15G19
  20239057.1864   -7423062.11648  -5612426.36663
  20657473.389   -13074064.748 7 -10187570.96723
  23013539.982    -3535475.768 5  -2373295.23121
  23546650.7794   -1525888.58646  -1055032.25761
  22476602.2954    6025188.66546   4694933.13361
 91  5  3 22  6 59.9980000  0  5G 2G 6G13G15G19
  20237316.2794   -7432213.52548  -5619557.33463
  20651374.834   -13106115.483 7 -10212545.53722
  23000517.318    -3603928.722 5  -2426634.94921
  23540902.1624   -1556077.05745  -1078555.63761
  22481914.4904    6053089.57246   4716673.98461
 91  5  3 22  7 14.9980000  0  5G 2G 6G13G15G19
  20235585.5374   -7441311.97548  -5626647.03163
  20645283.834   -13138120.014 7 -10237484.11223
  22987495.357    -3672341.598 5  -2479943.48721
  23535171.1784   -1586165.66045  -1102001.21061
  22487234.6394    6081045.97746   4738458.08261
 91  5  3 22  7 29.9980000  0  5G 2G 6G13G15G19
  20233864.2094   -7450357.23248  -5633695.28663
  20639202.115   -13170077.973 7 -10262386.39422
  22974487.553    -3740713.992 5  -2533220.46921
  23529471.326    -1616154.061 5  -1125368.70821
  22492566.0454    6109058.03345   4760285.53561
 91  5  3 22  7 44.9980000  0  5G 2G 6G13G15G19
  20232153.9674   -7459348.36148  -5640701.35963
  20633129.709   -13201988.047 7 -10287251.36222
  22961481.7644   -3809044.51745  -2586464.80361
  23523779.4594   -1646040.79145  -1148656.95761
  22497901.920     6137126.847 5   4782157.21921
 91  5  3 22  7 59.9980000  0  5G 2G 6G13G15G19
  20230451.7954   -7468287.89248  -5647667.22863
  20627065.943   -13233852.602 7 -10312080.86322
  22948486.0764   -3877335.08245  -2639678.05361
  23518113.342    -1675828.012 5  -1171867.69821
  22503263.2564    6165249.78745   4804071.08761
 91  5  3 22  8 14.9980000  0  5G 2G 6G13G15G19
  20228762.6074   -7477167.42748  -5654586.34663
  20621014.006   -13265662.794 7 -10336868.00222
  22935497.740    -3945576.637 5  -2692853.10221
  23512467.7564   -1705507.00545  -1194994.08961
  22508622.193     6193435.447 5   4826033.82521
 91  5  3 22  8 29.9980000  0  5G 2G 6G13G15G19
  20227081.8814   -7485995.83048  -5661465.62263
  20614969.412   -13297427.265 7 -10361619.51522
  22922523.693    -4013777.736 5  -2745996.59021
  23506837.8344   -1735086.17245  -1218042.70861
  22513992.459     6221674.973 5   4848038.53821
 91  5  3 22  8 44.9980000  0  5G 2G 6G13G15G19
  20225412.0374   -7494771.51648  -5668303.81863
  20608935.045   -13329144.180 7 -10386333.96822
  22909549.857    -4081936.585 5  -2799107.17321
  23501224.881    -1764563.542 5  -1241011.99121
  22519376.397     6249969.879 5   4870086.40121
 91  5  3 22  8 59.9980000  0  5G 2G 6G13G15G19
  20223752.6394   -7503490.64248  -5675097.94363
  20602908.318   -13360809.490 7 -10411008.21222
  22896590.3654   -4150048.81745  -2852181.45761
  23495640.428    -1793935.087 5  -1263898.79921
  22524777.0454    6278323.98245   4892180.39161
 91  5  3 22  9 14.9980000  0  5G 2G 6G13G15G19
  20222104.2174   -7512155.67548  -5681849.91963
  20596891.857   -13392425.272 7 -10435643.86122
  22883637.2324   -4218116.27245  -2905220.86461
  23490068.2484   -1823202.67545  -1286704.61161
  22530182.2254    6306734.85245   4914318.61361
 91  5  3 22  9 29.9980000  0  5G 2G 6G13G15G19
  20220465.5294   -7520769.53548  -5688562.01963
  20590883.897   -13423993.980 7 -10460242.83122
  22870693.881    -4286141.343 5  -2958227.18721
  23484519.170    -1852369.031 5  -1309431.55721
  22535599.0224    6335199.82345   4936498.99361
 91  5  3 22  9 44.9980000  0  5G 2G 6G13G15G19
  20218835.4364   -7529331.69848  -5695233.83863
  20584886.545   -13455514.887 7 -10484804.55223
  22857756.826    -4354123.223 5  -3011199.88721
  23478986.5224   -1881433.18645  -1332078.85061
  22541023.311     6363719.262 5   4958721.82121
 91  5  3 22  9 59.9980000  0  5G 2G 6G13G15G19
  20217215.9204   -7537842.23648  -5701865.42963
  20578897.115   -13486987.802 7 -10509328.88222
  22844828.076    -4422061.519 5  -3064138.62321
  23473478.850    -1910394.865 5  -1354646.29721
  22546465.1934    6392293.01945   4980986.96561
 91  5  3 22 10 14.9980000  0  5G 2G 6G13G15G19
  20215607.5374   -7546297.96348  -5708454.31163
  20572916.772   -13518409.369 7 -10533813.19222
  22831906.811    -4489952.528 5  -3117040.49521
  23467983.295    -1939250.667 5  -1377131.24721
  22551909.0144    6420924.26345   5003296.90861
 91  5  3 22 10 29.9980000  0  5G 2G 6G13G15G19
  20214009.0374   -7554697.07548  -5714999.07563
  20566948.795   -13549777.397 7 -10558255.79022
  22818996.490    -4557794.171 5  -3169903.91121
  23462514.459    -1967998.394 5  -1399531.97921
  22557372.8654    6449614.81045   5025653.05161
 91  5  3 22 10 44.9980000  0  5G 2G 6G13G15G19
  20212421.4594   -7563040.18648  -5721500.20263
  20560989.248   -13581092.330 7 -10582657.01222
  22806097.3114   -4625586.50845  -3222728.94261
  23457066.3974   -1996638.39345  -1421848.75261
  22562843.0454    6478363.97245   5048054.88161
 91  5  3 22 10 59.9980000  0  5G 2G 6G13G15G19
  20210844.3654   -7571325.03848  -5727955.93363
  20555041.865   -13612351.596 7 -10607014.85922
  22793208.2404   -4693326.71545  -3275513.31661
  23451636.568    -2025167.995 5  -1444079.51521
  22568327.162     6507174.034 5   5070504.15921
 91  5  3 22 11 14.9980000  0  5G 2G 6G13G15G19
  20209276.4754   -7579562.07248  -5734374.40463
  20549101.100   -13643565.178 7 -10631337.11122
  22780325.4754   -4761024.76145  -3328264.86461
  23446228.9824   -2053597.08945  -1466231.96461
  22573812.5764    6536034.45945   5092992.68161
 91  5  3 22 11 29.9980000  0  5G 2G 6G13G15G19
  20207720.2484   -7587746.21348  -5740751.65663
  20543171.209   -13674727.727 7 -10655619.59322
  22767451.451    -4828675.410 5  -3380979.44921
  23440834.8734   -2081920.39245  -1488301.96661
  22579318.170     6564950.491 5   5115524.53721
 91  5  3 22 11 44.9980000  0  5G 2G 6G13G15G19
  20206173.6394   -7595870.26348  -5747082.08463
  20537252.498   -13705831.871 7 -10679856.57122
  22754586.5614   -4896271.11545  -3433651.23861
  23435462.1154   -2110130.34445  -1510283.65461
  22584835.0064    6593929.25845   5138105.27461
 91  5  3 22 11 59.9980000  0  5G 2G 6G13G15G19
  20204637.0614   -7603944.05948  -5753373.35563
  20531342.522   -13736887.298 7 -10704055.58622
  22741733.0374   -4963821.09845  -3486287.40961
  23430119.1314   -2138236.75445  -1532184.66361
  22590355.1624    6622960.79745   5160727.13261
 91  5  3 22 12 14.9980000  0  5G 2G 6G13G15G19
  20203109.8034   -7611972.94748  -5759629.63163
  20525441.865   -13767898.915 7 -10728220.46522
  22728886.2484   -5031330.47745  -3538891.88961
  23424788.1394   -2166244.53345  -1554008.79861
  22595894.7484    6652039.82645   5183385.99961
 91  5  3 22 12 29.9980000  0  5G 2G 6G13G15G19
  20201592.8654   -7619944.77348  -5765841.44363
  20519550.342   -13798854.145 7 -10752341.40422
  22716048.3034   -5098786.52245  -3591454.87561
  23419481.936    -2194140.923 5  -1575746.15521
  22601443.3034    6681178.64445   5206091.44761
 91  5  3 22 12 44.9980000  0  5G 2G 6G13G15G19
  20200086.1004   -7627865.08748  -5772013.11863
  20513669.654   -13829758.347 7 -10776422.58222
  22703222.1074   -5166194.20845  -3643980.12961
  23414195.217    -2221931.209 5  -1597400.82921
  22606990.1784    6710371.64545   5228839.12061
 91  5  3 22 12 59.9980000  0  5G 2G 6G13G15G19
  20198587.7404   -7635731.64548  -5778142.90463
  20507799.045   -13860609.039 7 -10800462.06622
  22690405.123    -5233550.577 5  -3696465.42621
  23408922.9434   -2249612.73545  -1618970.76561
  22612557.0454    6739621.11545   5251630.78461
 91  5  3 22 13 14.9980000  0  5G 2G 6G13G15G19
  20197101.6784   -7643544.17048  -5784230.58863
  20501938.631   -13891405.449 7 -10824459.25123
  22677598.3894   -5300855.20845  -3748910.38761
  23403674.092    -2277185.061 5  -1640455.58221
  22618134.9984    6768927.25745   5274466.61661
 91  5  3 22 13 29.9980000  0  5G 2G 6G13G15G19
  20195625.9204   -7651300.73648  -5790274.66863
  20496087.678   -13922145.616 7 -10848412.61022
  22664799.3034   -5368105.45245  -3801312.98361
  23398451.0684   -2304645.78145  -1661853.44661
  22623723.7404    6798291.94545   5297348.07361
 91  5  3 22 13 44.9980000  0  5G 2G 6G13G15G19
  20194160.4754   -7659003.02448  -5796276.45563
  20490249.186   -13952830.766 7 -10872323.09923
  22652012.436    -5435302.817 5  -3853674.34821
  23393244.4824   -2331996.30645  -1683165.44661
  22629321.8264    6827713.51245   5320273.84061
 91  5  3 22 13 59.9980000  0  5G 2G 6G13G15G19
  20192706.5454   -7666643.34348  -5802229.95163
  20484422.272   -13983452.874 7 -10896184.46623
  22639237.0534   -5502439.07045  -3905988.11661
  23388065.4124   -2359228.43345  -1704385.19161
  22634934.2644    6857199.76445   5343250.01961
 91  5  3 22 14 14.9980000  0  5G 2G 6G13G15G19
  20191261.9754   -7674229.03648  -5808140.88263
  20478606.092   -14014019.207 7 -10920002.36822
  22626471.084    -5569521.377 5  -3958259.83521
  23382900.9674   -2386349.41145  -1725518.31261
  22640556.3114    6886743.07345   5366270.64861
 91  5  3 22 14 29.9980000  0  5G 2G 6G13G15G19
  20189829.2094   -7681759.20548  -5814008.54463
  20472801.647   -14044528.387 7 -10943775.73623
  22613717.2724   -5636548.25445  -4010488.36461
  23377760.3734   -2413357.99845  -1746563.86961
  22646189.6314    6916344.40445   5389336.49961
 91  5  3 22 14 44.9980000  0  5G 2G 6G13G15G19
  20188406.9044   -7689234.68848  -5819833.60163
  20467004.725   -14074980.911 7 -10967504.95322
  22600970.7954   -5703520.03745  -4062673.96761
  23372649.1864   -2440254.57345  -1767522.14561
  22651831.6394    6946003.06445   5412447.01961
 91  5  3 22 14 59.9980000  0  5G 2G 6G13G15G19
  20186994.5764   -7696659.32148  -5825619.03263
  20461219.959   -14105380.552 7 -10991192.97223
  22588236.631    -5770440.246 5  -4114819.37521
  23367553.3974   -2467042.65446  -1788395.86861
  22657489.6474    6975715.08245   5435599.11261
 91  5  3 22 15 14.9980000  0  5G 2G 6G13G15G19
  20185592.4674   -7704024.42548  -5831358.07463
  20455447.623   -14135718.294 7 -11014832.75222
  22575512.7564   -5837299.84145  -4166917.58261
  23362476.842    -2493713.451 6  -1809178.20121
  22663149.8344    7005489.08245   5458799.50561
 91  5  3 22 15 29.9980000  0  5G 2G 6G13G15G19
  20184200.9044   -7711340.98448  -5837059.29263
  20449683.904   -14166004.740 7 -11038432.56123
  22562798.232    -5904109.145 5  -4218976.54721
  23357422.4124   -2520277.50545  -1829877.37761
  22668824.5224    7035314.16145   5482039.70261
 91  5  3 22 15 44.9980000  0  5G 2G 6G13G15G19
  20182819.8114   -7718600.62748  -5842716.15663
  20443931.842   -14196231.217 7 -11061985.64223
  22550096.4594   -5970859.23745  -4270989.40861
  23352383.7014   -2546725.96645  -1850486.48061
  22674516.0374    7065198.71445   5505326.23561
 91  5  3 22 15 59.9980000  0  5G 2G 6G13G15G19
  20181448.4044   -7725803.62248  -5848328.88063
  20438190.350   -14226397.839 7 -11085492.08423
  22537406.748    -6037550.105 5  -4322956.12021
  23347375.2094   -2573059.20445  -1871005.78861
  22680209.8344    7095142.35845   5528658.81861
 91  5  3 22 16 14.9980000  0  5G 2G 6G13G15G19
  20180088.0614   -7732951.60148  -5853898.73763
  20432462.475   -14256505.827 7 -11108952.83723
  22524726.732    -6104183.048 5  -4374877.69821
  23342383.076    -2599278.218 5  -1891436.10021
  22685921.772     7125143.425 5   5552036.14321
 91  5  3 22 16 29.9980000  0  5G 2G 6G13G15G19
  20178737.1624   -7740051.50048  -5859431.12463
  20426742.193   -14286561.678 7 -11132372.96523
  22512056.865    -6170764.455 5  -4426759.12521
  23337418.3034   -2625389.59846  -1911782.52861
  22691643.8574    7155194.98345   5575452.81361
 91  5  3 22 16 44.9980000  0  5G 2G 6G13G15G19
  20177395.6624   -7747103.31548  -5864926.04563
  20421033.068   -14316565.218 7 -11155752.33123
  22499395.1624   -6237293.93745  -4478600.07161
  23332462.4434   -2651392.87045  -1932044.72661
  22697368.2174    7185297.18045   5598908.94061
 91  5  3 22 16 59.9980000  0  5G 2G 6G13G15G19
  20176063.0614   -7754099.77448  -5870377.83163
  20415334.912   -14346508.782 7 -11179084.96223
  22486747.162    -6303763.887 5  -4530394.63321
  23327540.779    -2677280.512 5  -1952216.82121
  22703109.1394    7215457.15045   5622410.08961
 91  5  3 22 17 14.9980000  0  5G 2G 6G13G15G19
  20174744.0844   -7761036.36148  -5875782.96663
  20409648.443   -14376387.620 7 -11202367.15923
  22474111.6154   -6370169.44145  -4582139.02861
  23322636.0064   -2703047.79845  -1972295.12161
  22708859.3574    7245679.24645   5645959.64761
 91  5  3 22 17 29.9980000  0  5G 2G 6G13G15G19
  20173433.8974   -7767917.65448  -5881145.01263
  20403976.061   -14406206.274 7 -11225602.45723
  22461485.131    -6436514.551 5  -4633836.32621
  23317753.092    -2728698.868 5  -1992282.87121
  22714624.9594    7275959.10445   5669554.22161
 91  5  3 22 17 44.9980000  0  5G 2G 6G13G15G19
  20172134.3184   -7774750.37948  -5886469.21563
  20398311.701   -14435970.879 7 -11248795.64223
  22448871.428    -6502805.238 5  -4685491.21221
  23312895.6864   -2754240.32645  -2012185.22761
  22720396.936     7306289.768 5   5693188.36621
 91  5  3 22 17 59.9980000  0  5G 2G 6G13G15G19
  20170845.5924   -7781524.53448  -5891747.77863
  20392658.397   -14465671.277 7 -11271938.79223
  22436268.1154   -6569031.47745  -4737095.88761
  23308058.5294   -2779661.85245  -2031994.10861
  22726177.9204    7336681.09845   5716869.79861
 91  5  3 22 18 14.9980000  0  5G 2G 6G13G15G19
  20169566.7404   -7788246.39748  -5896985.59763
  20387017.850   -14495313.507 7 -11295036.62123
  22423676.350    -6635199.158 5  -4788654.91721
  23303240.8654   -2804969.37345  -2051714.16261
  22731968.295     7367127.039 5   5740593.78521
 91  5  3 22 18 29.9980000  0  5G 2G 6G13G15G19
  20168297.1784   -7794913.35848  -5902180.63463
  20381388.248   -14524894.530 7 -11318086.74923
  22411097.412    -6701304.862 5  -4840165.67121
  23298452.5614   -2830159.93546  -2071343.08261
  22737776.0454    7397630.36245   5764362.47761
 91  5  3 22 18 44.9980000  0  5G 2G 6G13G15G19
  20167039.0224   -7801528.72248  -5907335.46363
  20375772.131   -14554417.315 7 -11341091.49923
  22398527.967    -6767351.529 5  -4891630.39621
  23293674.4594   -2855236.69445  -2090883.31861
  22743590.3424    7428187.47845   5788173.08861
 91  5  3 22 18 59.9980000  0  5G 2G 6G13G15G19
  20165790.2874   -7808090.86048  -5912448.82163
  20370164.397   -14583879.872 7 -11364049.31923
  22385971.9594   -6833337.32345  -4943047.71061
  23288928.326    -2880197.462 5  -2110333.18121
  22749415.186     7458800.057 5   5812026.91321
 91  5  3 22 19 14.9980000  0  5G 2G 6G13G15G19
  20164550.5844   -7814599.17248  -5917520.23563
  20364570.084   -14613281.558 7 -11386959.71023
  22373428.139    -6899261.008 5  -4994416.63821
  23284198.326    -2905041.514 5  -2129692.10821
  22755253.3974    7489468.58045   5835924.34261
 91  5  3 22 19 29.9980000  0  5G 2G 6G13G15G19
  20163321.8504   -7821056.90048  -5922552.23263
  20358985.115   -14642625.191 7 -11409824.86323
  22360893.5454   -6965125.54145  -5045739.45961
  23279489.443    -2929771.779 5  -2148962.35521
  22761097.365     7520189.700 5   5859862.74421
 91  5  3 22 19 44.9980000  0  5G 2G 6G13G15G19
  20162102.9904   -7827460.95548  -5927542.40963
  20353414.982   -14671907.470 7 -11432642.20723
  22348372.061    -7030927.335 5  -5097013.38921
  23274809.0924   -2954384.95145  -2168141.36561
  22766952.193     7550966.585 5   5883844.60121
 91  5  3 22 19 59.9980000  0  5G 2G 6G13G15G19
  20160895.0534   -7833810.38948  -5932490.02263
  20347853.725   -14701126.918 7 -11455410.59323
  22335860.287    -7096664.932 5  -5148237.29421
  23270149.248    -2978879.634 5  -2187228.05121
  22772822.3814    7581800.32545   5907870.75961
 91  5  3 22 20 14.9980000  0  5G 2G 6G13G15G19
  20159697.7324   -7840101.60248  -5937392.26963
  20342305.732   -14730279.850 7 -11478127.14823
  22323364.287    -7162334.295 5  -5199408.03021
  23265508.9124   -3003251.80345  -2206219.28361
  22778699.100     7612694.390 5   5931943.93121
 91  5  3 22 20 29.9980000  0  5G 2G 6G13G15G19
  20158511.2254   -7846340.81348  -5942253.99363
  20336768.420   -14759372.123 7 -11500796.43723
  22310881.0374   -7227941.29045  -5250530.18661
  23260895.6544   -3027507.58245  -2225119.81961
  22784596.342     7643642.445 5   5956059.15521
 91  5  3 22 20 44.9980000  0  5G 2G 6G13G15G19
  20157333.7724   -7852529.34948  -5947076.23763
  20331244.818   -14788404.829 7 -11523419.30823
  22298407.0684   -7293486.75545  -5301604.37761
  23256301.545    -3051648.040 5  -2243930.48421
  22790488.475     7674643.164 5   5980215.43221
 91  5  3 22 20 59.9980000  0  5G 2G 6G13G15G19
  20156166.9984   -7858656.35548  -5951850.53063
  20325734.389   -14817366.791 7 -11545987.05823
  22285949.686    -7358959.573 5  -5352621.98021
  23251734.5684   -3075661.97046  -2262642.54961
  22796402.201     7705707.244 5   6004421.07121
 91  5  3 22 21 14.9980000  0  5G 2G 6G13G15G19
  20155010.0534   -7864734.85648  -5956587.02963
  20320234.779   -14846270.832 7 -11568509.67323
  22273503.0374   -7424372.30345  -5403592.75061
  23247182.529    -3099562.079 5  -2281265.93021
  22802322.967     7736821.725 5   6028665.98021
 91  5  3 22 21 29.9980000  0  5G 2G 6G13G15G19
  20153864.2254   -7870760.74848  -5961282.51663
  20314744.943   -14875112.368 7 -11590983.58023
  22261065.123    -7489720.234 5  -5454513.02421
  23242651.443    -3123343.930 5  -2299797.18421
  22808248.342     7767990.792 5   6052953.43121
 91  5  3 22 21 44.9980000  0  5G 2G 6G13G15G19
  20152727.4284   -7876733.90948  -5965936.95263
  20309268.912   -14903891.253 7 -11613408.67123
  22248642.131    -7555003.092 5  -5505382.59321
  23238151.2874   -3147006.91945  -2318235.80261
  22814193.123     7799214.303 5   6077283.30221
 91  5  3 22 21 59.9980000  0  5G 2G 6G13G15G19
  20151601.5294   -7882650.53748  -5970547.31463
  20303804.787   -14932602.940 7 -11635781.39823
  22236231.553    -7620216.646 5  -5556198.18221
  23233669.857    -3170547.185 5  -2336578.79921
  22820147.756     7830496.194 5   6101658.65321
 91  5  3 22 22 14.9980000  0  5G 2G 6G13G15G19
  20150484.7094   -7888518.56248  -5975119.80663
  20298352.693   -14961255.203 7 -11658107.82123
  22223834.2174   -7685368.16246  -5606965.40961
  23229217.295    -3193971.993 5  -2354831.84021
  22826110.600     7861828.611 5   6126073.38921
 91  5  3 22 22 29.9980000  0  5G 2G 6G13G15G19
  20149378.3574   -7894329.09348  -5979647.49863
  20292914.436   -14989838.955 7 -11680380.86023
  22211448.0534   -7750448.38045  -5657677.09161
  23224778.834    -3217272.568 5  -2372988.07121
  22832085.318     7893220.448 5   6150534.42121
 91  5  3 22 22 44.9980000  0  5G 2G 6G13G15G19
  20148285.1544   -7900079.12548  -5984128.04863
  20287487.998   -15018351.015 7 -11702598.03623
  22199079.9674   -7815453.84245  -5708330.52561
  23220377.2094   -3240445.52045  -2391044.85861
  22838072.318     7924674.717 5   6175044.10021
 91  5  3 22 22 59.9980000  0  5G 2G 6G13G15G19
  20147202.0374   -7905773.66948  -5988565.35963
  20282074.865   -15046795.880 7 -11724762.85023
  22186724.272    -7880389.258 5  -5758929.36021
  23215986.2484   -3263495.51945  -2409005.83561
  22844071.014     7956186.226 5   6199598.38521
 91  5  3 22 23 14.9980000  0  5G 2G 6G13G15G19
  20146127.3034   -7911417.97348  -5992963.52463
  20276672.920   -15075178.564 7 -11746879.21023
  22174380.318    -7945259.379 6  -5809477.32521
  23211625.7174   -3286427.56045  -2426874.90261
  22850072.240     7987749.570 5   6224193.04521
 91  5  3 22 23 29.9980000  0  5G 2G 6G13G15G19
  20145063.0294   -7917011.72248  -5997322.29663
  20271285.022   -15103498.530 7 -11768946.70623
  22162045.943    -8010063.777 6  -5859974.09121
  23207281.537    -3309241.255 5  -2444651.74921
  22856090.772     8019364.822 5   6248828.16421
 91  5  3 22 23 44.9980000  0  5G 2G 6G13G15G19
  20144009.6784   -7922545.16548  -6001634.07963
  20265909.201   -15131745.693 7 -11790957.46223
  22149728.357    -8074791.997 6  -5910411.48321
  23202969.7724   -3331926.48946  -2462328.49561
  22862113.326     8051041.919 5   6273511.46921
 91  5  3 22 23 59.9980000  0  5G 2G 6G13G15G19
  20142967.2874   -7928025.77648  -6005904.68963
  20260545.334   -15159927.383 7 -11812917.20323
  22137425.1314   -8139451.20546  -5960795.10661
  23198671.959    -3354490.502 6  -2479910.80021
  22868163.318     8082773.448 5   6298237.19421
 91  5  3 22 24 14.9980000  0  5G 2G 6G13G15G19
  20141934.8504   -7933453.63948  -6010134.19863
  20255195.686   -15188043.209 7 -11834825.62823
  22125133.0844   -8204040.76445  -6011124.47261
  23194399.514    -3376932.707 6  -2497398.17321
  22874204.3114    8114559.25145   6323005.19861
 91  5  3 22 24 29.9980000  0  5G 2G 6G13G15G19
  20140911.0684   -7938829.74948  -6014323.38263
  20249858.584   -15216093.789 7 -11856683.20323
  22112855.732    -8268561.350 6  -6061400.08121
  23190155.5924   -3399254.14446  -2514791.44861
  22880262.8814    8146398.39545   6347814.77661
 91  5  3 22 24 44.9980000  0  5G 2G 6G13G15G19
  20139896.8424   -7944159.33248  -6018476.31463
  20244531.459   -15244084.188 7 -11878493.88623
  22100589.8974   -8333017.75546  -6111625.67961
  23185929.248    -3421459.640 6  -2532094.38621
  22886334.0064    8178285.47745   6372661.70061
 91  5  3 22 24 59.9980000  0  5G 2G 6G13G15G19
  20138893.1314   -7949433.15148  -6022585.78863
  20239218.350   -15272004.802 7 -11900250.19523
  22088337.6004   -8397400.21446  -6161793.65661
  23181723.7564   -3443539.74546  -2549299.60561
  22892414.4904    8210229.64045   6397553.10861
 91  5  3 22 25 14.9980000  0  5G 2G 6G13G15G19
  20137900.9984   -7954646.99948  -6026648.53463
  20233920.139   -15299850.983 7 -11921948.50323
  22076102.170    -8461704.345 6  -6211900.61521
  23177546.7324   -3465489.85845  -2566403.55061
  22898497.9904    8242235.17445   6422492.34061
 91  5  3 22 25 29.9980000  0  5G 2G 6G13G15G19
  20136919.6394   -7959805.33848  -6030668.02763
  20228634.397   -15327627.289 7 -11943592.36423
  22063879.5224   -8525934.10546  -6261949.60661
  23173392.748    -3487314.410 5  -2583409.63821
  22904603.1074    8274297.58445   6447475.87461
 91  5  3 22 25 44.9980000  0  5G 2G 6G13G15G19
  20135947.7094   -7964916.91348  -6034651.07863
  20223359.990   -15355342.134 7 -11965188.33223
  22051668.115    -8590098.048 6  -6311947.32321
  23169266.459    -3509021.996 6  -2600324.58621
  22910716.9984    8306408.07145   6472496.88261
 91  5  3 22 25 59.9980000  0  5G 2G 6G13G15G19
  20134983.5924   -7969974.89648  -6038592.37563
  20218098.850   -15382988.051 7 -11986730.59023
  22039471.865    -8654188.580 6  -6361887.84021
  23165156.7174   -3530605.30346  -2617142.71261
  22916835.5534    8338573.33245   6497560.57061
 91  5  3 22 26 14.9980000  0  5G 2G 6G13G15G19
  20134031.8574   -7974980.39148  -6042492.76663
  20212851.412   -15410565.998 7 -12008219.88523
  22027289.7014   -8718206.39846  -6411771.68961
  23161073.6934   -3552065.16646  -2633864.62861
  22922965.8264    8370792.15345   6522665.99461
 91  5  3 22 26 29.9980000  0  5G 2G 6G13G15G19
  20133088.8974   -7979932.69448  -6046351.70963
  20207616.3114  -15438074.88647 -12029655.36963
  22015120.9284   -8782150.54346  -6461598.13261
  23157012.482    -3573400.711 5  -2650489.69421
  22929110.8424    8403065.42845   6547813.85061
 91  5  3 22 26 44.9980000  0  5G 2G 6G13G15G19
  20132155.8654   -7984836.62448  -6050172.96263
  20202393.6934  -15465519.48047 -12051040.75363
  22002965.7404   -8846025.52646  -6511370.69461
  23152972.107    -3594616.425 5  -2667021.36921
  22935256.1474    8435388.20945   6573000.28361
 91  5  3 22 26 59.9980000  0  5G 2G 6G13G15G19
  20131232.5454   -7989690.45748  -6053955.18063
  20197183.568   -15492897.570 7 -12072374.31623
  21990823.818    -8909828.727 6  -6561087.31221
  23148962.9434   -3615710.28546  -2683458.10261
  22941421.9364    8467762.21545   6598226.62261
 91  5  3 22 27 14.9980000  0  5G 2G 6G13G15G19
  20130318.8894   -7994488.32548  -6057693.78263
  20191987.7644  -15520203.02247 -12093651.28163
  21978698.8814   -8973554.16046  -6610743.33261
  23144972.670    -3636675.997 6  -2699794.98221
  22947584.576     8500193.360 5   6623497.50021
 91  5  3 22 27 29.9980000  0  5G 2G 6G13G15G19
  20129416.5064   -7999231.52548  -6061389.79663
  20186805.8504  -15547436.86447 -12114872.44563
  21966586.7484   -9037203.02846  -6660339.69761
  23141009.7724   -3657514.91746  -2716033.04561
  22953774.842     8532679.742 5   6648811.41121
 91  5  3 22 27 44.9980000  0  5G 2G 6G13G15G19
  20128524.8264   -8003921.03748  -6065043.96563
  20181635.850   -15574599.891 7 -12136038.42923
  21954488.4754   -9100775.79146  -6709876.74761
  23137067.1624   -3678227.63846  -2732172.79161
  22959960.4434    8565220.65645   6674167.81461
 91  5  3 22 27 59.9980000  0  5G 2G 6G13G15G19
  20127643.0224   -8008553.07848  -6068653.35463
  20176482.061   -15601687.983 7 -12157146.02123
  21942404.8184   -9164268.07346  -6759351.09561
  23133149.857    -3698810.067 6  -2748211.01121
  22966167.998     8597819.841 5   6699569.61621
 91  5  3 22 28 14.9980000  0  5G 2G 6G13G15G19
  20126771.4904   -8013135.60948  -6072224.16563
  20171339.795   -15628708.742 7 -12178201.14323
  21930336.9204   -9227687.47946  -6808768.66561
  23129254.834    -3719270.015 6  -2764153.78221
  22972385.522     8630469.329 5   6725010.62421
 91  5  3 22 28 29.9980000  0  5G 2G 6G13G15G19
  20125909.0844   -8017666.60548  -6075754.81163
  20166211.232   -15655659.729 7 -12199201.90423
  21918283.600    -9291031.559 6  -6858127.53221
  23125380.412    -3739605.293 6  -2779999.41521
  22978605.639     8663171.135 5   6750492.40521
 91  5  3 22 28 44.9980000  0  5G 2G 6G13G15G19
  20125057.2724   -8022142.63348  -6079242.63763
  20161096.123   -15682537.395 7 -12220145.52623
  21906244.6074   -9354296.61846  -6907424.82461
  23121542.920    -3759812.154 6  -2795744.96521
  22984835.1544    8695928.47945   6776017.46361
 91  5  3 22 28 59.9980000  0  5G 2G 6G13G15G19
  20124215.5374   -8026562.69648  -6082686.84963
  20155996.1234  -15709340.52647 -12241031.07163
  21894221.857    -9417481.074 6  -6956659.30121
  23117718.818    -3779889.088 6  -2811389.28621
  22991089.0144    8728742.29745   6801586.50861
 91  5  3 22 29 14.9980000  0  5G 2G 6G13G15G19
  20123383.3894   -8030937.75148  -6086095.98963
  20150908.107   -15736079.640 7 -12261866.73023
  21882211.568    -9480595.532 6  -7005839.24021
  23113920.5684   -3799847.06146  -2826940.91261
  22997333.9514    8761601.72845   6827191.11161
 91  5  3 22 29 29.9980000  0  5G 2G 6G13G15G19
  20122561.8504   -8035260.23248  -6089464.16063
  20145832.631   -15762746.758 7 -12282646.29123
  21870215.748    -9543631.956 6  -7054958.38321
  23110150.8344   -3819678.15346  -2842393.68461
  23003596.9364    8794514.30145   6852837.13061
 91  5  3 22 29 44.9980000  0  5G 2G 6G13G15G19
  20121748.2794   -8039530.66148  -6092791.77063
  20140773.451   -15789342.300 7 -12303370.07723
  21858235.061    -9606590.421 6  -7104016.77121
  23106399.8894   -3839382.73846  -2857747.84061
  23009874.4044    8827479.34945   6878524.00461
 91  5  3 22 29 59.9980000  0  5G 2G 6G13G15G19
  20120946.8974   -8043743.16148  -6096074.24163
  20135725.717   -15815860.039 7 -12324033.23923
  21846268.514    -9669464.780 6  -7153009.62621
  23102675.4514   -3858954.55846  -2872998.57061
  23016156.4364    8860502.76845   6904256.39661
 91  5  3 22 30 14.9980000  0  5G 2G 6G13G15G19
  20120154.2254   -8047907.44648  -6099319.14363
  20130693.6864  -15842309.25647 -12344643.00563
  21834319.006    -9732264.226 6  -7201944.10821
  23098974.5844   -3878403.22946  -2888153.33561
  23022452.670     8893574.933 5   6930026.76021
 91  5  3 22 30 29.9980000  0  5G 2G 6G13G15G19
  20119370.9674   -8052023.79248  -6102526.68863
  20125673.162   -15868690.060 7 -12365199.46023
  21822383.7254   -9794988.70046  -7250820.16061
  23095294.920    -3897728.742 6  -2903212.14221
  23028752.061     8926695.196 5   6955834.59621
 91  5  3 22 30 44.9980000  0  5G 2G 6G13G15G19
  20118596.9824   -8056091.87348  -6105696.62464
  20120665.5614  -15895001.86147 -12385702.15263
  21810462.826    -9857637.628 6  -7299637.36321
  23091640.936    -3916930.621 6  -2918174.59821
  23035062.443     8959863.818 5   6981680.12221
 91  5  3 22 30 59.9980000  0  5G 2G 6G13G15G19
  20117834.2874   -8060104.77948  -6108823.57164
  20115673.740   -15921237.357 7 -12406145.38223
  21798554.857    -9920203.618 6  -7348389.93021
  23088010.756    -3936001.458 6  -2933034.94221
  23041387.982     8993087.783 5   7007568.76621
 91  5  3 22 31 14.9980000  0  5G 2G 6G13G15G19
  20117079.6074   -8064068.32248  -6111912.04964
  20110693.740   -15947402.069 7 -12426533.45523
  21786662.943    -9982691.895 6  -7397081.95021
  23084404.498    -3954946.877 6  -2947797.55821
  23047716.318     9026361.229 5   7033495.96121
 91  5  3 22 31 29.9980000  0  5G 2G 6G13G15G19
  20116334.5614   -8067983.45448  -6114962.80563
  20105729.1234  -15973496.97347 -12446867.13563
  21774788.732   -10045103.129 6  -7445713.92921
  23080824.0844   -3973767.94846  -2962463.29361
  23054061.0224    9059682.95545   7059460.79361
 91  5  3 22 31 44.9970000  0  5G 2G 6G13G15G19
  20115598.7984   -8071849.32748  -6117975.17864
  20100776.009   -15999519.367 7 -12467144.31023
  21762926.314   -10107432.535 6  -7494282.16721
  23077266.728    -3992462.644 6  -2977030.53221
  23060411.665     9093051.406 5   7085462.02021
 91  5  3 22 31 59.9970000  0  5G 2G 6G13G15G19
  20114873.6184   -8075660.42748  -6120944.87263
  20095839.970   -16025466.058 7 -12487362.49623
  21751081.0564  -10169681.42746  -7542787.65161
  23073735.2434   -4011026.69346  -2991495.98861
  23066768.212     9126477.136 5   7111507.88621
 91  5  3 22 32 14.9970000  0  5G 2G 6G13G15G19
  20114157.5644   -8079418.59048  -6123873.31564
  20090916.384   -16051337.211 7 -12507521.82523
  21739251.064   -10231847.428 6  -7591228.53521
  23070226.1734   -4029460.95446  -3005860.30961
  23073140.712     9159955.720 5   7137594.93421
 91  5  3 22 32 29.9970000  0  5G 2G 6G13G15G19
  20113452.6814   -8083128.01748  -6126763.78564
  20086005.798   -16077136.656 7 -12527625.27523
  21727437.001   -10293934.387 6  -7639607.84821
  23066745.7434   -4047769.13446  -3020126.39061
  23079523.6654    9193482.80645   7163719.76161
 91  5  3 22 32 44.9970000  0  5G 2G 6G13G15G19
  20112756.3924   -8086784.40248  -6129612.92164
  20081111.524   -16102860.072 7 -12547669.48523
  21715637.0174  -10355937.82746  -7687922.07561
  23063289.235    -4065947.052 6  -3034290.95821
  23085908.321     9227062.606 5   7189885.66321
 91  5  3 22 32 59.9970000  0  5G 2G 6G13G15G19
  20112070.3844   -8090387.99648  -6132420.92264
  20076230.712   -16128507.474 7 -12567654.45723
  21703854.118   -10417857.720 6  -7736171.21821
  23059849.6814   -4083994.83346  -3048354.13561
  23092309.9624    9260694.61444   7216092.27161
 91  5  3 22 33 14.9970000  0  5G 2G 6G13G15G19
  20111394.9934   -8093939.56848  -6135188.38764
  20071364.829   -16154078.997 7 -12587580.30623
  21692086.4784  -10479694.17446  -7784355.33961
  23056440.8924   -4101912.87346  -3062316.20761
  23098722.9154    9294378.23545   7242339.07061
 91  5  3 22 33 29.9970000  0  5G 2G 6G13G15G19
  20110728.5404   -8097441.02048  -6137916.79663
  20066512.126   -16179576.311 7 -12607448.32723
  21680334.907   -10541448.542 6  -7832475.48021
  23053057.0324   -4119702.50646  -3076178.22361
  23105138.134     9328111.700 4   7268624.71721
 91  5  3 22 33 44.9970000  0  5G 2G 6G13G15G19
  20110072.0404   -8100893.98048  -6140607.42464
  20061675.712   -16205000.906 7 -12627259.68923
  21668599.837   -10603121.977 6  -7880532.57721
  23049691.6894   -4137365.40546  -3089941.49961
  23111565.6964    9361893.22345   7294947.80461
 91  5  3 22 33 59.9970000  0  5G 2G 6G13G15G19
  20109423.3924   -8104298.10848  -6143259.99164
  20056850.829   -16230352.200 7 -12647013.93223
  21656879.735   -10664714.158 6  -7928526.35321
  23046360.517    -4154901.234 6  -3103605.74121
  23118005.5564    9395722.81345   7321308.34761
 91  5  3 22 34 14.9970000  0  5G 2G 6G13G15G19
  20108785.1964   -8107650.87548  -6145872.54963
  20052040.7514  -16255627.11047 -12666708.65463
  21645173.0324  -10726221.95346  -7976454.38461
  23043046.439    -4172307.187 6  -3117168.79021
  23124453.267     9429603.042 5   7347708.34821
 91  5  3 22 34 29.9970000  0  5G 2G 6G13G15G19
  20108159.0644   -8110948.04348  -6148441.77763
  20047246.704   -16280821.443 7 -12686340.58823
  21633485.189   -10787640.650 6  -8024312.97621
  23039755.7984   -4189578.85346  -3130627.20561
  23130915.251     9463538.226 5   7374151.16221
 91  5  3 22 34 44.9970000  0  5G 2G 6G13G15G19
  20107540.9154   -8114192.07048  -6150969.59964
  20042468.399   -16305937.132 7 -12705911.24223
  21621815.6894  -10848972.14646  -8072103.63361
  23036497.3924   -4206718.49846  -3143982.73961
  23137382.517     9497525.775 5   7400634.78921
 91  5  3 22 34 59.9970000  0  5G 2G 6G13G15G19
  20106931.3294   -8117392.57848  -6153463.51064
  20037702.001   -16330983.566 7 -12725427.93523
  21610159.2044  -10910226.05746  -8119833.82461
  23033257.751    -4223735.288 6  -3157242.54621
  23143853.0174    9531556.00344   7427151.66561
 91  5  3 22 35 14.9970000  0  5G 2G 6G13G15G19
  20106332.0324   -8120544.12448  -6155919.27164
  20032949.1894  -16355954.83447 -12744886.05263
  21598516.9784  -10971396.52446  -8167499.00261
  23030041.4154   -4240623.30646  -3170401.99561
  23150349.8994    9565634.25445   7453705.96661
 91  5  3 22 35 29.9970000  0  5G 2G 6G13G15G19
  20105741.9704   -8123644.29948  -6158335.00363
  20028211.9784  -16380848.54147 -12764283.74063
  21586894.595   -11032480.884 6  -8215097.08421
  23026853.3374   -4257380.41246  -3183459.45661
  23156842.1424    9599762.68945   7480299.36361
 91  5  3 22 35 44.9970000  0  5G 2G 6G13G15G19
  20105162.2594   -8126691.19948  -6160709.21864
  20023490.0094  -16405662.53347 -12783619.30563
  21575287.173   -11093476.710 6  -8262626.17321
  23023684.7354   -4274004.48146  -3196413.22761
  23163344.2824    9633943.28345   7506933.42561
 91  5  3 22 35 59.9970000  0  5G 2G 6G13G15G19
  20104593.532    -8129684.210 8  -6163041.44523
  20018783.7744  -16430395.55947 -12802891.78363
  21563697.220   -11154382.901 6  -8310085.42221
  23020555.4784   -4290494.57046  -3209262.61161
  23169850.7124    9668176.81045   7533608.72661
 91  5  3 22 36 14.9970000  0  5G 2G 6G13G15G19
  20104032.962    -8132630.502 8  -6165337.26924
  20014091.1424  -16455054.52047 -12822106.55263
  21552122.103   -11215206.328 6  -8357480.18921
  23017438.6894   -4306857.86246  -3222013.19161
  23176377.095     9702455.709 5   7560319.38821
 91  5  3 22 36 29.9970000  0  5G 2G 6G13G15G19
  20103481.5794   -8135524.49748  -6167592.33964
  20009414.7824  -16479633.92447 -12841259.32463
  21540563.314   -11275940.881 6  -8404805.70921
  23014361.0954   -4323088.33146  -3234660.25561
  23182914.3064    9736785.35645   7587069.57461
 91  5  3 22 36 44.9970000  0  5G 2G 6G13G15G19
  20102939.9394   -8138369.13648  -6169808.95063
  20004751.5484  -16504136.14147 -12860351.94963
  21529024.8144  -11336589.28446  -8452064.08161
  23011291.384    -4339188.801 6  -3247206.04321
  23189453.3924    9771163.05945   7613857.21761
 91  5  3 22 36 59.9970000  0  5G 2G 6G13G15G19
  20102408.3684   -8141163.24548  -6171986.18664
  20000104.5404  -16528559.86947 -12879383.41863
  21517499.634   -11397149.914 6  -8499254.07021
  23008246.9704   -4355157.94546  -3259649.50561
  23196001.1734    9805589.66845   7640682.96161
 91  5  3 22 37 14.9970000  0  5G 2G 6G13G15G19
  20101885.907    -8143907.147 8  -6174124.30324
  19995471.4074  -16552904.94947 -12898353.60263
  21505992.532   -11457622.715 6  -8546375.62021
  23005233.751    -4370995.712 6  -3271990.57521
  23202562.4234    9840064.99745   7667546.68061
 91  5  3 22 37 29.9970000  0  5G 2G 6G13G15G19
  20101373.4464   -8146603.41948  -6176225.30264
  19990853.6184  -16577173.75547 -12917264.34763
  21494499.517   -11518009.767 6  -8593430.34821
  23002249.017    -4386704.619 6  -3284231.23021
  23209135.0954    9874586.23144   7694446.17061
 91  5  3 22 37 44.9970000  0  5G 2G 6G13G15G19
  20100869.6964   -8149247.24148  -6178285.43163
  19986250.743   -16601361.281 7 -12936111.75823
  21483025.524   -11578305.790 6  -8640414.14221
  22999279.579    -4402279.779 6  -3296367.67621
  23215712.9624    9909158.28545   7721385.25061
 91  5  3 22 37 59.9970000  0  5G 2G 6G13G15G19
  20100377.6104   -8151834.73848  -6180301.67063
  19981664.532   -16625463.166 7 -12954892.43523
  21471570.6264  -11638506.67446  -8687323.81161
  22996343.806    -4417716.924 6  -3308396.58821
  23222301.985     9943784.839 5   7748366.80021
 91  5  3 22 38 14.9970000  0  5G 2G 6G13G15G19
  20099894.9854   -8154369.74348  -6182277.00663
  19977093.2044  -16649483.12947 -12973609.27863
  21460132.0094  -11698616.08146  -8734162.18961
  22993433.8294   -4433019.93446  -3320320.94661
  23228900.939     9978461.900 4   7775387.72021
 91  5  3 22 38 29.9970000  0  5G 2G 6G13G15G19
  20099421.5484   -8156860.34448  -6184217.73863
  19972536.071   -16673429.019 7 -12992268.40023
  21448709.931   -11758641.728 6  -8780935.31821
  22990541.8604   -4448196.43746  -3332146.76861
  23235513.1654   10013181.31444   7802441.62161
 91  5  3 22 38 44.9970000  0  5G 2G 6G13G15G19
  20098956.7674   -8159302.09148  -6186120.40363
  19967993.767   -16697295.893 7 -13010865.95123
  21437303.345   -11818578.562 6  -8827639.23821
  22987686.282    -4463241.742 6  -3343870.32021
  23242121.189    10047947.580 4   7829532.03821
 91  5  3 22 38 59.9970000  0  5G 2G 6G13G15G19
  20098501.8764   -8161700.29748  -6187989.14063
  19963466.173   -16721088.747 7 -13029405.82323
  21425913.9934  -11878431.54646  -8874277.80161
  22984836.571    -4478161.081 6  -3355495.73621
  23248748.735    10082755.257 4   7856654.73621
 91  5  3 22 39 14.9970000  0  5G 2G 6G13G15G19
  20098054.0794   -8164044.88848  -6189816.09563
  19958954.329   -16744797.142 7 -13047879.87823
  21414541.7984  -11938190.08946  -8920842.79561
  22982034.7124   -4492944.11346  -3367014.93261
  23255379.6264   10117614.55644   7883817.64961
 91  5  3 22 39 29.9970000  0  5G 2G 6G13G15G19
  20097616.3994   -8166342.15548  -6191606.17763
  19954458.837   -16768427.468 7 -13066293.10923
  21403187.3374  -11997860.40146  -8967339.02961
  22979235.298    -4507597.201 6  -3378432.89321
  23262028.5324   10152518.76344   7911015.55361
 91  5  3 22 39 44.9970000  0  5G 2G 6G13G15G19
  20097188.8214   -8168591.30148  -6193358.75963
  19949977.384   -16791978.508 7 -13084644.55623
  21391848.798   -12057441.144 6  -9013765.46421
  22976480.6344   -4522119.38546  -3389748.80661
  23268669.915    10187468.742 4   7938249.13121
 91  5  3 22 39 59.9970000  0  5G 2G 6G13G15G19
  20096769.8064   -8170795.38548  -6195076.23063
  19945510.009   -16815452.846 7 -13102936.23323
  21380526.8994  -12116934.95846  -9060124.17261
  22973738.6104   -4536513.48145  -3400964.95661
  23275338.9394   10222461.47044   7965516.01061
 91  5  3 22 40 14.9970000  0  5G 2G 6G13G15G19
  20096359.3844   -8172950.99248  -6196755.92563
  19941057.376   -16838847.037 7 -13121165.45923
  21369223.5714  -12176338.15046  -9106412.25861
  22971027.0714   -4550775.88046  -3412078.47461
  23281997.8214   10257499.92444   7992818.51961
 91  5  3 22 40 29.9970000  0  5G 2G 6G13G15G19
  20095958.7354   -8175057.72948  -6198397.53963
  19936621.056   -16862160.406 7 -13139331.70723
  21357936.470   -12235650.086 6  -9152629.23921
  22968334.103    -4564905.980 6  -3423088.89921
  23288679.6734   10292584.48944   8020156.96861
 91  5  3 22 40 44.9970000  0  5G 2G 6G13G15G19
  20095566.2204   -8177112.22348  -6199998.44763
  19932200.946   -16885388.992 7 -13157431.88723
  21346667.8764  -12294866.96446  -9198772.14561
  22965673.595    -4578900.372 6  -3433993.55821
  23295366.712    10327718.806 4   8047534.17721
 91  5  3 22 40 59.9970000  0  5G 2G 6G13G15G19
  20095184.0094   -8179124.88948  -6201566.76063
  19927795.618   -16908543.117 7 -13175474.05123
  21335417.290   -12353998.873 6  -9244848.85021
  22963034.6104   -4592769.08445  -3444800.32361
  23302059.1734   10362892.20644   8074941.84361
 91  5  3 22 41 14.9970000  0  5G 2G 6G13G15G19
  20094810.7514   -8181093.92248  -6203101.07263
  19923403.321   -16931620.778 7 -13193456.63023
  21324180.2594  -12413043.38746  -9290857.44461
  22960419.571    -4606510.170 6  -3455507.61921
  23308759.2284   10398106.32944   8102381.25261
 91  5  3 22 41 29.9970000  0  5G 2G 6G13G15G19
  20094446.3994   -8183009.08248  -6204593.40563
  19919028.196   -16954611.335 7 -13211371.33523
  21312961.728   -12471989.916 6  -9336789.68821
  22957828.368    -4620113.308 6  -3466107.42021
  23315471.353    10433371.180 4   8129860.18521
 91  5  3 22 41 44.9970000  0  5G 2G 6G13G15G19
  20094089.3294   -8184879.64248  -6206050.98763
  19914669.720   -16977523.747 7 -13229225.14223
  21301762.040   -12530847.570 6  -9382652.68221
  22955262.071    -4633587.454 6  -3476606.71121
  23322191.4074   10468677.59545   8157371.50261
 91  5  3 22 41 59.9970000  0  5G 2G 6G13G15G19
  20093742.8764   -8186705.19348  -6207473.49363
  19910323.798   -17000357.336 7 -13247017.53823
  21290579.470   -12589615.441 6  -9428445.71621
  22952723.446    -4646932.063 6  -3487005.07221
  23328914.2594   10504025.96944   8184915.51961
 91  5  3 22 42 14.9970000  0  5G 2G 6G13G15G19
  20093403.0324   -8188487.60448  -6208862.39063
  19905992.314   -17023113.704 7 -13264749.76023
  21279413.321   -12648294.993 6  -9474169.92621
  22950208.103    -4660149.032 6  -3497303.97021
  23335651.501    10539414.305 4   8212490.66621
 91  5  3 22 42 29.9970000  0  5G 2G 6G13G15G19
  20093072.7204   -8190221.90748  -6210213.79663
  19901678.767   -17045787.667 7 -13282417.76723
  21268264.001   -12706880.959 6  -9519821.21621
  22947725.673    -4673233.152 6  -3507499.33821
  23342389.7434   10574847.30244   8240100.62361
 91  5  3 22 42 44.9970000  0  5G 2G 6G13G15G19
  20092750.9784   -8191916.22448  -6211534.04763
  19897377.243   -17068387.076 7 -13300027.68223
  21257132.337   -12765381.174 6  -9565405.68121
  22945254.8604   -4686192.58946  -3517597.55561
  23349141.157    10610316.614 4   8267738.88221
 91  5  3 22 42 59.9970000  0  5G 2G 6G13G15G19
  20092436.1104   -8193566.51648  -6212819.99163
  19893093.024   -17090907.587 7 -13317576.11823
  21246017.384   -12823791.234 6  -9610919.90521
  22942816.360    -4699022.945 6  -3527595.20021
  23355896.5324   10645826.32344   8295408.59661
 91  5  3 22 43 14.9970000  0  5G 2G 6G13G15G19
  20092133.1104   -8195160.75548  -6214062.26163
  19888822.814   -17113336.942 7 -13335053.52323
  21234921.189   -12882098.936 6  -9656354.35821
  22940397.689    -4711712.125 6  -3537482.82021
  23362667.329    10681388.296 4   8323119.03621
 91  5  3 22 43 29.9970000  0  5G 2G 6G13G15G19
  20091836.7984   -8196716.30548  -6215274.38063
  19884570.345   -17135692.222 7 -13352473.20923
  21223841.0324  -12940320.81346  -9701721.94261
  22938005.501    -4724277.314 6  -3547273.83721
  23369440.9544   10716985.37344   8350856.83961
 91  5  3 22 43 44.9970000  0  5G 2G 6G13G15G19
  20091550.1574   -8198224.03148  -6216449.23963
  19880330.993   -17157963.859 7 -13369827.71923
  21212780.735   -12998447.695 6  -9747015.50821
  22935645.876    -4736709.007 6  -3556960.82721
  23376222.048    10752626.619 4   8378629.04321
 91  5  3 22 43 59.9970000  0  5G 2G 6G13G15G19
  20091272.1424   -8199683.75248  -6217586.69063
  19876109.9314  -17180151.42847 -13387116.72163
  21201737.095   -13056479.088 6  -9792234.66521
  22933300.8604   -4749007.06846  -3566543.71461
  23383013.3454   10788311.72844   8406435.45361
 91  5  3 22 44 14.9970000  0  5G 2G 6G13G15G19
  20091002.8764   -8201099.80148  -6218690.11363
  19871901.751   -17202259.076 7 -13404343.44423
  21190711.548   -13114418.892 6  -9837382.44921
  22930988.0564   -4761175.75646  -3576025.74561
  23389810.556    10824036.520 4   8434272.79721
 91  5  3 22 44 29.9970000  0  5G 2G 6G13G15G19
  20090741.2984   -8202472.70848  -6219759.91563
  19867711.423   -17224287.046 7 -13421508.08223
  21179704.657   -13172267.047 6  -9882458.81921
  22928693.907    -4773215.435 6  -3585407.27821
  23396617.4784   10859800.39844   8462140.55561
 91  5  3 22 44 44.9970000  0  5G 2G 6G13G15G19
  20090488.7204   -8203800.19348  -6220794.33063
  19863535.993   -17246232.794 7 -13438608.65423
  21168713.634   -13230021.349 6  -9927462.05921
  22926426.6494   -4785123.70046  -3594686.41061
  23403427.946    10895605.281 4   8490040.29621
 91  5  3 22 44 59.9970000  0  5G 2G 6G13G15G19
  20090244.6184   -8205085.10248  -6221795.56663
  19859373.204   -17268098.731 7 -13455647.03423
  21157739.993   -13287683.932 6  -9972393.83021
  22924187.564    -4796903.309 6  -3603865.28521
  23410251.204    10931448.392 4   8517969.80421
 91  5  3 22 45 14.9970000  0  5G 2G 6G13G15G19
  20090007.5714   -8206324.13248  -6222761.05463
  19855228.8454  -17289881.39747 -13472620.52763
  21146785.821   -13345251.293 6 -10017251.40121
  22921965.314    -4808550.576 6  -3612941.04421
  23417079.618    10967333.149 4   8545931.78221
 91  5  3 22 45 29.9970000  0  5G 2G 6G13G15G19
  20089782.103    -8207517.028 8  -6223690.59423
  19851099.048   -17311580.239 7 -13489528.70523
  21135849.220   -13402722.808 6 -10062034.29221
  22919777.4544   -4820065.26546  -3621913.50361
  23423919.3144   11003259.52644   8573926.16761
 91  5  3 22 45 44.9970000  0  5G 2G 6G13G15G19
  20089563.3534   -8208666.08148  -6224585.96763
  19846985.0484  -17333197.45947 -13506373.28163
  21124930.4464  -13460100.51246 -10106744.07761
  22917608.251    -4831449.503 6  -3630784.30721
  23430762.6104   11039224.80244   8601950.88561
 91  5  3 22 45 59.9970000  0  5G 2G 6G13G15G19
  20089351.728    -8209776.586 8  -6225451.30623
  19842887.2434  -17354737.99447 -13523158.09963
  21114028.689   -13517389.473 6 -10151384.71521
  22915468.0794   -4842708.55046  -3639557.56061
  23437612.657    11075223.776 4   8630001.85221
 91  5  3 22 46 14.9970000  0  5G 2G 6G13G15G19
  20089148.353    -8210845.429 8  -6226284.18123
  19838804.2044  -17376198.35547 -13539880.45463
  21103145.3064  -13574586.18646 -10195953.47561
  22913352.407    -4853839.187 6  -3648230.76221
  23444469.2514   11111259.48944   8658081.44361
 91  5  3 22 46 29.9970000  0  5G 2G 6G13G15G19
  20088953.017    -8211869.397 8  -6227082.08823
  19834735.1344  -17397575.24547 -13556537.76563
  21092277.931   -13631686.786 6 -10240447.33521
  22911259.962    -4864838.015 6  -3656801.22221
  23451336.048    11147334.963 4   8686192.02321
 91  5  3 22 46 44.9970000  0  5G 2G 6G13G15G19
  20088766.196    -8212852.271 8  -6227847.97523
  19830682.0484  -17418871.97947 -13573132.61463
  21081430.735   -13688694.920 6 -10284869.15421
  22909187.579    -4875708.815 5  -3665271.96621
  23458202.3764   11183446.53444   8714330.74561
 91  5  3 22 46 59.9970000  0  5G 2G 6G13G15G19
  20088588.079    -8213790.776 8  -6228579.28823
  19826644.5404  -17440084.97647 -13589662.21563
  21070600.532   -13745607.065 6 -10329216.16721
  22907144.048    -4886447.936 6  -3673640.09521
  23465083.4314   11219597.18144   8742499.89361
 91  5  3 22 47 14.9970000  0  5G 2G 6G13G15G19
  20088418.5014   -8214687.31048  -6229277.89763
  19822625.1494  -17461216.42147 -13606128.27063
  21059787.290   -13802425.130 6 -10373489.87621
  22905131.8994   -4897057.49746  -3681907.23861
  23471974.8214   11255784.48344   8770697.60961
 91  5  3 22 47 29.9970000  0  5G 2G 6G13G15G19
  20088254.4074   -8215533.58348  -6229937.34263
  19818621.2434  -17482257.69647 -13622524.06263
  21048995.7904  -13859140.62746 -10417683.65661
  22903133.2984   -4907529.19046  -3690066.96561
  23478867.2124   11292016.68544   8798930.34861
 91  5  3 22 47 44.9970000  0  5G 2G 6G13G15G19
  20088102.681    -8216334.710 8  -6230561.60623
  19814633.3924  -17503213.56347 -13638853.29863
  21038220.6894  -13915758.12846 -10461801.08861
  22901163.7434   -4917867.98046  -3698123.13961
  23485770.7904   11328288.73444   8827194.06861
 91  5  3 22 47 59.9970000  0  5G 2G 6G13G15G19
  20087957.884    -8217093.084 8  -6231152.55623
  19810662.2744  -17524086.30647 -13655117.76663
  21027465.829   -13972279.637 6 -10505843.70421
  22899221.985    -4928076.379 6  -3706077.71721
  23492681.9854   11364598.12944   8855486.94661
 91  5  3 22 48 14.9970000  0  5G 2G 6G13G15G19
  20087822.939    -8217807.626 8  -6231709.35223
  19806705.8144  -17544874.47347 -13671316.32963
  21016727.540   -14028703.661 6 -10549810.37321
  22897307.3064   -4938152.97246  -3713929.57861
  23499598.501    11400945.721 4   8883809.53921
 91  5  3 22 48 29.9970000  0  5G 2G 6G13G15G19
  20087695.6964   -8218480.12848  -6232233.39063
  19802764.8064  -17565579.64347 -13687450.22163
  21006009.821   -14085031.557 6 -10593702.13221
  22895414.087    -4948099.263 6  -3721679.91721
  23506518.9464   11437329.63944   8912160.47061
 91  5  3 22 48 44.9970000  0  4G 2G 6G13G15
  20087575.5794   -8219113.16948  -6232726.67863
  19798841.4544  -17586203.97647 -13703521.12263
  20995307.7984  -14141265.81146 -10637520.92161
  22893548.3924   -4957917.91246  -3729330.78061
 91  5  3 22 48 59.9970000  0  4G 2G 6G13G15
  20087464.6264   -8219701.46148  -6233185.10163
  19794932.8144  -17606742.23247 -13719524.95063
  20984625.7044  -14197401.07646 -10681262.57261
  22891705.204    -4967603.843 6  -3736878.22421
 91  5  3 22 49 14.9970000  0  4G 2G 6G13G15
  20087360.821    -8220244.497 8  -6233608.25423
  19791040.8534  -17627193.45247 -13735460.95763
  20973962.665   -14253436.371 6 -10724926.33521
  22889888.196    -4977156.498 6  -3744321.83421
 91  5  3 22 49 29.9970000  0  4G 2G 6G13G15
  20087263.399    -8220744.617 8  -6233997.96923
  19787164.9544  -17647559.74347 -13751330.78863
  20963319.571   -14309373.652 6 -10768513.72121
  22888096.282    -4986578.030 6  -3751663.27021
 91  5  3 22 49 44.9970000  0  4G 2G 6G13G15
  20087179.993    -8221201.599 8  -6234354.07123
  19783305.1344  -17667840.70547 -13767134.12763
  20952692.345   -14365212.359 6 -10812024.29121
  22886322.6104   -4995867.92646  -3758902.13161
 91  5  3 22 49 59.9970000  0  4G 2G 6G13G15
  20087100.235    -8221623.001 8  -6234682.45123
  19779460.1654  -17688043.62647 -13782876.65863
  20942084.009   -14420959.720 6 -10855463.69321
  22884581.6344   -5005033.64346  -3766044.21461
 91  5  3 22 50 14.9970000  0  4G 2G 6G13G15
  20087028.462    -8221998.536 8  -6234975.08723
  19775633.1344  -17708157.78447 -13798550.02263
  20931494.298   -14476605.097 6 -10898823.62121
  22882865.860    -5014064.670 6  -3773081.34321
 91  5  3 22 50 29.9970000  0  4G 2G 6G13G15
  20086963.040    -8222332.147 8  -6235235.05923
  19771822.1574  -17728186.93947 -13814157.15363
  20920923.860   -14532151.994 6 -10942106.80821
  22881167.696    -5022964.939 6  -3780016.60821
 91  5  3 22 50 44.9970000  0  4G 2G 6G13G15
  20086905.790    -8222623.778 8  -6235462.31823
  19768027.6424  -17748130.78347 -13829697.80663
  20910372.009   -14587600.383 6 -10985313.24121
  22879499.9704   -5031734.27846  -3786849.80761
 91  5  3 22 50 59.9970000  0  4G 2G 6G13G15
  20086859.267    -8222875.262 8  -6235658.29423
  19764247.0094  -17767990.94947 -13845173.25463
  20899839.2284  -14642951.60646 -11028443.96561
  22877846.0714   -5040374.56446  -3793582.47461
 91  5  3 22 51 14.9970000  0  4G 2G 6G13G15
  20086820.798    -8223082.730 8  -6235819.97023
  19760484.6964  -17787763.13047 -13860580.14563
  20889326.196   -14698201.077 6 -11071495.39921
  22876233.9624   -5048881.72046  -3800211.39361
 91  5  3 22 51 29.9970000  0  4G 2G 6G13G15
  20086787.696    -8223247.889 8
  19756740.1104  -17807448.64847 -13875919.50763
  20878830.626   -14753350.285 6 -11114468.70621
  22874640.8144   -5057257.25546  -3806737.74361
 91  5  3 22 51 44.9970000  0  4G 2G 6G13G15
  20086765.993    -8223372.556 8
  19753009.1034  -17827049.17747 -13891192.64263
  20868355.0714  -14808400.92246 -11157365.20961
  22873073.4394   -5065503.17546  -3813163.11061
 91  5  3 22 51 59.9970000  0  4G 2G 6G13G15
  20086747.954    -8223458.650 8
  19749294.9704  -17846566.50247 -13906400.94363
  20857897.9394  -14863354.54046 -11200186.11361
  22871520.3764   -5073621.02845  -3819488.68061
 91  5  3 22 52 14.9970000  0  4G 2G 6G13G15
  20086741.329    -8223503.188 8
  19745597.7044  -17865997.23247 -13921541.76763
  20847459.3994  -14918207.97446 -11242928.95161
  22870007.5404   -5081607.86146  -3825712.16461
 91  5  3 22 52 29.9970000  0  4G 2G 6G13G15
  20086738.806    -8223512.485 8
  19741914.5484  -17885347.63247 -13936619.99763
  20837039.5324  -14972967.11646 -11285598.31561
  22868511.6574   -5089470.07846  -3831838.54061
 91  5  3 22 52 44.9970000  0  4G 2G 6G13G15
  20086744.728    -8223477.273 8
  19738250.8294  -17904608.05947 -13951628.11563
  20826637.7744  -15027622.47046 -11328186.80961
  22867037.806    -5097198.260 5  -3837860.45621
 91  5  3 22 52 59.9970000  0  4G 2G 6G13G15
  20086762.298    -8223395.870 8
  19734601.0714  -17923776.62447 -13966564.65563
  20816258.3144  -15082172.17146 -11370692.97461
  22865597.782    -5104790.368 6  -3843776.36521
 91  5  3 22 53 14.9970000  0  4G 2G 6G13G15
  20086783.017    -8223269.718 8
  19730972.6104  -17942854.56947 -13981430.58163
  20805897.7354  -15136617.43946 -11413117.75461
  22864178.603    -5112248.167 6  -3849587.58921
 91  5  3 22 53 29.9970000  0  4G 2G 6G13G15
  20086816.8214   -8223102.32248
  19727357.7594  -17961845.00447 -13996228.31863
  20795556.9934  -15190961.02546 -11455463.31061
  22862781.681    -5119574.780 5  -3855296.62021
 91  5  3 22 53 44.9970000  0  4G 2G 6G13G15
  20086854.0874   -8222895.20448
  19723761.7434  -17980749.11847 -14010958.79363
  20785234.9234  -15245204.21346 -11497730.63561
  22861417.5174   -5126771.67346  -3860904.56461
 91  5  3 22 53 59.9970000  0  4G 2G 6G13G15
  20086902.3214   -8222643.87148  -6235478.13563
  19720181.5714  -17999562.23947 -14025618.35963
  20774931.8064  -15299342.34246 -11539916.09661
  22860069.8214   -5133834.28045  -3866407.85561
 91  5  3 22 54 14.9970000  0  4G 2G 6G13G15
  20086960.2284   -8222351.90248  -6235250.63963
  19716616.3764  -18018287.89947 -14040209.77863
  20764650.1424  -15353378.68646 -11582022.24661
  22858755.5094   -5140766.25046  -3871809.37061
 91  5  3 22 54 29.9970000  0  4G 2G 6G13G15
  20087023.5244   -8222021.23248  -6234992.98563
  19713071.0404  -18036927.56447 -14054734.18563
  20754385.5094  -15407314.89246 -11624050.36561
  22857449.7744   -5147569.36845  -3877110.46861
 91  5  3 22 54 44.9970000  0  4G 2G 6G13G15
  20087092.3924   -8221647.95248  -6234702.12563
  19709541.8764  -18055477.06047 -14069188.33063
  20744141.2124  -15461146.77946 -11665997.19561
  22856188.2904   -5154239.69945  -3882308.09761
 91  5  3 22 54 59.9970000  0  4G 2G 6G13G15
  20087175.0954   -8221229.53048  -6234376.08663
  19706027.3994  -18073933.53947 -14083569.99463
  20733917.3994  -15514871.25546 -11707860.33061
  22854942.681    -5160774.387 5  -3887400.02921
 91  5  3 22 55 14.9970000  0  4G 2G 6G13G15
  20087260.7124   -8220765.76348  -6234014.71963
  19702533.4934  -18092296.62147 -14097878.87863
  20723713.9394  -15568488.00246 -11749639.52361
  22853719.6494   -5167173.48945  -3892386.31261
 91  5  3 22 55 29.9970000  0  4G 2G 6G13G15
  20087358.3604   -8220263.35248  -6233623.23663
  19699056.532   -18110572.824 7 -14112120.06523
  20713530.6814  -15622003.40246 -11791339.74361
  22852528.7354   -5173443.49845  -3897272.01961
 91  5  3 22 55 44.9970000  0  4G 2G 6G13G15
  20087460.0484   -8219718.09548  -6233198.37163
  19695596.274   -18128757.729 7 -14126290.10923
  20703367.8454  -15675412.86246 -11832957.40961
  22851362.884    -5179580.259 5  -3902053.87621
 91  5  3 22 55 59.9970000  0  4G 2G 6G13G15
  20087572.3764   -8219131.43948  -6232741.24163
  19692152.564   -18146852.540 7 -14140389.94823
  20693224.5484  -15728717.73146 -11874493.58361
  22850225.5564   -5185585.22845  -3906733.04761
 91  5  3 22 56 14.9970000  0  4G 2G 6G13G15
  20087692.6964   -8218506.54348  -6232254.31763
  19688726.134   -18164859.978 7 -14154421.70723
  20683098.4934  -15781920.56546 -11915950.24361
  22849103.259    -5191461.405 6  -3911311.85721
 91  5  3 22 56 29.9970000  0  4G 2G 6G13G15
  20087817.1734   -8217841.12048  -6231735.81263
  19685316.0484  -18182777.60147 -14168383.48163
  20672994.9464  -15835019.00146 -11957325.55561
  22848008.1574   -5197206.68445  -3915788.67361
 91  5  3 22 56 44.9970000  0  4G 2G 6G13G15
  20087953.0874   -8217130.94548  -6231182.43563
  19681924.087   -18200600.992 7 -14182271.82523
  20662911.3294  -15888008.62446 -11998616.08261
  22846938.532    -5202816.728 5  -3920160.11721
 91  5  3 22 56 59.9970000  0  4G 2G 6G13G15
  20088096.9704   -8216376.63248  -6230594.66563
  19678550.423   -18218330.475 7 -14196086.99523
  20652848.6494  -15940889.59846 -12039821.94161
  22845898.759    -5208291.804 5  -3924426.37921
 91  5  3 22 57 14.9970000  0  4G 2G 6G13G15
  20088247.6104   -8215581.28148  -6229974.91763
  19675194.5564  -18235968.97947 -14209831.27163
  20642805.4934  -15993664.77946 -12080945.36561
  22844883.282    -5213634.947 5  -3928589.84921
 91  5  3 22 57 29.9970000  0  4G 2G 6G13G15
  20088408.1494   -8214735.92148  -6229316.20163
  19671856.946   -18253507.049 7 -14223497.29123
  20632784.9854  -16046324.88746 -12121979.12461
  22843890.142    -5218837.327 5  -3932643.64021
 91  5  3 22 57 44.9970000  0  4G 2G 6G13G15
  20088576.9784   -8213848.13348  -6228624.42363
  19668538.1034  -18270952.11347 -14237090.83463
  20622784.4704  -16098876.91846 -12162928.67161
  22842930.7204   -5223906.00245  -3936593.21561
 91  5  3 22 57 59.9970000  0  4G 2G 6G13G15
  20088754.9074   -8212919.99348  -6227901.20363
  19665235.5794  -18288305.98847 -14250613.32463
  20612804.2984  -16151322.93846 -12203795.60461
  22841988.9464   -5228843.31745  -3940440.46661
 91  5  3 22 58 14.9970000  0  4G 2G 6G13G15
  20088939.4234   -8211948.53948  -6227144.23363
  19661950.6494  -18305565.52047 -14264062.30163
  20602844.9934  -16203659.77246 -12244577.46361
  22841081.603    -5233646.323 5  -3944183.03821
 91  5  3 22 58 29.9970000  0  4G 2G 6G13G15
  20089131.5714   -8210935.27648  -6226354.68063
  19658683.0644  -18322731.95447 -14277438.73063
  20592906.1104  -16255888.54046 -12285275.11761
  22840187.040    -5238316.498 5  -3947822.11421
 91  5  3 22 58 44.9970000  0  4G 2G 6G13G15
  20089332.3064   -8209885.53348  -6225536.70463
  19655432.7824  -18339810.33347 -14290746.55263
  20582986.4154  -16308014.34046 -12325892.52861
  22839315.6964   -5242859.06845  -3951361.75761
 91  5  3 22 58 59.9970000  0  4G 2G 6G13G15
  20089539.3294   -8208790.17748  -6224683.18363
  19652202.0014  -18356791.35547 -14303978.50963
  20573089.1494  -16360027.57847 -12366422.23761
  22838489.079    -5247264.848 5  -3954794.81121
 91  5  3 22 59 14.9970000  0  4G 2G 6G13G15
  20089756.4074   -8207653.59048  -6223797.53963
  19648988.7984  -18373679.12047 -14317137.79863
  20563211.6494  -16411932.58447 -12406867.60261
  22837669.618    -5251538.328 5  -3958124.77021
 91  5  3 22 59 29.9970000  0  4G 2G 6G13G15
  20089981.1034   -8206476.25348  -6222880.13363
  19645791.8994  -18390473.91747 -14330224.64363
  20553354.392   -16463729.447 7 -12447228.71121
  22836886.618    -5255679.942 5  -3961351.98421
 91  5  3 22 59 44.9970000  0  4G 2G 6G13G15
  20090213.1574   -8205254.00648  -6221927.74663
  19642616.7044  -18407171.29147 -14343235.57763
  20543519.587   -16515413.785 7 -12487502.13321
  22836118.564    -5259685.586 5  -3964473.24821
 91  5  3 22 59 59.9970000  0  4G 2G 6G13G15
  20090455.0244   -8203982.40548  -6220936.89463
  19639456.8534  -18423766.69047 -14356167.04963
  20533706.4784  -16566980.82647 -12527684.15461
  22835388.134    -5263550.745 5  -3967485.04721
 91  5  3 23  0 14.9970000  0  4G 2G 6G13G15
  20090704.5714   -8202668.06648  -6219912.74563
  19636318.1654  -18440266.29647 -14369023.87663
  20523914.696   -16618436.794 7 -12567779.62421
  22834677.0324   -5267281.82545  -3970392.34261
 91  5  3 23  0 29.9970000  0  4G 2G 6G13G15
  20090962.7984   -8201312.19548  -6218856.22363
  19633195.6734  -18456671.16147 -14381806.88263
  20514144.1424  -16669782.59547 -12607789.25461
  22833986.142    -5270880.068 5  -3973196.15821
 91  5  3 23  0 44.9970000  0  4G 2G 6G13G15
  20091228.3684   -8199914.06148  -6217766.77363
  19630091.9234  -18472980.35447 -14394515.33863
  20504394.821   -16721017.548 7 -12647712.51121
  22833314.8604   -5274344.74845  -3975895.88361
 91  5  3 23  0 59.9970000  0  4G 2G 6G13G15
  20091503.5714   -8198472.63848  -6216643.59263
  19627007.6654  -18489192.44547 -14407148.13263
  20494665.314   -16772140.009 7 -12687548.11121
  22832690.6344   -5277674.72945  -3978490.64961
 91  5  3 23  1 14.9970000  0  4G 2G 6G13G15
  20091784.4394   -8196996.12448  -6215493.06763
  19623939.1264  -18505315.67347 -14419711.67863
  20484957.032   -16823158.098 7 -12727302.38121
  22832085.4234   -5280878.44945  -3980987.02561
 91  5  3 23  1 29.9970000  0  4G 2G 6G13G15
  20092074.2824   -8195474.68648  -6214307.54163
  19620889.1654  -18521339.74947 -14432197.96563
  20475270.696   -16874061.589 7 -12766967.36021
  22831501.7514   -5283946.01845  -3983377.31961
 91  5  3 23  1 44.9970000  0  4G 2G 6G13G15
  20092372.1184   -8193909.53148  -6213087.94763
  19617860.2904  -18537265.75547 -14444607.83563
  20465606.220   -16924851.433 7 -12806543.77621
  22830946.4074   -5286878.68945  -3985662.48361
 91  5  3 23  1 59.9970000  0  4G 2G 6G13G15
  20092677.0954   -8192304.36148  -6211837.17263
  19614846.4704  -18553097.08047 -14456943.92863
  20455961.3454  -16975531.25547 -12846034.45761
  22830410.1734   -5289679.94545  -3987845.26761
 91  5  3 23  2 14.9970000  0  4G 2G 6G13G15
  20092990.7354   -8190659.66648  -6210555.60163
  19611851.4934  -18568834.01147 -14469206.46663
  20446338.884   -17026101.203 7 -12885439.53121
  22829905.540    -5292350.333 5  -3989926.04821
 91  5  3 23  2 29.9970000  0  4G 2G 6G13G15
  20093312.0564   -8188972.93148  -6209241.27163
  19608876.0564  -18584473.59147 -14481393.14763
  20436736.298   -17076558.372 7 -12924756.72321
  22829420.9314   -5294886.93745  -3991902.61761
 91  5  3 23  2 44.9970000  0  4G 2G 6G13G15
  20093639.9544   -8187245.10948  -6207894.92763
  19605917.5014  -18600016.81747 -14493504.75163
  20427156.642   -17126903.862 7 -12963986.89521
  22828962.978    -5297291.111 5  -3993775.97321
 91  5  3 23  2 59.9970000  0  4G 2G 6G13G15
  20093975.0094   -8185481.02348  -6206520.32463
  19602978.0564  -18615468.40547 -14505544.94563
  20417596.267   -17177141.971 7 -13003133.39721
  22828533.8534   -5299567.71445  -3995549.91761
 91  5  3 23  3 14.9970000  0  4G 2G 6G13G15
  20094319.4704   -8183675.94148  -6205113.77463
  19600054.7434  -18630823.23747 -14517509.74463
  20408057.517   -17227267.544 7 -13042192.20521
  22828118.204    -5301711.683 5  -3997220.52621
 91  5  3 23  3 29.9970000  0  4G 2G 6G13G15
  20094671.1734   -8181827.25048  -6203673.24563
  19597152.2354  -18646078.28647 -14529396.79363
  20398541.603   -17277277.583 7 -13081160.98621
  22827742.673    -5303720.565 5  -3998785.87221
 91  5  3 23  3 44.9970000  0  4G 2G 6G13G15
  20095031.7824   -8179937.20348  -6202200.49163
  19594267.5174  -18661235.63947 -14541207.71763
  20389045.728   -17327174.273 7 -13120041.44321
  22827380.556    -5305596.606 5  -4000247.67321
 91  5  3 23  3 59.9970000  0  4G 2G 6G13G15
  20095398.790    -8178006.260 8  -6200695.87423
  19591401.5794  -18676295.56847 -14552942.72863
  20379571.837   -17376957.981 7 -13158833.86521
  22827055.7904   -5307340.27146  -4001606.38061
 91  5  3 23  4 14.9970000  0  4G 2G 6G13G15
  20095774.9394   -8176029.94748  -6199155.89963
  19588556.0324  -18691253.44547 -14564598.20863
  20370121.103   -17426624.048 7 -13197534.61921
  22826750.7744   -5308947.34946  -4002858.61761
 91  5  3 23  4 29.9970000  0  4G 2G 6G13G15
  20096160.017    -8174010.573 8  -6197582.37723
  19585728.0714  -18706111.29447 -14576175.75063
  20360691.853   -17476174.318 7 -13236145.14421
  22826464.3844   -5310419.94745  -4004006.07861
 91  5  3 23  4 44.9970000  0  4G 2G 6G13G15
  20096553.306    -8171942.701 8  -6195971.06123
  19582920.7824  -18720863.57247 -14587671.02963
  20351286.329   -17525603.027 7 -13274660.94221
  22826214.212    -5311752.710 6  -4005044.57721
 91  5  3 23  4 59.9970000  0  4G 2G 6G13G15
  20096954.228    -8169829.372 8  -6194324.32524
  19580133.3764  -18735512.97047 -14599086.14163
  20341902.118   -17574913.012 7 -13313084.23121
  22825986.7044   -5312948.55746  -4005976.39061
 91  5  3 23  5 14.9970000  0  4G 2G 6G13G15
  20097363.3534   -8167675.10948  -6192645.69064
  19577365.1574  -18750063.72847 -14610424.38763
  20332540.931   -17624108.464 7 -13351418.27421
  22825785.4544   -5314011.93945  -4006804.97261
 91  5  3 23  5 29.9970000  0  4G 2G 6G13G15
  20097781.517    -8165480.887 8  -6190935.92123
  19574615.3534  -18764516.83147 -14621686.54463
  20323200.681   -17673190.328 7 -13389663.80521
  22825608.610    -5314943.871 5  -4007531.14421
 91  5  3 23  5 44.9970000  0  4G 2G 6G13G15
  20098207.3374   -8163241.39148  -6189190.87263
  19571883.4544  -18778866.58647 -14632868.16963
  20313884.173   -17722152.991 7 -13427816.45621
  22825452.353    -5315739.234 5  -4008150.87921
 91  5  3 23  5 59.9970000  0  4G 2G 6G13G15
  20098641.837    -8160958.833 8  -6187412.27023
  19569172.1814  -18793115.07847 -14643970.88663
  20304588.064   -17770998.461 7 -13465877.78421
  22825326.1894   -5316400.12645  -4008665.86461
 91  5  3 23  6 14.9970000  0  4G 2G 6G13G15
  20099084.6494   -8158634.44748  -6185601.07263
  19566481.0874  -18807263.10147 -14654995.32162
  20295315.157   -17819727.631 7 -13503848.49021
  22825226.7744   -5316927.78045  -4009077.01261
 91  5  3 23  6 29.9970000  0  4G 2G 6G13G15
  20099534.915    -8156268.444 8  -6183757.44623
  19563807.1654  -18821310.76547 -14665941.55463
  20286064.314   -17868340.419 7 -13541728.51221
  22825148.0014   -5317322.37645  -4009384.45061
 91  5  3 23  6 44.9970000  0  4G 2G 6G13G15
  20099992.689    -8153863.551 8  -6181883.51723
  19561151.5404  -18835260.64547 -14676811.58763
  20276835.235   -17916839.132 7 -13579519.64521
  22825099.6654   -5317586.77445  -4009590.47561
 91  5  3 23  6 59.9970000  0  4G 2G 6G13G15
  20100458.642    -8151412.044 8  -6179973.26524
  19558519.2674  -18849104.63347 -14687599.10863
  20267629.337   -17965216.131 7 -13617215.93521
  22825082.243    -5317713.511 5
 91  5  3 23  7 14.9970000  0  4G 2G 6G13G15
  20100935.329    -8148916.359 8  -6178028.59123
  19555902.4854  -18862845.01347 -14698305.89963
  20258446.571   -18013473.557 7 -13654819.05021
  22825070.962    -5317704.714 5
 91  5  3 23  7 29.9970000  0  4G 2G 6G13G15
  20101416.665    -8146378.392 8  -6176050.96523
  19553308.8924  -18876483.55647 -14708933.33463
  20249285.696   -18061612.966 7 -13692330.20021
  22825107.743    -5317562.399 5
 91  5  3 23  7 44.9970000  0  4G 2G 6G13G15
  20101908.001    -8143806.226 8  -6174046.69523
  19550730.0644  -18890027.99047 -14719487.44063
  20240146.7824  -18109642.08347 -13729755.41761
  22825157.9544   -5317294.62145
 91  5  3 23  7 59.9970000  0  4G 2G 6G13G15
  20102403.8604   -8141190.02448  -6172008.10363
  19548174.2594  -18903468.34747 -14729960.44363
  20231029.423   -18157551.143 7 -13767087.07621
  22825236.720    -5316891.673 5  -4009048.77021
 91  5  3 23  8 14.9970000  0  4G 2G 6G13G15
  20102909.634    -8138533.789 8  -6169938.32123
  19545634.8604  -18916808.59847 -14740355.44562
  20221934.329   -18205344.088 7 -13804328.26121
  22825331.7514   -5316357.67045  -4008632.66361
 91  5  3 23  8 29.9970000  0  4G 2G 6G13G15
  20103423.8604   -8135835.43748  -6167835.72163
  19543115.8924  -18930046.35347 -14750670.57963
  20212862.728   -18253018.187 7 -13841476.83721
  22825465.243    -5315690.419 5  -4008112.71421
 91  5  3 23  8 44.9970000  0  4G 2G 6G13G15
  20103944.2984   -8133095.95748  -6165701.07364
  19540616.3374  -18943182.23547 -14760906.33663
  20203812.7354  -18300574.30247 -13878533.47961
  22825613.5644   -5314891.05745  -4007489.81961
 91  5  3 23  8 59.9970000  0  4G 2G 6G13G15
  20104475.5094   -8130310.13548  -6163530.31063
  19538136.2354  -18956211.00347 -14771058.62163
  20194786.2984  -18348007.04247 -13915493.98561
  22825797.110    -5313954.289 5  -4006759.87121
 91  5  3 23  9 14.9970000  0  4G 2G 6G13G15
  20105013.9464   -8127477.92048  -6161323.39764
  19535676.5094  -18969132.25547 -14781127.12762
  20185783.7674  -18395316.32747 -13952358.29861
  22825998.3454   -5312880.02745  -4005922.74361
 91  5  3 23  9 29.9970000  0  4G 2G 6G13G15
  20105561.0404   -8124601.55148  -6159082.08264
  19533239.4154  -18981948.01747 -14791113.43463
  20176804.767   -18442503.724 7 -13989127.62321
  22826223.0874   -5311670.53345  -4004980.28761
 91  5  3 23  9 44.9960000  0  4G 2G 6G13G15
  20106115.4344   -8121691.14348  -6156814.24363
  19530819.4184  -18994667.29247 -14801024.55762
  20167846.4264  -18489576.26347 -14025807.45561
  22826478.4344   -5310336.00145  -4003940.36461
 91  5  3 23  9 59.9960000  0  4G 2G 6G13G15
  20106676.8324   -8118737.93048  -6154513.04564
  19528418.7464  -19007283.04547 -14810855.01062
  20158911.738   -18536531.461 7 -14062395.85021
  22826756.0434   -5308867.77345  -4002796.28161
 91  5  3 23 10 14.9960000  0  4G 2G 6G13G15
  20107246.1914   -8115745.85148  -6152181.56763
  19526037.5904  -19019798.09147 -14820606.99463
  20149998.9884  -18583369.70747 -14098893.12061
  22827066.2854   -5307269.84845  -4001551.13761
 91  5  3 23 10 29.9960000  0  4G 2G 6G13G15
  20107822.1764   -8112715.70948  -6149820.42563
  19523673.8094  -19032212.99047 -14830280.94162
  20141108.1064  -18630091.51847 -14135299.65461
  22827398.590    -5305543.281 5  -4000205.75021
 91  5  3 23 10 44.9960000  0  4G 2G 6G13G15
  20108407.996    -8109640.033 8  -6147423.80923
  19521332.6764  -19044519.91947 -14839870.75662
  20132239.4574  -18676689.09847 -14171609.38661
  22827748.199    -5303680.267 5  -3998754.01521
 91  5  3 23 10 59.9960000  0  4G 2G 6G13G15
  20109002.7464   -8106520.11648  -6144992.71263
  19519010.2384  -19056720.10347 -14849377.39262
  20123396.168   -18723163.633 7 -14207823.23921
  22828123.3324   -5301682.29045  -3997197.13861
 91  5  3 23 11 14.9960000  0  4G 2G 6G13G15
  20109603.207    -8103357.985 8  -6142528.72924
  19516709.1454  -19068815.37547 -14858802.27662
  20114575.4024  -18769516.91647 -14243942.61461
  22828536.8794   -5299551.57445  -3995536.82261
 91  5  3 23 11 29.9960000  0  4G 2G 6G13G15
  20110214.0594   -8100149.22648  -6140028.40664
  19514427.8874  -19080801.18547 -14868141.86763
  20105778.6524  -18815744.34247 -14279963.91861
  22828965.496    -5297283.749 5  -3993769.67321
 91  5  3 23 11 44.9960000  0  4G 2G 6G13G15
  20110832.020    -8096903.503 8  -6137499.28424
  19512165.7464  -19092686.73647 -14877403.33563
  20097003.1684  -18861855.31447 -14315894.48061
  22829414.9734   -5294888.20745  -3991903.01761
 91  5  3 23 11 59.9960000  0  4G 2G 6G13G15
  20111457.5984   -8093619.41948  -6134940.26864
  19509922.5434  -19104470.51947 -14886585.50362
  20088251.1524  -18907848.28147 -14351733.09461
  22829906.363    -5292363.647 5  -3989935.80921
 91  5  3 23 12 14.9960000  0  4G 2G 6G13G15
  20112090.4184   -8090290.36748  -6132346.21163
  19507701.9654  -19116145.89647 -14895683.19462
  20079523.6684  -18953716.32247 -14387474.36261
  22830410.1764   -5289703.81245  -3987863.17761
 91  5  3 23 12 29.9960000  0  4G 2G 6G13G15
  20112731.0434   -8086922.59348  -6129721.98263
  19505499.6214  -19127718.80647 -14904701.04663
  20070817.2774  -18999465.67647 -14423123.14461
  22830938.3484   -5286915.02245  -3985690.06961
 91  5  3 23 12 44.9960000  0  4G 2G 6G13G15
  20113379.4494   -8083514.95348  -6127066.68864
  19503316.9024  -19139187.95147 -14913638.04062
  20062133.8794  -19045095.07047 -14458678.45661
  22831499.4814   -5283996.01445  -3983415.52161
 91  5  3 23 12 59.9960000  0  4G 2G 6G13G15
  20114036.957    -8080059.873 8  -6124374.42923
  19501156.0594  -19150545.53647 -14922488.10262
  20053475.2074  -19090596.51647 -14494134.06161
  22832073.0984   -5280939.46545  -3981033.77461
 91  5  3 23 13 14.9960000  0  4G 2G 6G13G15
  20114703.0824   -8076556.68048  -6121644.68063
  19499015.7774  -19161790.78947 -14931250.63862
  20044840.7774  -19135969.18247 -14529489.32761
  22832677.7314   -5277744.64245  -3978544.27761
 91  5  3 23 13 29.9960000  0  4G 2G 6G13G15
  20115378.4184   -8073012.45348  -6118882.95463
  19496896.0204  -19172930.46647 -14939930.90162
  20036230.238   -19181219.922 7 -14564749.58821
  22833318.770    -5274418.754 5  -3975952.68221
 91  5  3 23 13 44.9960000  0  4G 2G 6G13G15
  20116059.6684   -8069431.65448
  19494794.8094  -19183968.89547 -14948532.27262
  20027643.246   -19226353.045 7 -14599918.18721
  22833970.551    -5270966.321 5
 91  5  3 23 13 59.9960000  0  4G 2G 6G13G15
  20116749.395    -8065803.970 8
  19492716.1524  -19194895.47447 -14957046.48462
  20019077.9574  -19271357.91647 -14634986.85761
  22834664.223    -5267376.890 5
 91  5  3 23 14 14.9960000  0  4G 2G 6G13G15
  20117448.1914   -8062138.51048  -6110409.78763
  19490656.5274  -19205719.18147 -14965480.53862
  20010535.7774  -19316243.40547 -14669962.50261
  22835360.3714   -5263659.60545  -3967568.88361
 91  5  3 23 14 29.9960000  0  4G 2G 6G13G15
  20118153.637    -8058425.533 8  -6107516.57223
  19488618.3164  -19216430.13047 -14973826.73263
  20002018.9814  -19360999.53047 -14704837.34661
  22836095.4104   -5259805.10645  -3964565.38061
 91  5  3 23 14 44.9960000  0  4G 2G 6G13G15
  20118868.691    -8054671.749 8  -6104591.55723
  19486601.3164  -19227034.74047 -14982090.06062
  19993525.4414  -19405633.13047 -14739616.71861
  22836854.9024   -5255820.13345  -3961460.14461
 91  5  3 23 14 59.9960000  0  4G 2G 6G13G15
  20119591.043    -8050878.375 8  -6101635.69623
  19484602.4734  -19237534.18047 -14990271.43763
  19985054.8014  -19450145.29847 -14774301.46461
  22837638.7774   -5251705.97345  -3958254.32961
 91  5  3 23 15 14.9960000  0  4G 2G 6G13G15
  20120319.481    -8047044.963 8  -6098648.62923
  19482624.4024  -19247927.77947 -14998370.34462
  19976608.2704  -19494535.16247 -14808890.90761
  22838449.7544   -5247462.30345  -3954947.56461
 91  5  3 23 15 29.9960000  0  4G 2G 6G13G15
  20121058.559    -8043165.038 8  -6095625.32723
  19480667.8634  -19258208.90247 -15006381.60862
  19968185.5824  -19538796.32947 -14843380.06761
  22839281.9574   -5243082.53945  -3951534.75261
 91  5  3 23 15 44.9960000  0  4G 2G 6G13G15
  20121805.543    -8039239.105 8  -6092566.17523
  19478732.1684  -19268377.74047 -15014305.37762
  19959787.7384  -19582928.86147 -14877768.99661
  22840134.0514   -5238567.19645  -3948016.28961
 91  5  3 23 15 59.9960000  0  4G 2G 6G13G15
  20122561.902    -8035265.069 8  -6089469.53623
  19476819.3954  -19278432.10347 -15022139.94362
  19951415.0204  -19626930.52347 -14912055.94861
  22841024.4574   -5233914.65645  -3944390.93661
 91  5  3 23 16 14.9960000  0  4G 2G 6G13G15
  20123326.566    -8031246.985 8  -6086338.57423
  19474926.9814  -19288375.78547 -15029888.26663
  19943064.9264  -19670805.13247 -14946243.90261
  22841931.1914   -5229128.80745  -3940661.68361
 91  5  3 23 16 29.9960000  0  4G 2G 6G13G15
  20124098.652    -8027185.253 8  -6083173.60323
  19473055.8794  -19298209.08047 -15037550.57462
  19934740.3014  -19714552.82247 -14980332.95061
  22842870.5664   -5224210.08845  -3936828.92361
 91  5  3 23 16 44.9960000  0  4G 2G 6G13G15
  20124880.863    -8023081.358 8  -6079975.77523
  19471205.8164  -19307933.18047 -15045127.79462
  19926438.7544  -19758174.77247 -15014324.02561
  22843833.9184   -5219160.19345  -3932893.94261
 91  5  3 23 16 59.9960000  0  4G 2G 6G13G15
  20125667.941    -8018939.863 8  -6076748.64723
  19469374.6134  -19317552.76447 -15052623.57663
  19918161.348   -19801675.695 7 -15048220.78821
  22844810.887    -5213983.651 5  -3928860.28921
 91  5  3 23 17 14.9960000  0  4G 2G 6G13G15
  20126464.191    -8014755.544 8  -6073488.14923
  19467564.9964  -19327062.12647 -15060033.47063
  19909907.4574  -19845049.88747 -15082018.80461
  22845827.074    -5208675.528 5  -3924724.07121
 91  5  3 23 17 29.9960000  0  4G 2G 6G13G15
  20127268.691    -8010525.336 8  -6070191.89823
  19465777.1604  -19336458.02247 -15067354.94863
  19901678.6214  -19888294.20847 -15115715.62361
  22846862.0354   -5203232.58445  -3920482.81361
 91  5  3 23 17 44.9960000  0  4G 2G 6G13G15
  20128083.324    -8006247.072 8  -6066858.19723
  19464011.7544  -19345738.37047 -15074586.39063
  19893473.895   -19931406.607 7 -15149309.64621
  22847927.606    -5197653.082 5  -3916135.14821
 91  5  3 23 17 59.9960000  0  4G 2G 6G13G15
  20128907.106    -8001923.199 8  -6063488.95923
  19462267.0984  -19354905.36547 -15081729.50563
  19885294.895   -19974389.140 7 -15182802.47121
  22849010.035    -5191939.621 5  -3911683.08921
 91  5  3 23 18 14.9960000  0  4G 2G 6G13G15
  20129737.7074   -7997554.07048  -6060084.45263
  19460544.9104  -19363958.98847 -15088784.27962
  19877139.9344  -20017242.19747 -15216194.40861
  22850126.6064   -5186092.44545  -3907126.85761
 91  5  3 23 18 29.9960000  0  4G 2G 6G13G15
  20130578.3954   -7993141.72048  -6056646.26663
  19458843.9414  -19372901.25847 -15095752.28563
  19869009.2704  -20059967.58847 -15249486.86461
  22851263.145    -5180113.718 5  -3902468.11121
 91  5  3 23 18 44.9960000  0  4G 2G 6G13G15
  20131425.6374   -7988684.09248  -6053172.80263
  19457163.1994  -19381729.92447 -15102631.76363
  19860904.715   -20102563.057 7 -15282678.08421
  22852422.8954   -5174001.36345  -3897705.21661
 91  5  3 23 18 59.9960000  0  4G 2G 6G13G15
  20132281.957    -7984180.475 8  -6049663.50423
  19455504.6684  -19390444.14847 -15109422.07262
  19852822.723   -20145027.779 7 -15315767.42221
  22853619.4734   -5167754.89945  -3892837.84461
 91  5  3 23 19 14.9960000  0  4G 2G 6G13G15
  20133148.4814   -7979632.63048  -6046119.73963
  19453867.3954  -19399045.67547 -15116124.56162
  19844767.348   -20187363.195 7 -15348756.00721
  22854830.152    -5161376.024 5  -3887867.28521
 91  5  3 23 19 29.9960000  0  4G 2G 6G13G15
  20134023.481    -7975039.758 8  -6042540.88923
  19452252.5044  -19407533.19547 -15122738.21263
  19836735.559   -20229568.403 7 -15381643.12622
  22856068.481    -5154863.989 5  -3882792.99121
 91  5  3 23 19 44.9960000  0  4G 2G 6G13G15
  20134905.2384   -7970404.77348  -6038929.22463
  19450657.9104  -19415909.62447 -15129265.30663
  19828727.496   -20271646.128 7 -15414430.91021
  22857326.9654   -5148222.14045  -3877617.51561
 91  5  3 23 19 59.9960000  0  4G 2G 6G13G15
  20135794.5044   -7965725.44148  -6035283.00263
  19449085.5904  -19424172.55547 -15135703.95663
  19820746.387   -20313594.103 7 -15447117.58821
  22858620.0514   -5141448.32045  -3872339.21161
 91  5  3 23 20 14.9960000  0  4G 2G 6G13G15
  20136694.0824   -7961001.99448  -6031602.40363
  19447535.1764  -19432322.05347 -15142054.22163
  19812788.2464  -20355412.36647 -15479703.19261
  22859928.965    -5134542.718 5  -3866958.23721
 91  5  3 23 20 29.9960000  0  4G 2G 6G13G15
  20137599.4264   -7956239.43848  -6027891.33263
  19446005.3244  -19440362.98347 -15148319.88363
  19804854.332   -20397105.535 7 -15512191.32021
  22861272.496    -5127510.642 5  -3861478.68421
 91  5  3 23 20 44.9960000  0  4G 2G 6G13G15
  20138515.0824   -7951429.61748  -6024143.42963
  19444498.0434  -19448286.87547 -15154494.34762
  19796944.652   -20438665.340 7 -15544575.53821
  22862633.059    -5120343.815 5  -3855894.13121
 91  5  3 23 20 59.9960000  0  4G 2G 6G13G15
  20139436.9414   -7946580.08048  -6020364.57663
  19443011.1294  -19456101.31147 -15160583.52262
  19789060.363   -20480099.490 7 -15576861.83221
  22864028.168    -5113050.147 6  -3850210.78421
 91  5  3 23 21 14.9960000  0  4G 2G 6G13G15
  20140369.8954   -7941685.03148  -6016550.26063
  19441546.0044  -19463800.11147 -15166582.58863
  19781200.926   -20521401.621 7 -15609045.25721
  22865432.184    -5105623.672 5  -3844423.89321
 91  5  3 23 21 29.9960000  0  4G 2G 6G13G15
  20141309.5664   -7936749.08148  -6012704.07763
  19440100.3404  -19471387.96647 -15172495.20563
  19773365.254   -20562576.314 7 -15641129.37522
  22866871.246    -5098069.408 5  -3838537.46821
 91  5  3 23 21 44.9960000  0  4G 2G 6G13G15
  20142255.4024   -7931770.56048  -6008824.71763
  19438679.6134  -19478863.09047 -15178319.98163
  19765555.652   -20603622.145 7 -15673113.08521
  22868338.574    -5090385.921 5  -3832550.32821
 91  5  3 23 21 59.9960000  0  4G 2G 6G13G15
  20143211.9414   -7926748.06248  -6004911.09163
  19437278.8634  -19486223.67247 -15184055.50262
  19757769.941   -20644537.148 7 -15704994.85521
  22869822.0274   -5082571.76745  -3826461.37361
 91  5  3 23 22 14.9960000  0  4G 2G 6G13G15
  20144175.5354   -7921681.82048  -6000963.37863
  19435899.1294  -19493469.96147 -15189701.96262
  19750007.785   -20685321.549 7 -15736774.85221
  22871335.7624   -5074627.39745  -3820270.96161
 91  5  3 23 22 29.9960000  0  4G 2G 6G13G15
  20145148.2544   -7916573.04148  -5996982.52263
  19434542.5274  -19500603.00247 -15195260.18062
  19742272.238   -20725976.521 7 -15768454.00021
  22872871.363    -5066553.873 5  -3813979.92821
 91  5  3 23 22 44.9960000  0  4G 2G 6G13G15
  20146128.6524   -7911420.61148  -5992967.65263
  19433206.8014  -19507621.43347 -15200729.08962
  19734560.160   -20766500.609 7 -15800031.15621
  22874428.3954   -5058350.25845  -3807587.48761
 91  5  3 23 22 59.9960000  0  4G 2G 6G13G15
  20147116.981    -7906222.337 8  -5988917.05823
  19431893.5744  -19514522.80747 -15206106.78462
  19726874.520   -20806891.453 7 -15831504.48421
  22876017.9344   -5050014.43545  -3801092.04461
 91  5  3 23 23 14.9960000  0  4G 2G 6G13G15
  20148115.6764   -7900977.32648  -5984830.04763
  19430602.7854  -19521306.25547 -15211392.58862
  19719212.4574  -20847148.15447 -15862873.28561
  22877630.6454   -5041545.83245  -3794493.15661
 91  5  3 23 23 29.9960000  0  4G 2G 6G13G15
  20149122.7854   -7895690.13548  -5980710.17263
  19429333.1684  -19527976.26247 -15216589.99762
  19711577.277   -20887275.162 7 -15894141.03521
  22879267.332    -5032949.016 5  -3787794.34221
 91  5  3 23 23 44.9960000  0  4G 2G 6G13G15
  20150135.1604   -7890362.87048  -5976559.06463
  19428085.2464  -19534534.59147 -15221700.38362
  19703965.715   -20927274.481 7 -15925309.27621
  22880927.660    -5024226.251 5  -3780997.39921
 91  5  3 23 23 59.9960000  0  4G 2G 6G13G15
  20151158.520    -7884990.142 8  -5972372.53623
  19426859.5594  -19540975.80947 -15226719.51862
  19696379.566   -20967140.621 7 -15956373.75121
  22882611.5984   -5015372.28745  -3774098.20361
 91  5  3 23 24 14.9960000  0  4G 2G 6G13G15
  20152188.7544   -7879574.12548  -5968152.27363
  19425655.7464  -19547301.87647 -15231648.92062
  19688818.535   -21006875.406 7 -15987335.86721
  22884319.3164   -5006389.44145  -3767098.59761
 91  5  3 23 24 29.9960000  0  4G 2G 6G13G15
  20153227.8244   -7874114.22248  -5963897.81763
  19424474.4414  -19553512.19547 -15236488.12962
  19681282.301   -21046478.272 7 -16018195.19621
  22886054.465    -4997277.350 5  -3759998.25421
 91  5  3 23 24 44.9960000  0  4G 2G 6G13G15
  20154275.957    -7868608.814 8  -5959607.90323
  19423313.6604  -19559604.83647 -15241235.64662
  19673770.504   -21085947.299 7 -16048950.22721
  22887812.3324   -4988034.67345  -3752796.21061
 91  5  3 23 24 59.9960000  0  4G 2G 6G13G15
  20155331.684    -7863063.061 8  -5955286.55023
  19422177.0124  -19565584.82347 -15245895.37562
  19666284.504   -21125287.516 7 -16079604.89422
  22889597.613    -4978666.414 5  -3745496.25021
 91  5  3 23 25 14.9960000  0  4G 2G 6G13G15
  20156395.348    -7857473.350 8  -5950930.94223
  19421059.3634  -19571448.23447 -15250464.26662
  19658823.434   -21164495.070 7 -16110156.18522
  22891402.1454   -4969169.07945  -3738095.73761
 91  5  3 23 25 29.9960000  0  4G 2G 6G13G15
  20157465.371    -7851840.720 8  -5946541.89623
  19419967.5594  -19577196.33847 -15254943.31062
  19651387.434   -21203571.203 7 -16140605.07121
  22893235.520    -4959544.140 5  -3730595.79121
 91  5  3 23 25 44.9960000  0  4G 2G 6G13G15
  20158546.426    -7846161.611 8  -5942116.63223
  19418895.5824  -19582825.48447 -15259329.65862
  19643977.090   -21242512.411 7 -16170948.82421
  22895090.793    -4949788.228 5  -3722993.78821
 91  5  3 23 25 59.9960000  0  4G 2G 6G13G15
  20159637.566    -7840434.015 8  -5937653.58123
  19417847.0514  -19588333.35947 -15263621.50662
  19636592.801   -21281316.332 7 -16201185.59522
  22896970.5904   -4939899.23845  -3715288.08861
 91  5  3 23 26 14.9960000  0  4G 2G 6G13G15
  20160736.137    -7834662.543 8  -5933156.34423
  19416822.3954  -19593724.42447 -15267822.33962
  19629234.590   -21319987.301 7 -16231318.76822
  22898880.090    -4929881.873 5  -3707482.38121
 91  5  3 23 26 29.9960000  0  4G 2G 6G13G15
  20161840.356    -7828850.755 8  -5928627.69623
  19415817.1604  -19599002.14747 -15271934.84862
  19621900.777   -21358529.012 7 -16261351.22222
  22900806.871    -4919740.103 5  -3699579.69421
 91  5  3 23 26 44.9960000  0  4G 2G 6G13G15
  20162956.020    -7822995.084 8  -5924064.84823
  19414835.2384  -19604162.72547 -15275956.07362
  19614591.598   -21396937.637 7 -16291279.97022
  22902768.5514   -4909470.57645  -3691577.50061
 91  5  3 23 26 59.9960000  0  4G 2G 6G13G15
  20164078.410    -7817095.875 8  -5919468.07923
  19413874.9494  -19609206.42947 -15279886.22862
  19607308.395   -21435213.472 7 -16321105.25022
  22904743.293    -4899073.701 5  -3683476.05421
 91  5  3 23 27 14.9960000  0  4G 2G 6G13G15
  20165209.277    -7811147.948 8  -5914833.34523
  19412938.8404  -19614127.97347 -15283721.19462
  19600050.207   -21473351.043 7 -16350822.79122
  22906748.9654   -4888544.22745  -3675271.28061
 91  5  3 23 27 29.9960000  0  4G 2G 6G13G15
  20166349.871    -7805156.547 8  -5910164.73923
  19412024.1454  -19618932.42547 -15287464.91962
  19592818.809   -21511355.679 7 -16380436.74322
  22908774.1764   -4877887.50645  -3666967.35661
 91  5  3 23 27 44.9960000  0  4G 2G 6G13G15
  20167498.246    -7799117.705 8  -5905459.16323
  19411132.7464  -19623615.76847 -15291114.27562
  19585612.262   -21549223.303 7 -16409943.93722
  22910827.6524   -4867100.10845  -3658561.60261
 91  5  3 23 27 59.9960000  0  4G 2G 6G13G15
  20168657.152    -7793032.549 8  -5900717.50223
  19410265.5124  -19628178.97147 -15294670.01262
  19578433.254   -21586954.890 7 -16439345.12022
  22912904.6764   -4856183.23345  -3650054.93761
 91  5  3 23 28 14.9960000  0  4G 2G 6G13G15
  20169822.824    -7786905.900 8  -5895943.50323
  19409419.3564  -19632626.60747 -15298135.70162
  19571277.410   -21624555.081 7 -16468643.92122
  22915009.0664   -4845141.71845  -3641451.20961
 91  5  3 23 28 29.9960000  0  4G 2G 6G13G15
  20170999.887    -7780729.557 8  -5891130.79023
  19408596.6604  -19636950.25347 -15301504.77662
  19564147.277   -21662015.596 7 -16497833.88522
  22917129.3404   -4833967.60945  -3632744.10261
 91  5  3 23 28 44.9960000  0  4G 2G 6G13G15
  20172182.895    -7774508.412 8  -5886283.16323
  19407795.3874  -19641154.93947 -15304781.15462
  19557045.660   -21699341.310 7 -16526918.80722
  22919282.4024   -4822666.02645  -3623937.69261
 91  5  3 23 28 59.9960000  0  4G 2G 6G13G15
  20173374.207    -7768244.767 8  -5881402.41623
  19407017.5274  -19645242.89447 -15307966.56862
  19549968.199   -21736534.602 7 -16555900.54522
  22921459.5594   -4811239.46045  -3615033.90461
 91  5  3 23 29 14.9960000  0  4G 2G 6G13G15
  20174575.481    -7761933.900 8  -5876484.87623
  19406264.0204  -19649209.10147 -15311057.12062
  19542917.449   -21773590.508 7 -16584775.23222
  22923653.863    -4799683.024 5  -3606028.89121
 91  5  3 23 29 29.9960000  0  4G 2G 6G13G15
  20175786.277    -7755574.048 8  -5871529.16523
  19405532.6994  -19653051.68247 -15314051.34062
  19535891.207   -21810507.032 7 -16613541.30522
  22925878.7774   -4787995.63945  -3596921.84861
 91  5  3 23 29 44.9960000  0  4G 2G 6G13G15
  20177004.613    -7749169.075 8  -5866538.29523
  19404823.6524  -19656774.45347 -15316952.20062
  19528892.152   -21847287.766 7 -16642201.56822
  22928128.0044   -4776180.86645  -3587715.55461
 91  5  3 23 29 59.9960000  0  3G 2G 6G13
  20178231.488    -7742719.514 8  -5861512.67923
  19404138.7074  -19660377.76947 -15319759.97662
  19521918.270   -21883933.557 7 -16670756.68122
 91  5  3 23 30 14.9960000  0  3G 2G 6G13
  20179468.465    -7736223.757 8  -5856451.06523
  19403475.3714  -19663859.91647 -15322473.33862
  19514971.348   -21920442.568 7 -16699205.21522
 91  5  3 23 30 29.9960000  0  3G 2G 6G13
  20180712.379    -7729686.951 8  -5851357.46423
  19402834.1844  -19667225.82647 -15325096.12162
  19508049.129   -21956819.824 7 -16727551.07822
 91  5  3 23 30 44.9960000  0  3G 2G 6G13
  20181963.707    -7723104.595 8  -5846228.37223
  19402218.7314  -19670470.97247 -15327624.81262
  19501153.121   -21993060.842 7 -16755790.78422
 91  5  3 23 30 59.9960000  0  3G 2G 6G13
  20183226.402    -7716475.138 8  -5841062.57423
  19401623.1454  -19673593.79247 -15330058.17762
  19494282.293   -22029163.790 7 -16783922.90222
 91  5  3 23 31 14.9960000  0  3G 2G 6G13
  20184495.473    -7709800.465 8  -5835861.54923
  19401051.9494  -19676596.01947 -15332397.57762
  19487437.723   -22065130.581 7 -16811948.92522
 91  5  3 23 31 29.9960000  0  3G 2G 6G13
  20185774.707    -7703076.709 8  -5830622.27523
  19400505.4414  -19679473.68747 -15334639.91562
  19480620.176   -22100957.578 7 -16839866.01722
 91  5  3 23 31 44.9960000  0  3G 2G 6G13
  20187062.121    -7696309.050 8  -5825348.78923
  19399979.8404  -19682231.89447 -15336789.16862
  19473827.043   -22136649.661 7 -16867677.98422
 91  5  3 23 31 59.9960000  0  3G 2G 6G13
  20188359.348    -7689496.755 8  -5820040.51723
  19399478.1294  -19684869.74647 -15338844.64162
  19467062.152   -22172205.923 7 -16895384.11422
 91  5  3 23 32 14.9960000  0  3G 2G 6G13
  20189663.949    -7682640.697 8  -5814698.14823
  19398998.7384  -19687387.98947 -15340806.90662
  19460321.504   -22207627.192 7 -16922985.05522
 91  5  3 23 32 29.9960000  0  3G 2G 6G13
  20190976.996    -7675739.453 8  -5809320.57223
  19398541.1684  -19689785.07247 -15342674.76462
  19453607.121   -22242911.858 7 -16950479.55522
 91  5  3 23 32 44.9960000  0  3G 2G 6G13
  20192300.215    -7668794.479 8  -5803908.91923
  19398108.0594  -19692062.37747 -15344449.29262
  19446918.660   -22278061.274 7 -16977868.66022
 91  5  3 23 32 59.9960000  0  3G 2G 6G13
  20193629.418    -7661806.668 8  -5798463.88623
  19397696.5664  -19694220.51947 -15346130.96762
  19440255.027   -22313076.182 7 -17005152.95722
 91  5  3 23 33 14.9960000  0  3G 2G 6G13
  20194967.082    -7654774.392 8  -5792984.20323
  19397311.8014  -19696257.94047 -15347718.57062
  19433617.684   -22347954.950 7 -17032331.17122
 91  5  3 23 33 29.9960000  0  3G 2G 6G13
  20196314.7704   -7647695.51848  -5787468.20863
  19396947.6064  -19698172.48347 -15349210.42762
  19427007.106   -22382695.601 7 -17059401.75922
 91  5  3 23 33 44.9960000  0  3G 2G 6G13
  20197670.8094   -7640568.05248  -5781914.34763
  19396605.1524  -19699961.90847 -15350604.78862
  19420422.832   -22417296.030 7 -17086363.08722
 91  5  3 23 33 59.9960000  0  3G 2G 6G13
  20199036.3484   -7633394.26048  -5776324.38663
  19396287.4184  -19701628.48547 -15351903.42762
  19413864.520   -22451758.407 7 -17113216.83822
 91  5  3 23 34 14.9960000  0  3G 2G 6G13
  20200408.8404   -7626176.50348  -5770700.17063
  19395994.9494  -19703174.54247 -15353108.15562
  19407332.254   -22486085.132 7 -17139964.89122
 91  5  3 23 34 29.9960000  0  3G 2G 6G13
  20201790.2154   -7618916.34148  -5765042.90963
  19395722.9814  -19704601.37947 -15354219.98362
  19400826.207   -22520277.540 7 -17166608.27522
 91  5  3 23 34 44.9960000  0  3G 2G 6G13
  20203181.1684   -7611611.52348  -5759350.85063
  19395472.5594  -19705906.75747 -15355237.16962
  19394344.996   -22554333.522 7 -17193145.36122
 91  5  3 23 34 59.9960000  0  3G 2G 6G13
  20204578.1994   -7604266.86648  -5753627.74663
  19395249.4734  -19707095.35047 -15356163.35162
  19387889.152   -22588257.474 7 -17219579.56422
 91  5  3 23 35 14.9960000  0  3G 2G 6G13
  20205985.9024   -7596876.44148  -5747868.98163
  19395042.8874  -19708161.11247 -15356993.82362
  19381460.160   -22622043.641 7 -17245906.40222
 91  5  3 23 35 29.9960000  0  3G 2G 6G13
  20207400.0664   -7589436.05447  -5742071.28763
  19394868.3564  -19709099.79047 -15357725.26562
  19375058.145   -22655687.889 7 -17272122.65322
 91  5  3 23 35 44.9960000  0  3G 2G 6G13
  20208825.4734   -7581952.65447  -5736240.07363
  19394709.0824  -19709918.33047 -15358363.09362
  19368681.223   -22689197.107 7 -17298233.68722
 91  5  3 23 35 59.9960000  0  3G 2G 6G13
  20210258.1844   -7574423.49547  -5730373.20663
  19394579.7384  -19710613.66747 -15358904.92062
  19362331.496   -22722568.280 7 -17324237.15922
 91  5  3 23 36 14.9960000  0  3G 2G 6G13
  20211697.4814   -7566850.91347  -5724472.50063
  19394473.5274  -19711188.17947 -15359352.59662
  19356005.246   -22755803.600 7 -17350134.75822
 91  5  3 23 36 29.9960000  0  3G 2G 6G13
  20213146.7234   -7559235.31547  -5718538.27563
  19394381.6994  -19711642.11347 -15359706.31662
  19349708.262   -22788903.491 7 -17375926.83722
 91  5  3 23 36 44.9960000  0  3G 2G 6G13
  20214605.6064   -7551574.93247  -5712569.15363
  19394319.1844  -19711973.60047 -15359964.62662
  19343434.988   -22821866.097 7 -17401611.94122
 91  5  3 23 36 59.9960000  0  3G 2G 6G13
  20216071.4184   -7543871.13547  -5706566.19863
  19394277.5434  -19712184.10947 -15360128.66662
  19337188.410   -22854692.941 7 -17427191.25622
 91  5  3 23 37 14.9960000  0  3G 2G 6G13
  20217546.5904   -7536124.13647  -5700529.58463
  19394261.8094  -19712273.65547
  19330966.832   -22887384.127 7 -17452664.86122
 91  5  3 23 37 29.9960000  0  3G 2G 6G13
  20219028.5514   -7528336.08947  -5694460.98363
  19394267.0044  -19712244.38247
  19324772.066   -22919941.887 7 -17478034.49822
 91  5  3 23 37 44.9960000  0  3G 2G 6G13
  20220519.1524   -7520502.86147  -5688357.17463
  19394296.7544  -19712091.93147
  19318602.270   -22952361.849 7 -17503296.76422
 91  5  3 23 37 59.9960000  0  3G 2G 6G13
  20222018.2384   -7512624.47347  -5682218.17663
  19394347.9494  -19711816.35347
  19312458.332   -22984644.203 7 -17528451.80022
 91  5  3 23 38 14.9960000  0  3G 2G 6G13
  20223526.3324   -7504701.30947  -5676044.29363
  19394424.0744  -19711418.03447 -15359531.76062
  19306341.4574  -23016789.24247 -17553499.84262
 91  5  3 23 38 29.9960000  0  3G 2G 6G13
  20225041.9964   -7496731.35147  -5669833.94463
  19394522.7544  -19710894.73647 -15359123.99662
  19300252.559   -23048794.590 7 -17578439.02522
 91  5  3 23 38 44.9960000  0  3G 2G 6G13
  20226566.3714   -7488714.46847  -5663587.03163
  19394650.5984  -19710246.33347 -15358618.75262
  19294188.223   -23080660.269 7 -17603269.38322
 91  5  3 23 38 59.9960000  0  3G 2G 6G13
  20228101.5824   -7480648.19147  -5657301.63163
  19394797.6764  -19709470.29447 -15358014.05062
  19288151.426   -23112384.002 7 -17627989.13122
 91  5  3 23 39 14.9960000  0  3G 2G 6G13
  20229647.9344   -7472537.56547  -5650981.67263
  19394964.5274  -19708571.68447 -15357313.84062
  19282140.902   -23143970.756 7 -17652602.14522
 91  5  3 23 39 29.9960000  0  3G 2G 6G13
  20231197.0664   -7464384.96947  -5644629.01163
  19395163.2464  -19707552.70047 -15356519.82662
  19276155.238   -23175422.801 7 -17677110.18622
 91  5  3 23 39 44.9960000  0  3G 2G 6G13
  20232757.723    -7456183.930 7  -5638238.60323
  19395378.9024  -19706406.89447 -15355626.99162
  19270196.418   -23206733.600 7 -17701508.17022
 91  5  3 23 39 59.9960000  0  3G 2G 6G13
  20234327.574    -7447934.545 7  -5631810.52623
  19395621.1604  -19705134.17147 -15354635.27062
  19264265.0124  -23237903.49047 -17725796.35361
 91  5  3 23 40 14.9960000  0  3G 2G 6G13
  20235906.309    -7439645.147 7  -5625351.27123
  19395886.2624  -19703742.84847 -15353551.11462
  19258359.137   -23268940.491 7 -17749980.98621
 91  5  3 23 40 29.9960000  0  3G 2G 6G13
  20237491.512    -7431309.093 7  -5618855.66123
  19396175.6214  -19702226.16647 -15352369.28762
  19252479.676   -23299837.729 7 -17774056.71522
 91  5  3 23 40 44.9960000  0  3G 2G 6G13
  20239086.809    -7422927.428 7  -5612324.51023
  19396484.8634  -19700585.00047 -15351090.45562
  19246626.941   -23330596.282 7 -17798024.37422
 91  5  3 23 40 59.9960000  0  3G 2G 6G13
  20240690.574    -7414500.616 7  -5605758.18023
  19396823.9024  -19698819.97347 -15349715.11362
  19240799.2154  -23361216.99247 -17821884.62662
 91  5  3 23 41 14.9960000  0  3G 2G 6G13
  20242301.246    -7406030.335 7  -5599157.98123
  19397183.4344  -19696932.77647 -15348244.57062
  19234998.645   -23391701.459 7 -17845638.71122
 91  5  3 23 41 29.9960000  0  3G 2G 6G13
  20243922.527    -7397515.131 7  -5592522.77723
  19397564.3324  -19694921.69847 -15346677.49462
  19229223.207   -23422047.943 7 -17869285.28222
 91  5  3 23 41 44.9960000  0  3G 2G 6G13
  20245554.106    -7388952.687 7  -5585850.76023
  19397970.8164  -19692784.51747 -15345012.16362
  19223475.0434  -23452254.41047 -17892822.74962
 91  5  3 23 41 59.9960000  0  3G 2G 6G13
  20247191.277    -7380344.371 7  -5579143.00023
  19398401.1994  -19690522.50747 -15343249.56162
  19217753.449   -23482322.178 7 -17916252.13622
 91  5  3 23 42 14.9960000  0  3G 2G 6G13
  20248836.957    -7371689.384 7  -5572398.87423
  19398856.2154  -19688134.63747 -15341388.88862
  19212058.262   -23512250.357 7 -17939572.75122
 91  5  3 23 42 29.9960000  0  3G 2G 6G13
  20250492.973    -7362988.968 7  -5565619.34223
  19399334.8954  -19685622.11647 -15339431.08362
  19206389.113   -23542039.957 7 -17962785.38222
 91  5  3 23 42 44.9960000  0  3G 2G 6G13
  20252157.410    -7354242.686 7  -5558804.07623
  19399835.7624  -19682984.54847 -15337375.83562
  19200746.9964  -23571690.52547 -17985889.68062
 91  5  3 23 42 59.9960000  0  3G 2G 6G13
  20253832.543    -7345444.662 7  -5551948.48823
  19400362.6374  -19680215.96547 -15335218.50662
  19195132.520   -23601196.241 7 -18008881.10521
 91  5  3 23 43 14.9960000  0  3G 2G 6G13
  20255514.231    -7336603.777 7  -5545059.50723
  19400912.1214  -19677325.26047 -15332966.01862
  19189543.3564  -23630566.24747 -18031766.78362
 91  5  3 23 43 29.9960000  0  3G 2G 6G13
  20257204.863    -7327716.986 7  -5538134.75323
  19401487.3404  -19674309.28047 -15330615.90562
  19183981.2464  -23659797.12447 -18054544.05062
 91  5  3 23 43 44.9960000  0  3G 2G 6G13
  20258903.770    -7318784.452 7  -5531174.35723
  19402086.3484  -19671168.26747 -15328168.36562
  19178444.7154  -23688889.30447 -18077213.24262
 91  5  3 23 43 59.9960000  0  3G 2G 6G13
  20260613.481    -7309806.270 7  -5524178.39323
  19402706.8874  -19667902.36447 -15325623.51562
  19172935.441   -23717843.115 7 -18099774.60921
 91  5  3 23 44 14.9960000  0  3G 2G 6G13
  20262331.012    -7300786.588 7  -5517150.08423
  19403348.9024  -19664515.58947 -15322984.47762
  19167450.598   -23746662.549 7 -18122231.27222
 91  5  3 23 44 29.9960000  0  3G 2G 6G13
  20264052.840    -7291719.073 7  -5510084.50323
  19404020.6374  -19661001.55947 -15320246.28162
  19161993.176   -23775341.290 7 -18144578.30122
 91  5  3 23 44 44.9960000  0  3G 2G 6G13
  20265789.926    -7282606.622 7  -5502983.91223
  19404710.1214  -19657363.00147 -15317411.04962
  19156562.543   -23803882.131 7 -18166817.87721
 91  5  3 23 44 59.9960000  0  3G 2G 6G13
  20267530.879    -7273445.353 7  -5495845.27723
  19405431.0824  -19653596.13347 -15314475.83962
  19151158.801   -23832281.164 7 -18188946.95222
 91  5  3 23 45 14.9960000  0  3G 2G 6G13
  20269284.809    -7264241.022 7  -5488673.08523
  19406166.6214  -19649706.55147 -15311445.00462
  19145780.3404  -23860544.24647 -18210970.09361
 91  5  3 23 45 29.9950000  0  3G 2G 6G13
  20271044.452    -7254986.683 7  -5481461.92823
  19406936.093   -19645686.749 7 -15308312.70422
  19140429.554   -23888661.730 7 -18232879.78122
 91  5  3 23 45 44.9950000  0  3G 2G 6G13
  20272813.155    -7245690.399 7  -5474218.08723
  19407721.960   -19641545.642 7 -15305085.87522
  19135104.1084  -23916646.67847 -18254686.19361
 91  5  3 23 45 59.9950000  0  3G 2G 6G13
  20274592.866    -7236345.329 7  -5466936.22923
  19408532.991   -19637276.050 7 -15301758.93622
  19129805.5464  -23944489.97547 -18276382.23061
 91  5  3 23 46 14.9950000  0  3G 2G 6G13
  20276378.382    -7226957.210 7  -5459620.83023
  19409371.312   -19632883.626 7 -15298336.28422
  19124532.585   -23972197.408 7 -18297972.39521
 91  5  3 23 46 29.9950000  0  3G 2G 6G13
  20278172.640    -7217521.989 7  -5452268.72523
  19410232.858   -19628364.334 7 -15294814.77322
  19119286.6014  -23999764.89247 -18319453.51562
 91  5  3 23 46 44.9950000  0  3G 2G 6G13
  20279976.866    -7208040.550 7  -5444880.61023
  19411114.663   -19623719.074 7 -15291195.10322
  19114067.5694  -24027193.43747 -18340826.36662
 91  5  3 23 46 59.9950000  0  3G 2G 6G13
  20281790.601    -7198511.377 7  -5437455.29623
  19412023.608   -19618946.184 7 -15287475.98722
  19108874.8744  -24054481.32247 -18362089.61462
 91  5  3 23 47 14.9950000  0  3G 2G 6G13
  20283613.054    -7188934.853 7  -5429993.08723
  19412955.257   -19614046.053 7 -15283657.71822
  19103708.374   -24081629.094 7 -18383243.68221
 91  5  3 23 47 29.9950000  0  3G 2G 6G13
  20285444.046    -7179319.057 7  -5422500.27123
  19413909.671   -19609026.779 7 -15279746.61722
  19098567.7414  -24108644.85847 -18404294.89262
 91  5  3 23 47 44.9950000  0  3G 2G 6G13
  20287281.319    -7169655.416 7  -5414970.18123
  19414890.851   -19603879.772 7 -15275735.97622
  19093453.7334  -24135519.95447 -18425236.48561
 91  5  3 23 47 59.9950000  0  3G 2G 6G13
  20289130.343    -7159944.044 7  -5407402.89623
  19415895.249   -19598605.105 7 -15271625.86522
  19088366.0774  -24162254.44747 -18446068.52161
 91  5  3 23 48 14.9950000  0  3G 2G 6G13
  20290987.296    -7150183.771 7  -5399797.50723
  19416923.624   -19593201.371 7 -15267415.17822
  19083305.5694  -24188847.16747 -18466790.09062
 91  5  3 23 48 29.9950000  0  3G 2G 6G13
  20292856.429    -7140372.910 7  -5392152.69723
  19417974.148   -19587667.215 7 -15263102.86722
  19078272.5934  -24215296.67347 -18487400.05561
 91  5  3 23 48 44.9950000  0  3G 2G 6G13
  20294731.749    -7130517.205 7  -5384472.94923
  19419049.405   -19582008.181 7 -15258693.24722
  19073265.6714  -24241608.59347 -18507902.81361
 91  5  3 23 48 59.9950000  0  3G 2G 6G13
  20296613.663    -7120612.738 7  -5376755.19723
  19420155.062   -19576220.524 7 -15254183.39922
  19068285.2334  -24267779.29447 -18528295.53362
 91  5  3 23 49 14.9950000  0  3G 2G 6G13
  20298511.319    -7110656.768 7  -5368997.31123
  19421278.7964  -19570301.40447 -15249571.11262
  19063332.5934  -24293806.14947 -18548576.15962
 91  5  3 23 49 29.9950000  0  3G 2G 6G13
  20300414.819    -7100645.591 7  -5361196.41523
  19422431.2024  -19564247.07447 -15244853.46662
  19058407.2024  -24319685.45647 -18568741.81762
 91  5  3 23 49 44.9950000  0  3G 2G 6G13
  20302329.155    -7090588.219 7  -5353359.51622
  19423608.163   -19558066.342 7 -15240037.32222
  19053509.116   -24345425.966 7 -18588799.31822
 91  5  3 23 49 59.9950000  0  3G 2G 6G13
  20304251.624    -7080485.320 7  -5345487.14222
  19424807.538   -19551760.033 7 -15235123.32922
  19048638.1324  -24371028.52447 -18608749.32762
 91  5  3 23 50 14.9950000  0  3G 2G 6G13
  20306184.304    -7070335.114 7  -5337577.90522
  19426031.2264  -19545326.37547 -15230110.09962
  19043792.6164  -24396491.73847 -18628590.75461
 91  5  3 23 50 29.9950000  0  3G 2G 6G13
  20308121.116    -7060141.237 7  -5329634.63622
  19427282.0304  -19538768.95247 -15225000.42962
  19038972.6874  -24421818.77747 -18648326.07162
 91  5  3 23 50 44.9950000  0  3G 2G 6G13
  20310073.952    -7049893.182 7  -5321649.15222
  19428552.1244  -19532077.11847 -15219786.02462
  19034181.3194  -24446999.28547 -18667947.21562
 91  5  3 23 50 59.9950000  0  3G 2G 6G13
  20312034.155    -7039598.220 7  -5313627.11522
  19429849.0624  -19525258.28147 -15214472.65562
  19029415.9914  -24472040.54747 -18687459.85062
 91  5  3 23 51 14.9950000  0  3G 2G 6G13
  20313999.5464   -7029254.93747  -5305567.42362
  19431173.8824  -19518311.01247 -15209059.21062
  19024677.0854  -24496941.30948 -18706863.01062
 91  5  3 23 51 29.9950000  0  3G 2G 6G13
  20315977.382    -7018864.789 7  -5297471.21722
  19432520.9994  -19511236.58447 -15203546.67962
  19019964.6484  -24521702.84848 -18726157.67761
 91  5  3 23 51 44.9950000  0  3G 2G 6G13
  20317963.7494   -7008427.86547  -5289338.55862
  19433892.1944  -19504035.38247 -15197935.35762
  19015279.6404  -24546325.55348 -18745344.16361
 91  5  3 23 51 59.9950000  0  3G 2G 6G13
  20319956.4684   -6997942.91547  -5281168.48262
  19435286.7184  -19496705.90347 -15192224.08462
  19010620.9134  -24570808.14348 -18764421.47761
 91  5  3 23 52 14.9950000  0  3G 2G 6G13
  20321964.312    -6987402.075 7  -5272954.85322
  19436707.2184  -19489240.34247 -15186406.77262
  19005990.3824  -24595142.81248 -18783383.51961
 91  5  3 23 52 29.9950000  0  3G 2G 6G13
  20323978.663    -6976816.747 7  -5264706.55922
  19438151.3124  -19481650.27547 -15180492.44262
  19001385.2414  -24619341.02048 -18802239.23161
 91  5  3 23 52 44.9950000  0  3G 2G 6G13
  20326001.468    -6966185.381 7  -5256422.39322
  19439620.6714  -19473933.98847 -15174479.76062
  18996807.1714  -24643401.17848 -18820987.37361
 91  5  3 23 52 59.9950000  0  3G 2G 6G13
  20328035.046    -6955505.351 7  -5248100.31122
  19441110.3824  -19466088.73847 -15168366.58662
  18992254.6014  -24667320.67647 -18839625.90861
 91  5  3 23 53 14.9950000  0  3G 2G 6G13
  20330076.921    -6944780.277 7  -5239743.12722
  19442626.7024  -19458118.42847 -15162155.96162
  18987729.2414  -24691103.52448 -18858157.96761
 91  5  3 23 53 29.9950000  0  3G 2G 6G13
  20332124.648    -6934007.533 7  -5231348.79922
  19444166.8274  -19450020.29047 -15155845.73162
  18983229.9604  -24714746.91548 -18876581.36161
 91  5  3 23 53 44.9950000  0  3G 2G 6G13
  20334184.593    -6923183.737 7  -5222914.69022
  19445736.2884  -19441791.14447 -15149433.41562
  18978758.1014  -24738247.66048 -18894893.59561
 91  5  3 23 53 59.9950000  0  3G 2G 6G13
  20336255.226    -6912314.535 7  -5214445.20122
  19447322.4604  -19433436.50847 -15142923.31762
  18974311.8434  -24761611.75947 -18913099.34961
 91  5  3 23 54 14.9950000  0  3G 2G 6G13
  20338330.351    -6901394.566 7  -5205936.15122
  19448939.6794  -19424950.95247 -15136311.20562
  18969893.0774  -24784833.41247 -18931194.11461
 91  5  3 23 54 29.9950000  0  3G 2G 6G13
  20340418.796    -6890425.208 7  -5197388.62222
  19450579.4214  -19416335.72147 -15129598.04762
  18965500.7264  -24807913.96147 -18949178.92261
 91  5  3 23 54 44.9950000  0  3G 2G 6G13
  20342515.608    -6879404.198 7  -5188800.83722
  19452242.569   -19407588.866 7 -15122782.32822
  18961136.1084  -24830851.62247 -18967052.39861
 91  5  3 23 54 59.9950000  0  3G 2G 6G13
  20344623.124    -6868340.337 7  -5180179.66722
  19453928.8744  -19398719.14147 -15115870.86662
  18956796.7574  -24853655.13648 -18984821.34161
 91  5  3 23 55 14.9950000  0  3G 2G 6G13
  20346735.398    -6857225.540 7  -5171518.80522
  19455646.2734  -19389718.56547 -15108857.43962
  18952484.0154  -24876316.75148 -19002479.70861
 91  5  3 23 55 29.9950000  0  3G 2G 6G13
  20348861.280    -6846058.847 7  -5162817.50922
  19457379.819   -19380586.099 7 -15101741.24222
  18948199.5154  -24898835.28747 -19020026.58961
 91  5  3 23 55 44.9950000  0  3G 2G 6G13
  20350998.116    -6834843.043 7  -5154077.94022
  19459142.0304  -19371324.62347 -15094524.52062
  18943939.8584  -24921213.74147 -19037464.31361
 91  5  3 23 55 59.9950000  0  3G 2G 6G13
  20353138.843    -6823586.712 7  -5145306.79122
  19460930.155   -19361942.628 7 -15087213.89022
  18939707.0464  -24943460.70247 -19054799.57861
 91  5  3 23 56 14.9950000  0  3G 2G 6G13
  20355287.421    -6812281.226 7  -5136497.34022
  19462741.6164  -19352431.61447 -15079802.72362
  18935499.6794  -24965567.63847 -19072025.73361
 91  5  3 23 56 29.9950000  0  3G 2G 6G13
  20357449.476    -6800927.447 7  -5127650.26222
  19464575.2334  -19342792.22247 -15072291.51962
  18931319.9684  -24987535.16947 -19089143.26161
 91  5  3 23 56 44.9950000  0  3G 2G 6G13
  20359618.382    -6789526.775 7  -5118766.64422
  19466433.5694  -19333026.11347 -15064681.57862
  18927164.5234  -25009365.09647 -19106153.56161
 91  5  3 23 56 59.9950000  0  3G 2G 6G13
  20361797.069    -6778077.688 7  -5109845.29922
  19468316.1084  -19323131.71047 -15056971.66562
  18923038.319   -25031055.879 8 -19123055.44621
 91  5  3 23 57 14.9950000  0  3G 2G 6G13
  20363985.952    -6766576.456 7  -5100883.32422
  19470224.4054  -19313105.20547 -15049158.81662
  18918937.3584  -25052603.89248 -19139846.07861
 91  5  3 23 57 29.9950000  0  4G 2G 6G13G12
  20366183.843    -6755026.005 7  -5091882.99822
  19472157.804   -19302949.767 7 -15041245.50322
  18914863.7494  -25074012.26348 -19156527.89561
  22764212.366          -0.97115
 91  5  3 23 57 44.9950000  0  4G 2G 6G13G12
  20368389.757    -6743430.410 7  -5082847.49322
  19474112.8984  -19292669.35947 -15033234.80562
  18910815.0544  -25095285.21148 -19173104.18961
  22752777.030      -60119.627 5
 91  5  3 23 57 59.9950000  0  4G 2G 6G13G12
  20370607.210    -6731794.814 7  -5073780.81922
  19476090.218   -19282269.165 7 -15025130.77522
  18906791.4604  -25116427.69348 -19189578.82161
  22741335.7804    -120239.98545        -0.14371
 91  5  3 23 58 14.9950000  0  4G 2G 6G13G12
  20372832.866    -6720108.678 7  -5064674.76122
  19478092.507   -19271738.689 7 -15016925.21722
  18902794.773   -25137429.500 8 -19205943.83621
  22729894.5234    -180351.39445    -46840.14361
 91  5  3 23 58 29.9950000  0  4G 2G 6G13G12
  20375062.523    -6708373.514 7  -5055530.50122
  19480124.202   -19261079.563 7 -15008619.41922
  18898825.5934  -25158292.05248 -19222200.34061
  22718462.9214    -240454.99445    -93673.99061
 91  5  3 23 58 44.9950000  0  4G 2G 6G13G12
  20377305.171    -6696586.363 7  -5046345.73122
  19482177.874   -19250288.656 7 -15000210.93622
  18894882.1554  -25179012.69348 -19238346.26461
  22707027.8044    -300547.58045   -140499.28661
 91  5  3 23 58 59.9950000  0  4G 2G 6G13G12
  20379557.023    -6684754.646 7  -5037126.23722
  19484252.546   -19239373.592 7 -14991705.70922
  18890964.608   -25199598.855 8 -19254387.40621
  22695588.6794    -360636.42345   -187321.66861
 91  5  3 23 59 14.9950000  0  4G 2G 6G13G12
  20381816.983    -6672877.312 7  -5027871.19322
  19486356.866   -19228333.389 7 -14983102.96822
  18887073.2964  -25220049.59247 -19270323.00461
  22684155.390     -420720.145 5   -234140.06621
 91  5  3 23 59 29.9950000  0  4G 2G 6G13G12
  20384087.390    -6660946.836 7  -5018574.74222
  19488478.632   -19217160.586 7 -14974396.90022
  18883209.0464  -25240357.52847 -19286147.34561
  22672726.4374    -480791.12345   -280948.53461
 91  5  3 23 59 44.9950000  0  4G 2G 6G13G12
  20386367.499    -6648965.064 7  -5009238.32122
  19490632.468   -19205856.922 7 -14965588.87122
  18879371.0544  -25260524.44947 -19301861.79961
  22661297.1244    -540850.87945   -327748.23561
 91  5  3 23 59 59.9950000  0  4G 2G 6G13G12
  20388655.468    -6636939.114 7  -4999867.47222
  19492806.2654  -19194429.62347 -14956684.48962
  18875558.8044  -25280557.75947 -19317472.14261
  22649866.9684    -600906.31945   -374544.59361
 91  5  4  0  0 14.9950000  0  4G 2G 6G13G12
  20390954.983    -6624863.937 7  -4990458.26622
  19495002.3274  -19182873.66247 -14947679.86262
  18871773.249   -25300452.374 7 -19332974.41221
  22638438.7734    -660952.06445   -421333.39061
 91  5  4  0  0 29.9950000  0  4G 2G 6G13G12
  20393260.444    -6612741.351 7  -4981012.12222
  19497230.101   -19171190.867 7 -14938576.39822
  18868013.6014  -25320209.96247 -19348369.91161
  22627021.108     -720989.674 5   -468115.82021
 91  5  4  0  0 44.9950000  0  4G 2G 6G13G12
  20395575.851    -6600570.599 7  -4971528.44022
  19499477.140   -19159380.590 7 -14929373.60022
  18864279.507   -25339830.070 7 -19363658.27721
  22615594.023     -781018.281 5   -514891.26221
 91  5  4  0  0 59.9950000  0  4G 2G 6G13G12
  20397903.429    -6588344.709 7  -4962001.79922
  19501748.163   -19147435.827 7 -14920066.00522
  18860573.9834  -25359305.70947 -19378834.07361
  22604172.687     -841030.606 5   -561653.98521
 91  5  4  0  1 14.9950000  0  4G 2G 6G13G12
  20400240.483    -6576073.923 7  -4952440.17222
  19504043.210   -19135366.965 7 -14910661.71222
  18856893.218   -25378647.656 7 -19393905.70021
  22592754.421     -901036.899 5   -608412.04121
 91  5  4  0  1 29.9950000  0  4G 2G 6G13G12
  20402583.765    -6563757.817 7
  19506363.366   -19123173.638 7
  18853237.366   -25397855.597 7 -19408872.89521
  22581338.0384    -961036.27945   -655164.71561
 91  5  4  0  1 44.9950000  0  4G 2G 6G13G12
  20404938.194    -6551388.448 7
  19508706.858   -19110847.881 7
  18849609.5464  -25416921.66447 -19423729.55061
  22569920.0464   -1021020.61345   -701905.61761
 91  5  4  0  1 59.9950000  0  4G 2G 6G13G12
  20407301.6404   -6538966.70547
  19511079.694   -19098390.601 7
  18846008.046   -25435846.523 7 -19438476.16421
  22558510.5154   -1080990.49245   -748635.30861
 91  5  4  0  2 14.9950000  0  4G 2G 6G13G12
  20409674.2494   -6526497.68347  -4913809.43662
  19513474.3044  -19085807.00147 -14872043.61862
  18842432.898   -25454635.449 7 -19453116.86121
  22547099.077    -1140950.633 5   -795357.36521
 91  5  4  0  2 29.9950000  0  4G 2G 6G13G12
  20412055.007    -6513979.036 7  -4904054.67022
  19515894.038   -19073094.889 7 -14862138.09022
  18838882.5774  -25473286.51147 -19467650.13061
  22535692.5234   -1200898.81145   -842070.13161
 91  5  4  0  2 44.9950000  0  4G 2G 6G13G12
  20414444.858    -6501415.621 7  -4894265.01922
  19518339.0544  -19060259.11347 -14852136.19262
  18835358.866   -25491804.305 7 -19482079.55621
  22524281.280    -1260839.382 5   -888776.94921
 91  5  4  0  2 59.9950000  0  4G 2G 6G13G12
  20416844.476    -6488806.773 7  -4884439.96522
  19520805.874   -19047299.033 7 -14842037.44622
  18831861.358   -25510188.408 7 -19496404.80721
  22512877.1714   -1320771.56245   -935477.20361
 91  5  4  0  3 14.9950000  0  4G 2G 6G13G12
  20419256.421    -6476149.225 7  -4874576.96622
  19523293.257   -19034211.438 7 -14831839.33722
  18828389.124   -25528435.861 7 -19510623.57921
  22501475.538    -1380691.683 5   -982168.12321
 91  5  4  0  3 29.9950000  0  4G 2G 6G13G12
  20421671.718    -6463442.907 7  -4864675.96122
  19525808.898   -19020996.244 7 -14821541.79922
  18824942.780   -25546546.395 7 -19524735.66021
  22490080.1874   -1440599.27645  -1028849.23061
 91  5  4  0  3 44.9950000  0  4G 2G 6G13G12
  20424096.773    -6450690.641 7  -4854739.15622
  19528349.366   -19007656.566 7 -14811147.25922
  18821521.679   -25564523.303 7 -19538743.62021
  22478681.6244   -1500497.29045  -1075522.89861
 91  5  4  0  3 59.9950000  0  4G 2G 6G13G12
  20426536.640    -6437886.462 7  -4844761.90022
  19530909.476   -18994186.566 7 -14800651.17022
  18818126.960   -25582360.865 8 -19552642.99621
  22467281.257    -1560379.550 5  -1122184.28121
 91  5  4  0  4 14.9950000  0  4G 2G 6G13G12
  20428978.210    -6425040.181 7  -4834751.83722
  19533499.601   -18980595.965 7 -14790061.11022
  18814756.788   -25600068.667 7 -19566441.26021
  22455884.7734   -1620255.43145  -1168840.68861
 91  5  4  0  4 29.9950000  0  4G 2G 6G13G12
  20431435.226    -6412146.712 7  -4824705.00122
  19536104.999   -18966879.759 7 -14779373.17722
  18811413.530   -25617641.919 8 -19580134.68721
  22444498.890    -1680119.591 5  -1215487.99021
 91  5  4  0  4 44.9950000  0  4G 2G 6G13G12
  20433896.6324   -6399202.70847  -4814618.79262
  19538743.608   -18953034.691 7 -14768584.83622
  18808096.405   -25635077.409 8 -19593720.76121
  22433111.8984   -1739968.54345  -1262123.43061
 91  5  4  0  4 59.9950000  0  4G 2G 6G13G12
  20436367.968    -6386207.991 7  -4804493.06522
  19541402.640   -18939060.486 7 -14757695.86222
  18804804.444   -25652374.961 8 -19607199.35421
  22421720.1014   -1799801.68945  -1308746.52761
 91  5  4  0  5 14.9950000  0  4G 2G 6G13G12
  20438851.374    -6373170.469 7  -4794333.97922
  19544081.148   -18924965.055 7 -14746712.42922
  18801537.554   -25669542.419 8 -19620576.57821
  22410332.1794   -1859626.61445  -1355363.24861
 91  5  4  0  5 29.9950000  0  4G 2G 6G13G12
  20441339.319    -6360086.153 7  -4784138.43822
  19546790.679   -18910744.665 7 -14735631.62722
  18798296.265   -25686576.064 8 -19633849.52521
  22398956.0854   -1919439.18445  -1401970.33661
 91  5  4  0  5 44.9950000  0  4G 2G 6G13G12
  20443836.1944   -6346955.05147  -4773906.43462
  19549522.468   -18896399.253 7 -14724453.40522
  18795079.913   -25703476.047 8 -19647018.32521
  22387571.163    -1979239.174 5  -1448567.61421
 91  5  4  0  5 59.9950000  0  4G 2G 6G13G12
  20446345.3514   -6333777.46247  -4763638.21662
  19552274.390   -18881929.246 7 -14713178.09122
  18791889.194   -25720242.832 8 -19660083.32621
  22376206.116    -2039026.632 5  -1495155.14321
 91  5  4  0  6 14.9950000  0  4G 2G 6G13G12
  20448862.648    -6320552.066 7  -4753332.73322
  19555050.273   -18867333.370 7 -14701804.70422
  18788724.616   -25736875.192 8 -19673043.59121
  22364822.4214   -2098799.96045  -1541731.66861
 91  5  4  0  6 29.9950000  0  4G 2G 6G13G12
  20451391.046    -6307274.559 7  -4742986.65022
  19557852.444   -18852607.631 7 -14690330.12322
  18785584.757   -25753369.240 8 -19685896.07221
  22353461.9994   -2158554.87245  -1588293.82961
 91  5  4  0  6 44.9950000  0  4G 2G 6G13G12
  20453924.530    -6293950.742 7  -4732604.47922
  19560677.608   -18837757.798 7 -14678758.84322
  18782472.335   -25769730.773 8 -19698645.30221
  22342090.374    -2218296.695 5  -1634845.79521
 91  5  4  0  6 59.9950000  0  4G 2G 6G13G12
  20456470.9134   -6280574.36247  -4722181.35462
  19563528.202   -18822777.605 7 -14667085.98522
  18779385.351   -25785953.615 8 -19711286.45821
  22330719.8514   -2278018.75145  -1681382.38461
 91  5  4  0  7 14.9950000  0  4G 2G 6G13G12
  20459026.733    -6267147.285 7  -4711718.72322
  19566405.108   -18807669.137 7 -14655313.17522
  18776323.702   -25802039.939 8 -19723821.23621
  22319364.351    -2337722.976 5  -1727905.04921
 91  5  4  0  7 29.9950000  0  4G 2G 6G13G12
  20461587.069    -6253668.537 7  -4701215.82522
  19569307.280   -18792431.465 7 -14643439.68822
  18773288.421   -25817988.841 8 -19736248.93921
  22308004.8044   -2397407.99445  -1774412.76961
 91  5  4  0  7 44.9950000  0  4G 2G 6G13G12
  20464162.788    -6240135.437 7  -4690670.58022
  19572229.913   -18777061.764 7 -14631463.31922
  18770280.757   -25833797.301 8 -19748567.19921
  22296648.3584   -2457070.67745  -1820903.09861
 91  5  4  0  7 59.9950000  0  4G 2G 6G13G12
  20466750.8194   -6226553.45947  -4680087.24562
  19575176.054   -18761565.844 7 -14619388.59422
  18767297.741   -25849471.293 8 -19760780.68021
  22285296.8584   -2516716.51345  -1867380.27561
 91  5  4  0  8 14.9950000  0  4G 2G 6G13G12
  20469345.3984   -6212927.39647  -4669469.56162
  19578149.343   -18745948.559 7 -14607219.30522
  18764339.991   -25865015.890 8 -19772893.33921
  22273954.5154   -2576349.98645  -1913847.84061
 91  5  4  0  8 29.9950000  0  4G 2G 6G13G12
  20471944.7494   -6199253.40547  -4658814.53262
  19581147.694   -18730206.184 7 -14594952.53822
  18761406.374   -25880427.496 8 -19784902.36321
  22262609.733    -2635967.120 5  -1960302.67221
 91  5  4  0  8 44.9950000  0  4G 2G 6G13G12
  20474558.905    -6185529.257 7  -4648120.41922
  19584165.030   -18714336.613 7 -14582586.66422
  18758499.819   -25895704.017 8 -19796806.12921
  22251266.671    -2695565.312 5  -2006742.74921
 91  5  4  0  8 59.9950000  0  4G 2G 6G13G12
  20477178.687    -6171756.252 7  -4637388.23422
  19587209.991   -18698341.146 7 -14570122.68522
  18755618.569   -25910846.904 8 -19808605.76421
  22239923.374    -2755145.649 5  -2053168.90821
 91  5  4  0  9 14.9950000  0  4G 2G 6G13G12
  20479810.507    -6157931.967 7  -4626616.09122
  19590276.069   -18682217.351 7 -14557558.71422
  18752762.577   -25925853.550 8 -19820299.23321
  22228595.1324   -2814705.22545  -2099578.90261
 91  5  4  0  9 29.9950000  0  4G 2G 6G13G12
  20482447.765    -6144061.796 7  -4615808.19122
  19593370.288   -18665970.778 7 -14544899.07522
  18749931.390   -25940729.683 8 -19831891.01121
  22217259.0774   -2874249.20345  -2145976.74961
 91  5  4  0  9 44.9950000  0  4G 2G 6G13G12
  20485099.9054   -6130147.65547  -4604966.03362
  19596482.015   -18649603.357 7 -14532145.26122
  18747125.374   -25955477.335 8 -19843382.67521
  22205931.0304   -2933779.25345  -2192363.71361
 91  5  4  0  9 59.9950000  0  4G 2G 6G13G12
  20487753.1324   -6116182.93047  -4594084.45862
  19599623.468   -18633108.853 7 -14519292.42422
  18744344.476   -25970090.245 8 -19854769.34121
  22194609.0234   -2993288.66345  -2238734.61261
 91  5  4  0 10 14.9950000  0  4G 2G 6G13G12
  20490419.085    -6102169.202 7  -4583164.69022
  19602784.663   -18616488.996 7 -14506341.90822
  18741589.312   -25984570.285 8 -19866052.47821
  22183283.0544   -3052778.79145  -2285090.51261
 91  5  4  0 10 29.9950000  0  4G 2G 6G13G12
  20493097.366    -6088107.958 7  -4572207.90122
  19605969.327   -18599744.953 7 -14493294.62622
  18738858.866   -25998918.823 8 -19877233.14221
  22171971.3514   -3112250.62745  -2331432.12161
 91  5  4  0 10 44.9950000  0  4G 2G 6G13G12
  20495782.507    -6073997.761 7  -4561212.97122
  19609181.187   -18582875.352 7 -14480149.50822
  18736153.444   -26013134.402 8 -19888310.20021
  22160660.960    -3171702.368 5  -2377758.08521
 91  5  4  0 10 59.9950000  0  4G 2G 6G13G12
  20498476.093    -6059833.050 7  -4550175.55222
  19612418.210   -18565874.944 7 -14466902.45722
  18733474.694   -26027211.567 8 -19899279.40321
  22149348.968    -3231128.325 5  -2424063.97621
 91  5  4  0 11 14.9950000  0  4G 2G 6G13G12
  20501179.444    -6045622.968 7  -4539102.78222
  19615677.093   -18548753.164 7 -14453560.83822
  18730821.366   -26041159.995 8 -19910148.29321
  22138047.413    -3290537.524 5  -2470356.77721
 91  5  4  0 11 29.9950000  0  4G 2G 6G13G12
  20503891.288    -6031362.984 7  -4527991.12922
  19618959.069   -18531505.453 7 -14440121.09322
  18728191.3274  -26054975.27448 -19920913.43561
  22126741.765    -3349925.113 5  -2516632.77621
 91  5  4  0 11 44.9950000  0  4G 2G 6G13G12
  20506613.655    -6017052.571 7  -4516840.18122
  19622264.046   -18514131.248 7 -14426582.77822
  18725587.468   -26068657.115 8 -19931574.59421
  22115446.913    -3409290.258 5  -2562891.24821
 91  5  4  0 11 59.9950000  0  4G 2G 6G13G12
  20509349.390    -6002687.053 7  -4505646.29422
  19625595.765   -18496626.103 7 -14412942.43222
  18723011.124   -26082200.772 8 -19942128.07721
  22104159.257    -3468627.915 5  -2609128.31921
 91  5  4  0 12 14.9950000  0  4G 2G 6G13G12
  20512095.343    -5988270.813 7  -4494412.88022
  19628951.2264  -18478994.46647 -14399203.52462
  18720458.726   -26095610.696 8 -19952577.35521
  22092867.6634   -3527942.42145  -2655347.32961
 91  5  4  0 12 29.9950000  0  4G 2G 6G13G12
  20514848.601    -5973802.504 7  -4483138.89722
  19632329.4294  -18461235.00847 -14385365.01662
  18717932.296   -26108885.841 8 -19962921.60821
  22081584.663    -3587232.037 5  -2701546.97221
 91  5  4  0 12 44.9950000  0  4G 2G 6G13G12
  20517611.140    -5959283.662 7  -4471825.53022
  19635732.023   -18443349.336 7 -14371428.15322
  18715431.866   -26122027.950 8 -19973162.19721
  22070307.679    -3646497.928 5  -2747728.10821
 91  5  4  0 12 59.9950000  0  4G 2G 6G13G12
  20520383.999    -5944717.006 7  -4460474.91022
  19639158.2494  -18425340.47347 -14357395.29962
  18712955.9524  -26135040.05048 -19983301.48361
  22059032.382    -3705742.659 5  -2793892.76521
 91  5  4  0 13 14.9950000  0  4G 2G 6G13G12
  20523162.608    -5930103.227 7  -4449087.57022
  19642611.7494  -18407209.07047 -14343266.96362
  18710504.194   -26147922.688 8 -19993339.88821
  22047761.7804   -3764966.54545  -2840041.16161
 91  5  4  0 13 29.9950000  0  4G 2G 6G13G12
  20525956.819    -5915434.588 7  -4437657.48522
  19646083.9374  -18388947.63547 -14329037.30062
  18708078.616   -26160668.364 8 -20003271.56721
  22036497.382    -3824161.713 5  -2886167.17821
 91  5  4  0 13 44.9950000  0  4G 2G 6G13G12
  20528755.030    -5900714.137 7  -4426187.02422
  19649583.9214  -18370559.34347 -14314708.78962
  18705678.312   -26173280.525 8 -20013099.21421
  22025239.0234   -3883330.99645  -2932273.02261
 91  5  4  0 13 59.9950000  0  4G 2G 6G13G12
  20531568.155    -5885943.148 7  -4414677.18322
  19653109.3514  -18352045.58247 -14300282.51162
  18703303.671   -26185760.723 8 -20022824.02721
  22013983.0234   -3942475.43245  -2978359.51861
 91  5  4  0 14 14.9950000  0  4G 2G 6G13G12
  20534390.780    -5871120.714 7  -4403127.25422
  19656652.8044  -18333405.55247 -14285757.84162
  18700954.046   -26198107.985 8 -20032445.25321
  22002733.0304   -4001593.50845  -3024425.46261
 91  5  4  0 14 29.9950000  0  4G 2G 6G13G12
  20537218.374    -5856246.931 7  -4391537.31322
  19660227.2884  -18314639.38647 -14271134.88262
  18698629.374   -26210322.621 8 -20041963.13721
  21991486.5384   -4060685.18045  -3070470.82061
 91  5  4  0 14 44.9950000  0  4G 2G 6G13G12
  20540059.312    -5841326.120 7  -4379910.72822
  19663819.4214  -18295751.58147 -14256417.14362
  18696329.2964  -26222409.08848 -20051381.15361
  21980250.9764   -4119754.48145  -3116498.73961
 91  5  4  0 14 59.9950000  0  4G 2G 6G13G12
  20542908.249    -5826347.771 7  -4368239.30422
  19667438.1484  -18276731.65847 -14241596.45162
  18694056.507   -26234357.025 8 -20060691.21921
  21969015.9764   -4178790.58845  -3162500.81961
 91  5  4  0 15 14.9950000  0  4G 2G 6G13G12
  20545768.265    -5811316.812 7  -4356526.88922
  19671084.6164  -18257584.69447 -14226676.77262
  18691807.1944  -26246171.61048 -20069897.37461
  21957789.6874   -4237798.23646  -3208480.68961
 91  5  4  0 15 29.9950000  0  4G 2G 6G13G12
  20548637.562    -5796239.606 7  -4344778.43822
  19674748.4374  -18238317.11747 -14211663.10762
  18689584.093   -26257859.341 8 -20079004.68421
  21946560.171    -4296783.364 5  -3254443.04521
 91  5  4  0 15 44.9950000  0  4G 2G 6G13G12
  20551517.804    -5781112.196 7  -4332990.86722
  19678438.7804  -18218925.12447 -14196552.49562
  18687384.601   -26269416.475 8 -20088010.22721
  21935342.296    -4355741.895 5  -3300384.64221
 91  5  4  0 15 59.9950000  0  4G 2G 6G13G12
  20554406.679    -5765931.821 7  -4321162.02422
  19682153.5154  -18199406.15647 -14181342.93662
  18685210.468   -26280840.395 8 -20096911.97021
  21924129.1084   -4414670.91546  -3346303.25761
 91  5  4  0 16 14.9950000  0  4G 2G 6G13G12
  20557302.538    -5750703.172 7  -4309295.56322
  19685892.9134  -18179765.06147 -14166038.21862
  18683061.132   -26292136.085 8 -20105713.78721
  21912921.827    -4473574.713 6  -3392202.21721
 91  5  4  0 16 29.9950000  0  4G 2G 6G13G12
  20560209.288    -5735426.840 7  -4297391.95422
  19689653.0934  -18160002.56947 -14150638.90762
  18680935.6164  -26303304.26248 -20114416.25761
  21901713.148    -4532453.545 6  -3438081.72021
 91  5  4  0 16 44.9950000  0  4G 2G 6G13G12
  20563124.718    -5720099.210 7  -4285448.36422
  19693437.7414  -18140115.08347 -14135142.19262
  18678835.163   -26314341.340 8 -20123016.56821
  21890514.8354   -4591303.48646  -3483938.70761
 91  5  4  0 16 59.9950000  0  4G 2G 6G13G12
  20566051.038    -5704718.150 7  -4273463.14822
  19697248.2494  -18120100.61447 -14119546.53662
  18676760.319   -26325245.705 8 -20131513.46121
  21879322.3354   -4650122.26446  -3529771.41161
 91  5  4  0 17 14.9950000  0  4G 2G 6G13G12
  20568988.7804   -5689279.37447  -4261432.96062
  19701080.2574  -18099955.06347 -14103848.73462
  18674711.413   -26336013.250 8 -20139903.74621
  21868137.1084   -4708905.29646  -3575576.27161
 91  5  4  0 17 29.9950000  0  4G 2G 6G13G12
  20571937.476    -5673787.471 7  -4249361.36822
  19704936.4914  -18079683.11747 -14088052.44262
  18672687.749   -26346648.575 8 -20148190.99921
  21856955.733    -4767656.892 6  -3621356.62921
 91  5  4  0 17 44.9950000  0  4G 2G 6G13G12
  20574898.257    -5658244.109 7  -4237249.68022
  19708816.7334  -18059286.64247 -14072159.11662
  18670688.382   -26357153.734 8 -20156376.82721
  21845781.687    -4826378.319 6  -3667113.47021
 91  5  4  0 17 59.9950000  0  4G 2G 6G13G12
  20577863.226    -5642650.668 7  -4225098.97322
  19712721.0934  -18038766.99947 -14056169.81462
  18668714.6014  -26367529.94048 -20164462.16861
  21834614.726    -4885070.694 6  -3712847.68621
 91  5  4  0 18 14.9950000  0  4G 2G 6G13G12
  20580840.538    -5627007.867 7  -4212909.80522
  19716650.9294  -18018125.27747 -14040085.39262
  18666764.273   -26377778.306 8 -20172447.89721
  21823450.210    -4943734.623 6  -3758559.74421
 91  5  4  0 18 29.9950000  0  4G 2G 6G13G12
  20583826.827    -5611310.831 7  -4200678.37322
  19720603.5074  -17997356.41847 -14023901.89462
  18664838.9764  -26387893.95848 -20180330.21361
  21812290.882    -5002364.697 6  -3804245.40621
 91  5  4  0 18 44.9950000  0  4G 2G 6G13G12
  20586825.905    -5595567.430 7  -4188410.81322
  19724575.4994  -17976468.63547 -14007625.73462
  18662937.999   -26397885.180 8 -20188115.57021
  21801139.210    -5060968.676 6  -3849910.75721
 91  5  4  0 18 59.9950000  0  4G 2G 6G13G12
  20589829.780    -5579771.995 7  -4176102.70422
  19728576.4374  -17955456.36447 -13991252.56962
  18661061.1944  -26407746.52748 -20195799.72561
  21789994.726    -5119540.517 6  -3895551.02821
 91  5  4  0 19 14.9950000  0  4G 2G 6G13G12
  20592846.921    -5563921.741 7  -4163751.88422
  19732598.5384  -17934316.95247 -13974780.33262
  18659209.8434  -26417475.48248 -20203380.71861
  21778856.140    -5178077.136 6  -3941163.88421
 91  5  4  0 19 29.9950000  0  4G 2G 6G13G12
  20595874.3904   -5548008.45347  -4151351.94562
  19736646.9604  -17913042.24647 -13958202.67362
  18657385.2184  -26427063.81248 -20210852.13961
  21767724.8194   -5236570.03646  -3986742.66761
 91  5  4  0 19 44.9950000  0  4G 2G 6G13G12
  20598912.9764   -5532041.38347  -4138910.09962
  19740719.8514  -17891641.72547 -13941526.97562
  18655585.632   -26436520.973 8 -20218221.33921
  21756601.007    -5295028.056 6  -4032294.27421
 91  5  4  0 19 59.9940000  0  4G 2G 6G13G12
  20601963.080    -5516020.336 7  -4126426.19521
  19744814.8544  -17870115.70247 -13924753.48762
  18653811.5184  -26445845.36148 -20225487.08861
  21745482.541    -5353445.963 6  -4077814.62521
 91  5  4  0 20 14.9940000  0  4G 2G 6G13G12
  20605021.8304   -5499943.79647  -4113899.04861
  19748935.6824  -17848462.02946 -13907880.52762
  18652061.1114  -26455039.09448 -20232651.02661
  21734373.705    -5411831.813 6  -4123310.01721
 91  5  4  0 20 29.9940000  0  4G 2G 6G13G12
  20608090.455    -5483810.865 7  -4101327.95721
  19753081.9864  -17826680.54846 -13890907.98362
  18650337.3464  -26464099.72248 -20239711.24561
  21723272.5024   -5470179.39346  -4168775.54861
 91  5  4  0 20 44.9940000  0  4G 2G 6G13G12
  20611172.7604   -5467621.32047  -4088712.75862
  19757250.9324  -17804770.95246 -13873835.60562
  18648638.025   -26473027.401 8 -20246667.86721
  21712175.8614   -5528488.30546  -4214210.97661
 91  5  4  0 20 59.9940000  0  4G 2G 6G13G12
  20614265.6744   -5451374.41047  -4076052.85562
  19761444.1974  -17782732.69146 -13856662.97162
  18646964.5184  -26481821.70548 -20253520.56561
  21701085.9474   -5586757.55446  -4259615.49461
 91  5  4  0 21 14.9940000  0  4G 2G 6G13G12
  20617368.174    -5435070.097 7  -4063348.22122
  19765661.4244  -17760565.77347 -13839390.08062
  18645316.9324  -26490482.25948 -20260269.04061
  21690007.080    -5644986.708 6  -4304988.76621
 91  5  4  0 21 29.9940000  0  4G 2G 6G13G12
  20620480.197    -5418708.990 7  -4050599.33121
  19769904.7214  -17738271.18947 -13822017.71362
  18643694.463   -26499009.913 8 -20266913.95721
  21678932.5334   -5703176.13346  -4350331.09361
 91  5  4  0 21 44.9940000  0  4G 2G 6G13G12
  20623604.3464   -5402292.36747  -4037807.18961
  19774172.5574  -17715850.19547 -13804546.85062
  18642096.3074  -26507406.59848 -20273456.81861
  21667867.6194   -5761326.82946  -4395643.23761
 91  5  4  0 21 59.9940000  0  4G 2G 6G13G12
  20626738.6044   -5385821.29947  -4024972.61962
  19778463.1744  -17693304.08147 -13786978.48862
  18640522.9554  -26515673.60748 -20279898.62861
  21656806.3154   -5819439.68246  -4440925.88161
 91  5  4  0 22 14.9940000  0  4G 2G 6G13G12
  20629882.3544   -5369294.88747  -4012094.92162
  19782777.5104  -17670632.18147 -13769312.10762
  18638974.768   -26523810.028 8 -20286238.68521
  21645755.1904   -5877513.36646  -4486178.04061
 91  5  4  0 22 29.9940000  0  4G 2G 6G13G12
  20633038.9944   -5352709.10247  -3999170.96062
  19787116.9794  -17647830.39146 -13751544.51462
  18637451.8854  -26531811.91648 -20292473.91361
  21634714.361    -5935543.415 6  -4531396.17721
 91  5  4  0 22 44.9940000  0  4G 2G 6G13G12
  20636209.4164   -5336065.38047  -3986201.86062
  19791479.9554  -17624900.33747 -13733676.96962
  18635954.4164  -26539680.99648 -20298605.65261
  21623680.5884   -5993530.92646  -4576581.17161
 91  5  4  0 22 59.9940000  0  4G 2G 6G13G12
  20639386.2294   -5319367.55747  -3973190.59762
  19795865.5574  -17601846.04947 -13715712.62862
  18634482.1354  -26547421.21448 -20304636.97761
  21612651.0334   -6051479.44546  -4621735.78861
 91  5  4  0 23 14.9940000  0  4G 2G 6G13G12
  20642572.7834   -5302608.16147  -3960131.36162
  19800277.7994  -17578660.35847 -13697645.89161
  18633034.783   -26555025.640 8 -20310562.49121
  21601633.861    -6109381.376 6  -4666854.09021
 91  5  4  0 23 29.9940000  0  4G 2G 6G13G12
  20645774.2524   -5285788.31347  -3947025.01462
  19804715.6044  -17555344.40547 -13679477.65262
  18631613.611   -26562495.335 8 -20316383.02521
  21590623.6744   -6167237.43246  -4711936.66061
 91  5  4  0 23 44.9940000  0  4G 2G 6G13G12
  20648985.6354   -5268909.88847  -3933873.03061
  19809178.1044  -17531900.26847 -13661209.52662
  18630216.986   -26569832.587 8 -20322100.35021
  21579621.861    -6225049.336 6  -4756984.81621
 91  5  4  0 23 59.9940000  0  4G 2G 6G13G12
  20652207.9944   -5251978.99047  -3920680.15562
  19813661.0884  -17508334.15647 -13642846.35562
  18628844.7754  -26577043.54748 -20327719.27361
  21568627.0414   -6282822.85446  -4802003.08161
 91  5  4  0 24 14.9940000  0  4G 2G 6G13G12
  20655442.3774   -5234989.05347  -3907441.27662
  19818169.9084  -17484639.80447 -13624383.25562
  18627497.807   -26584121.958 8 -20333234.90921
  21557642.1194   -6340551.07446  -4846986.03761
 91  5  4  0 24 29.9940000  0  4G 2G 6G13G12
  20658685.5884   -5217938.03847  -3894154.80362
  19822705.2684  -17460815.55847 -13605818.94662
  18626175.565   -26591066.181 8 -20338645.98021
  21546666.7294   -6398231.87446  -4891932.05561
 91  5  4  0 24 44.9940000  0  4G 2G 6G13G12
  20661941.3464   -5200829.78447  -3880823.72962
  19827260.2294  -17436864.92247 -13587156.14661
  18624879.2994  -26597880.01648 -20343955.45661
  21535697.713    -6455868.517 6  -4936843.65921
 91  5  4  0 24 59.9940000  0  4G 2G 6G13G12
  20665207.1744   -5183660.24847  -3867444.90362
  19831844.6114  -17412784.04347 -13568391.86262
  18623608.5804  -26604559.62348 -20349160.33261
  21524740.033    -6513456.621 6  -4981717.43321
 91  5  4  0 25 14.9940000  0  4G 2G 6G13G12
  20668487.4084   -5166432.11447  -3854020.41462
  19836449.8614  -17388576.18247 -13549528.63462
  18622363.1584  -26611108.09348 -20354263.02861
  21513791.619    -6570998.788 6  -5026555.42421
 91  5  4  0 25 29.9940000  0  4G 2G 6G13G12
  20671775.0654   -5149139.79847  -3840545.91862
  19841082.7294  -17364235.63447 -13530562.01562
  18621142.4474  -26617520.11748 -20359259.40161
  21502850.1824   -6628489.02746  -5071352.95361
 91  5  4  0 25 44.9940000  0  4G 2G 6G13G12
  20675079.3384   -5131783.80547  -3827021.80661
  19845738.205   -17339763.237 7 -13511492.65522
  18619948.8544  -26623796.56948 -20364150.13561
  21491919.580    -6685927.594 6  -5116110.22121
 91  5  4  0 25 59.9940000  0  4G 2G 6G13G12
  20678395.0884   -5114370.37747  -3813452.93861
  19850418.229   -17315165.199 7 -13492325.39322
  18618779.307   -26629943.335 8 -20368939.81221
  21480997.3774   -6743320.22346  -5160831.69661
 91  5  4  0 26 14.9940000  0  4G 2G 6G13G12
  20681719.4324   -5096898.81347  -3799838.77262
  19855126.0254  -17290441.21047 -13473059.98462
  18617633.3304  -26635960.34548 -20373628.38861
  21470085.580    -6800666.117 6  -5205516.74921
 91  5  4  0 26 29.9940000  0  4G 2G 6G13G12
  20685055.8224   -5079369.99747  -3786179.99262
  19859854.838   -17265592.056 7 -13453697.05421
  18616512.7684  -26641848.47248 -20378216.53061
  21459180.2994   -6857965.71946  -5250165.73661
 91  5  4  0 26 44.9940000  0  4G 2G 6G13G12
  20688401.9474   -5061783.26547  -3772476.08462
  19864604.4244  -17240617.42047 -13434236.34062
  18615417.4004  -26647607.36848 -20382703.97261
  21448288.713    -6915218.143 6  -5294777.95221
 91  5  4  0 26 59.9940000  0  4G 2G 6G13G12
  20691760.5254   -5044133.20047  -3758722.82961
  19869383.658   -17215511.888 7 -13414673.63022
  18614346.6584  -26653231.68248 -20387086.54861
  21437402.6584   -6972417.65746  -5339348.94961
 91  5  4  0 27 14.9940000  0  4G 2G 6G13G12
  20695133.7214   -5026415.50947  -3744916.86862
  19874186.525   -17190271.607 7 -13395005.92122
  18613302.6434  -26658717.65048 -20391361.32661
  21426530.268    -7029559.797 6  -5383875.24621
 91  5  4  0 27 29.9940000  0  4G 2G 6G13G12
  20698515.049    -5008642.561 7  -3731067.85822
  19879013.143   -17164908.940 7 -13375242.84922
  18612282.5024  -26664077.66648 -20395537.95661
  21415664.338    -7086656.330 6  -5428365.98921
 91  5  4  0 27 44.9940000  0  4G 2G 6G13G12
  20701908.4794   -4990804.47947  -3717168.09662
  19883864.846   -17139414.304 7 -13355376.94722
  18611288.0494  -26669302.22148 -20399609.02961
  21404808.4794   -7143697.21346  -5472813.37761
 91  5  4  0 27 59.9940000  0  4G 2G 6G13G12
  20705315.7604   -4972901.98947  -3703218.14261
  19888741.533   -17113788.499 7 -13335408.83322
  18610319.8384  -26674391.98648 -20403575.07561
  21393965.5654   -7200682.85546  -5517217.73061
 91  5  4  0 28 14.9940000  0  4G 2G 6G13G12
  20708734.2834   -4954939.67347  -3689221.56662
  19893642.393   -17088036.285 7 -13315342.21722
  18609375.8614  -26679352.12248 -20407440.11261
  21383130.932    -7257617.543 6  -5561582.37521
 91  5  4  0 28 29.9940000  0  4G 2G 6G13G12
  20712161.471    -4936916.692 7  -3675177.73321
  19898566.236   -17062156.913 7 -13295176.51722
  18608456.7524  -26684181.82448 -20411203.51061
  21372306.6584   -7314500.07146  -5605906.37561
 91  5  4  0 28 44.9940000  0  4G 2G 6G13G12
  20715602.6114   -4918826.31547  -3661081.37161
  19903516.838   -17036143.864 7 -13274906.65322
  18607564.2444  -26688874.54048 -20414860.16961
  21361493.7524   -7371323.33246  -5650184.18461
 91  5  4  0 28 59.9940000  0  4G 2G 6G13G12
  20719058.2214   -4900673.17047  -3646936.10361
  19908492.002   -17010002.066 7 -13254536.46221
  18606695.8384  -26693435.21748 -20418413.94261
  21350689.525    -7428091.777 6  -5694419.28921
 91  5  4  0 29 14.9940000  0  4G 2G 6G13G12
  20722523.5414   -4882464.33147  -3632747.43261
  19913490.315   -16983738.689 7 -13234071.54221
  18605851.6434  -26697871.17548 -20421870.52561
  21339897.1044   -7484812.03246  -5738616.84361
 91  5  4  0 29 29.9940000  0  4G 2G 6G13G12
  20726000.924    -4864195.115 7  -3618511.72121
  19918511.338   -16957349.574 7 -13213508.63622
  18605032.6824  -26702178.00148 -20425226.48861
  21329113.166    -7541479.390 6  -5782773.17521
 91  5  4  0 29 44.9940000  0  4G 2G 6G13G12
  20729487.7754   -4845867.87547  -3604230.79461
  19923554.768   -16930837.048 7 -13192849.57521
  18604237.5494  -26706358.32348 -20428483.87661
  21318340.5964   -7598095.75546  -5826889.76861
 91  5  4  0 29 59.9940000  0  4G 2G 6G13G12
  20732987.5494   -4827481.30147  -3589903.63361
  19928624.908   -16904199.888 7 -13172093.38921
  18603465.6434  -26710411.20948 -20431641.96661
  21307575.221    -7654659.526 6  -5870965.39021
 91  5  4  0 30 14.9940000  0  4G 2G 6G13G12
  20736500.5024   -4809031.32547  -3575527.06961
  19933717.838   -16877434.253 7 -13151237.10221
  18602719.7834  -26714332.62048 -20434697.61161
  21296822.1274   -7711166.22346  -5914996.52161
 91  5  4  0 30 29.9940000  0  4G 2G 6G13G12
  20740019.1904   -4790525.02947  -3561106.61761
  19938834.682   -16850547.489 7 -13130286.42721
  18601996.4324  -26718129.76548 -20437656.42061
  21286080.697    -7767622.613 6  -5958988.46321
 91  5  4  0 30 44.9940000  0  4G 2G 6G13G12
  20743554.994    -4771959.404 7  -3546639.93721
  19943974.541   -16823536.744 7 -13109239.14122
  18601298.6044  -26721799.96448 -20440516.30961
  21275347.4634   -7824025.29546  -6002938.54461
 91  5  4  0 30 59.9940000  0  4G 2G 6G13G12
  20747099.666    -4753337.842 7  -3532129.66821
  19949138.502   -16796405.483 7 -13088097.94822
  18600623.8694  -26725347.05648 -20443280.27161
  21264625.6744   -7880377.31646  -6046849.15061
 91  5  4  0 31 14.9940000  0  4G 2G 6G13G12
  20750651.072    -4734655.166 7  -3517571.78021
  19954323.025   -16769148.507 7 -13066858.79321
  18599973.2994  -26728765.86848 -20445944.27561
  21253910.7754   -7936673.26346  -6090716.06461
 91  5  4  0 31 29.9940000  0  4G 2G 6G13G12
  20754217.690    -4715912.495 7  -3502967.14221
  19959535.104   -16741767.502 7 -13045522.98921
  18599346.9944  -26732057.86548 -20448509.46661
  21243209.9324   -7992914.10146  -6134540.03361
 91  5  4  0 31 44.9940000  0  4G 2G 6G13G12
  20757794.744    -4697112.146 6  -3488317.56421
  19964768.471   -16714264.903 6 -13024092.44421
  18598743.2214  -26735225.57348 -20450977.80461
  21232516.713    -8049101.794 6  -6178322.59921
 91  5  4  0 31 59.9940000  0  4G 2G 6G13G12
  20761383.8694   -4678249.80346  -3473619.67961
  19970025.682   -16686636.695 6 -13002564.01921
  18598165.4404  -26738265.06648 -20453346.23261
  21221834.4634   -8105231.76946  -6222060.17761
 91  5  4  0 32 14.9940000  0  4G 2G 6G13G12
  20764987.5494   -4659323.28146  -3458871.77761
  19975308.463   -16658880.954 6 -12980936.21721
  18597611.6044  -26741174.41148 -20455613.25461
  21211163.830    -8161301.537 6  -6265750.85121
 91  5  4  0 32 29.9940000  0  4G 2G 6G13G12
  20768599.596    -4640342.932 6  -3444081.94321
  19980611.690   -16631007.856 6 -12959216.97021
  18597080.2524  -26743963.95248 -20457786.91661
  21200503.275    -8217320.778 6  -6309402.13221
 91  5  4  0 32 44.9940000  0  4G 2G 6G13G12
  20772218.8934   -4621304.38246  -3429246.74861
  19985939.127   -16603013.378 6 -12937403.13921
  18596574.0024  -26746629.51548 -20459863.97761
  21189855.830    -8273284.799 6  -6353010.41021
 91  5  4  0 32 59.9940000  0  4G 2G 6G13G12
  20775851.2604   -4602205.18246  -3414364.29761
  19991290.752   -16574895.200 6 -12915492.92021
  18596089.7684  -26749168.87748 -20461842.69961
  21179216.6824   -8329190.97346  -6396573.59361
 91  5  4  0 33 14.9940000  0  4G 2G 6G13G12
  20779500.580    -4583050.932 6  -3399438.95121
  19996662.643   -16546659.181 6 -12893490.87621
  18595631.0804  -26751588.13548 -20463727.83261
  21168586.9404   -8385044.53946  -6440095.78961
 91  5  4  0 33 29.9940000  0  4G 2G 6G13G12
  20783162.088    -4563837.002 6  -3384467.10221
  20002058.791   -16518301.087 6 -12871393.70621
  18595193.6584  -26753882.76048 -20465515.84961
  21157969.2294   -8440840.73346  -6483573.27261
 91  5  4  0 33 44.9940000  0  4G 2G 6G13G12
  20786826.5334   -4544562.35046  -3369447.93161
  20007477.611   -16489819.732 6 -12849200.49421
  18594781.3854  -26756051.93048 -20467206.11062
  21147365.729    -8496578.093 6  -6527004.91821
 91  5  4  0 33 59.9940000  0  4G 2G 6G13G12
  20790502.7364   -4525233.16046  -3354386.26461
  20012920.377   -16461221.769 6 -12826916.41621
  18594391.1974  -26758102.12348 -20468803.66062
  21136766.7834   -8552262.44746  -6570395.25861
 91  5  4  0 34 14.9940000  0  4G 2G 6G13G12
  20794193.377    -4505837.630 6  -3339272.90721
  20018387.986   -16432495.552 6 -12804532.40021
  18594025.8224  -26760021.79848 -20470299.50962
  21126183.190    -8607881.725 6  -6613734.88021
 91  5  4  0 34 29.9940000  0  4G 2G 6G13G12
  20797895.1434   -4486381.78546  -3324112.55061
  20023877.322   -16403647.022 6 -12782053.07821
  18593683.2294  -26761817.11848 -20471698.45761
  21115607.0654   -8663441.48646  -6657028.12961
 91  5  4  0 34 44.9940000  0  4G 2G 6G13G12
  20801613.166    -4466873.670 6  -3308911.47321
  20029388.518   -16374684.701 6 -12759485.08721
  18593364.2134  -26763496.45648 -20473007.02562
  21105046.8854   -8718949.62946  -6700281.17161
 91  5  4  0 34 59.9940000  0  4G 2G 6G13G12
  20805329.0804   -4447304.17746  -3293662.55861
  20034924.143   -16345599.546 6 -12736821.38521
  18593068.1744  -26765051.07348 -20474218.41761
  21094495.7524   -8774396.53246  -6743486.47461
 91  5  4  0 35 14.9940000  0  4G 2G 6G13G12
  20809067.557    -4427675.302 6  -3278367.38021
  20040481.885   -16316393.976 6 -12714063.84721
  18592795.6504  -26766483.11548 -20475334.29262
  21083957.8854   -8829783.87746  -6786645.38561
 91  5  4  0 35 29.9940000  0  4G 2G 6G13G12
  20812815.9714   -4407991.72646  -3263029.57261
  20046060.643   -16287072.886 6 -12691216.30321
  18592545.9864  -26767797.55148 -20476358.52762
  21073426.9004   -8885116.25646  -6829761.45261
 91  5  4  0 35 44.9940000  0  4G 2G 6G13G12
  20816572.4554   -4388251.28646  -3247647.44961
  20051662.596   -16257634.079 6 -12668277.02221
  18592319.1194  -26768992.32948 -20477289.52062
  21062906.8544   -8940391.02846  -6872832.63861
 91  5  4  0 35 59.9940000  0  4G 2G 6G13G12
  20820336.354    -4368454.325 6  -3232221.29321
  20057288.182   -16228078.345 6 -12645246.63121
  18592112.5494  -26770068.33048 -20478127.96361
  21052399.6824   -8995608.34746  -6915859.05461
 91  5  4  0 36 14.9940000  0  4G 2G 6G13G12
  20824113.565    -4348600.081 6  -3216750.49721
  20062933.205   -16198405.005 6 -12622124.59821
  18591930.3304  -26771024.78748 -20478873.25161
  21041903.4714   -9050767.01646  -6958839.76561
 91  5  4  0 36 29.9940000  0  4G 2G 6G13G12
  20827906.010    -4328685.518 6  -3201232.70521
  20068603.471   -16168611.063 6 -12598908.58721
  18591772.9714  -26771858.93148 -20479523.23562
  21031420.010    -9105863.623 6  -7001772.11421
 91  5  4  0 36 44.9940000  0  4G 2G 6G13G12
  20831706.065    -4308715.749 6  -3185671.89221
  20074295.713   -16138701.948 6 -12575602.83321
  18591634.6114  -26772575.97648 -20480081.97461
  21020946.8464   -9160902.82646  -7044659.74461
 91  5  4  0 36 59.9940000  0  4G 2G 6G13G12
  20835514.018    -4288682.480 6  -3170061.59721
  20080009.393   -16108669.851 6 -12552201.24821
  18591522.7604  -26773168.22148 -20480543.46361
  21010486.4474   -9215876.24446  -7087496.10761
 91  5  4  0 37 14.9940000  0  4G 2G 6G13G12
  20839341.072    -4268587.163 6  -3154402.95821
  20085748.611   -16078516.197 6 -12528704.95021
  18591435.7834  -26773637.33448 -20480909.00961
  21000036.8614   -9270784.88846  -7130281.99361
 91  5  4  0 37 29.9940000  0  4G 2G 6G13G12
  20843177.994    -4248438.588 6  -3138702.81521
  20091507.729   -16048250.104 6 -12505121.03721
  18591367.8544  -26773992.45948 -20481185.72661
  20989597.7834   -9325637.34246  -7173024.10061
 91  5  4  0 37 44.9940000  0  4G 2G 6G13G12
  20847022.221    -4228232.167 6  -3122957.59821
  20097287.8304  -16017867.21446 -12481446.11161
  18591323.0884  -26774229.04648 -20481370.08062
  20979171.916    -9380428.744 6  -7215718.63221
 91  5  4  0 37 59.9940000  0  4G 2G 6G13G12
  20850879.283    -4207971.268 6  -3107169.93821
  20103093.361   -15987370.981 6 -12457682.87021
  18591298.8774  -26774350.58848
  20968754.8384   -9435161.92346  -7258367.79961
 91  5  4  0 38 14.9940000  0  4G 2G 6G13G12
  20854741.471    -4187652.107 6  -3091336.87121
  20108917.2294  -15956757.93546 -12433828.60561
  18591297.9324  -26774353.65848
  20958353.1434   -9489832.72146  -7300968.36061
 91  5  4  0 38 29.9940000  0  4G 2G 6G13G12
  20858619.619    -4167275.110 6  -3075458.73821
  20114766.174   -15926028.596 6 -12409883.72221
  18591319.7834  -26774239.08348
  20947962.8384   -9544441.44246  -7343520.54261
 91  5  4  0 38 44.9940000  0  4G 2G 6G13G12
  20862511.252    -4146842.359 6  -3059537.17321
  20120635.5884  -15895185.41846 -12385850.13561
  18591364.8464  -26774009.36248
  20937581.041    -9598989.753 6  -7386025.66121
 91  5  4  0 38 59.9940000  0  4G 2G 6G13G12
  20866412.611    -4126348.238 6  -3043567.77921
  20126526.8384  -15864222.94646 -12361723.59561
  18591430.6744  -26773658.92648
  20927212.3694   -9653471.68146  -7428479.05561
 91  5  4  0 39 14.9940000  0  4G 2G 6G13G12
  20870322.510    -4105799.914 6  -3027556.15421
  20132441.1354  -15833148.50946 -12337509.80861
  18591518.7994  -26773195.12348 -20480564.43562
  20916856.197    -9707893.961 6  -7470885.97321
 91  5  4  0 39 29.9940000  0  4G 2G 6G13G12
  20874245.9634   -4085191.47746  -3011497.68761
  20138376.9944  -15801956.27546 -12313204.23261
  18591629.1974  -26772612.36448 -20480110.34461
  20906513.0024   -9762250.38346  -7513241.56061
 91  5  4  0 39 44.9940000  0  4G 2G 6G13G12
  20878173.025    -4064524.181 6  -2995393.34821
  20144333.8774  -15770648.08446 -12288808.29861
  18591764.2914  -26771912.43548 -20479564.94462
  20896180.549    -9816542.012 6  -7555546.67521
 91  5  4  0 39 59.9940000  0  4G 2G 6G13G12
  20882115.2294   -4043797.42146  -2979242.67561
  20150314.9324  -15739223.24346 -12264321.47261
  18591918.7364  -26771094.50148 -20478927.59262
  20885861.6274   -9870767.81146  -7597800.49161
 91  5  4  0 40 14.9940000  0  4G 2G 6G13G12
  20886074.7684   -4023012.88546  -2963046.99061
  20156315.7914  -15707683.66146 -12239745.23661
  18592096.3074  -26770160.58648 -20478199.87062
  20875556.065    -9924929.075 6  -7640004.02021
 91  5  4  0 40 29.9940000  0  4G 2G 6G13G12
  20890043.236    -4002170.179 6  -2946805.97221
  20162340.0024  -15676029.27346 -12215079.54161
  18592294.7134  -26769110.51948 -20477381.63661
  20865261.6044   -9979025.09746  -7682156.70661
 91  5  4  0 40 44.9940000  0  4G 2G 6G13G12
  20894016.3304   -3981271.48846  -2930521.33761
  20168385.1584  -15644262.51146 -12190326.28461
  18592515.9864  -26767946.91148 -20476474.93261
  20854978.775   -10033057.809 6  -7724260.06721
 91  5  4  0 40 59.9940000  0  4G 2G 6G13G12
  20898005.0804   -3960311.86046  -2914189.22161
  20174452.5104  -15612378.67246 -12165481.79061
  18592761.2684  -26766665.17948 -20475476.18062
  20844710.822   -10087021.836 6  -7766309.90621
 91  5  4  0 41 14.9940000  0  4G 2G 6G13G12
  20902001.494    -3939298.420 6  -2897815.16721
  20180540.7604  -15580385.22046 -12140551.89361
  18593025.6114  -26765272.56348 -20474391.02562
  20834452.572   -10140924.021 6  -7808311.55321
 91  5  4  0 41 29.9940000  0  4G 2G 6G13G12
  20906012.5184   -3918233.58646  -2881401.07061
  20186648.6974  -15548284.50646 -12115538.40761
  18593311.1354  -26763771.70748 -20473221.53362
  20824207.432   -10194766.321 6  -7850266.54221
 91  5  4  0 41 44.9940000  0  4G 2G 6G13G12
  20910035.0334   -3897107.99446  -2864939.62861
  20192779.7444  -15516067.50746 -12090434.31061
  18593619.1194  -26762153.50548 -20471960.59862
  20813973.057   -10248539.094 6  -7892167.36021
 91  5  4  0 41 59.9940000  0  4G 2G 6G13G12
  20914062.619    -3875924.325 6  -2848432.92921
  20198930.7914  -15483737.12046 -12065241.86961
  18593949.4474  -26760421.12448 -20470610.68861
  20803754.447   -10302244.701 6  -7934015.83821
 91  5  4  0 42 14.9940000  0  4G 2G 6G13G12
  20918104.4794   -3854688.86446  -2831885.87761
  20205103.6274  -15451299.92946 -12039966.19861
  18594299.4794  -26758580.82248 -20469176.68862
  20793546.447   -10355889.155 7  -7975816.66921
 91  5  4  0 42 29.9940000  0  4G 2G 6G13G12
  20922156.299    -3833391.412 6  -2815290.52021
  20211299.4864  -15418745.89446 -12014599.48661
  18594672.4324  -26756622.76248 -20467650.93062
  20783352.697   -10409461.881 7  -8017561.59721
 91  5  4  0 42 44.9940000  0  4G 2G 6G13G12
  20926221.2754   -3812037.45646  -2798651.13061
  20217515.7294  -15386080.80646 -11989146.23661
  18595065.9554  -26754552.75348 -20466037.93662
  20773170.900   -10462968.024 7  -8059254.65321
 91  5  4  0 42 59.9940000  0  4G 2G 6G13G12
  20930293.5654   -3790625.64746  -2781966.66661
  20223752.8464  -15353303.51846 -11963605.56061
  18595481.6664  -26752369.55048 -20464336.74362
  20763001.1434  -10516405.79947  -8100894.43761
 91  5  4  0 43 14.9940000  0  4G 2G 6G13G12
  20934382.1974   -3769163.78846  -2765243.20361
  20230009.9244  -15320422.11246 -11937983.74961
  18595916.5334  -26750081.35048 -20462553.72962
  20752843.8074  -10569782.74947  -8142486.82161
 91  5  4  0 43 29.9940000  0  4G 2G 6G13G12
  20938475.9944   -3747647.08146  -2748476.99361
  20236287.5254  -15287431.88746 -11912277.15461
  18596372.7754  -26747683.47948 -20460685.26062
  20742699.2834  -10623093.64347  -8184027.73261
 91  5  4  0 43 44.9940000  0  4G 2G 6G13G12
  20942578.5494   -3726067.56646  -2731661.85261
  20242586.9714  -15254325.18146 -11886479.79061
  18596851.1824  -26745168.53348 -20458725.56462
  20732569.643   -10676330.208 7  -8225510.72421
 91  5  4  0 43 59.9940000  0  4G 2G 6G13G12
  20946700.9944   -3704431.05646  -2714802.29761
  20248908.0254  -15221108.07346 -11860596.39461
  18597351.6504  -26742542.52648 -20456679.33062
  20722450.0574  -10729497.95547  -8266940.09761
 91  5  4  0 44 14.9940000  0  4G 2G 6G13G12
  20950827.2524   -3682739.60346  -2697899.92661
  20255250.986   -15187782.907 6 -11834628.80821
  18597872.3304  -26739807.61248 -20454548.22762
  20712345.416   -10782598.569 7  -8308317.15421
 91  5  4  0 44 29.9940000  0  4G 2G 6G13G12
  20954961.3774   -3660993.78746  -2680955.19861
  20261613.7054  -15154350.43346 -11808577.59761
  18598413.0804  -26736964.75748 -20452333.01462
  20702254.096   -10835632.274 7  -8349642.07721
 91  5  4  0 44 44.9940000  0  4G 2G 6G13G12
  20959115.572    -3639189.952 6  -2663965.26421
  20267996.1584  -15120807.16946 -11782440.06061
  18598975.2754  -26734010.49748 -20450030.99862
  20692175.338   -10888595.063 7  -8390911.73721
 91  5  4  0 44 59.9940000  0  4G 2G 6G13G12
  20963272.674    -3617329.507 6  -2646931.21321
  20274399.3154  -15087154.77146 -11756217.48561
  18599557.4244  -26730946.40248 -20447643.39662
  20682109.8464  -10941487.87847  -8432126.88461
 91  5  4  0 45 14.9940000  0  4G 2G 6G13G12
  20967440.8774   -3595412.01246  -2629852.70461
  20280823.7604  -15053392.85646 -11729909.56761
  18600162.2684  -26727772.42248 -20445170.16762
  20672059.471   -10994309.982 7  -8473286.91721
 91  5  4  0 45 29.9940000  0  4G 2G 6G13G12
  20971621.6044   -3573435.96346  -2612728.57361
  20287270.5024  -15019520.35846 -11703515.48261
  18600786.9714  -26724487.20548 -20442610.26062
  20662020.174   -11047059.557 7  -8514390.43521
 91  5  4  0 45 44.9940000  0  4G 2G 6G13G12
  20975817.0494   -3551402.80446  -2595559.93761
  20293736.3694  -14985539.05446 -11677036.61361
  18601433.6114  -26721092.63748 -20439965.14262
  20651996.236   -11099737.890 7  -8555438.44321
 91  5  4  0 45 59.9940000  0  4G 2G 6G13G12
  20980021.3464   -3529313.08946  -2578347.23461
  20300222.9244  -14951449.68646 -11650473.54061
  18602100.0414  -26717589.53348 -20437235.45562
  20641985.971   -11152345.094 7  -8596431.02221
 91  5  4  0 46 14.9940000  0  4G 2G 6G13G12
  20984233.5104   -3507159.02546  -2561084.39261
  20306732.682   -14917244.675 6 -11623820.35321
  18602788.0724  -26713970.24348 -20434415.23462
  20631989.658   -11204873.056 7  -8637361.86221
 91  5  4  0 46 29.9940000  0  4G 2G 6G13G12
  20988466.8934   -3484944.56746  -2543774.48661
  20313263.3304  -14882928.39146 -11597080.45661
  18603498.6974  -26710239.20648 -20431507.93662
  20622006.557   -11257325.544 7  -8678233.88221
 91  5  4  0 46 44.9940000  0  4G 2G 6G13G12
  20992704.8694   -3462676.48046  -2526422.79361
  20319813.4944  -14848507.57646 -11570259.11161
  18604229.1114  -26706403.29948 -20428518.92462
  20612040.307   -11309708.718 7  -8719051.88721
 91  5  4  0 46 59.9940000  0  4G 2G 6G13G12
  20996954.5024   -3440349.93646  -2509025.55361
  20326383.3304  -14813977.67646 -11543352.76461
  18604979.1744  -26702457.98748 -20425444.65562
  20602084.705   -11362017.375 7  -8759811.83821
 91  5  4  0 47 14.9940000  0  4G 2G 6G13G12
  21001216.8384   -3417959.14746  -2491578.24161
  20332975.7134  -14779333.17446 -11516357.11561
  18605751.5184  -26698397.86248 -20422280.92862
  20592147.643   -11414245.510 7  -8800509.03921
 91  5  4  0 47 29.9940000  0  4G 2G 6G13G12
  21005486.4554   -3395511.85246  -2474086.90361
  20339589.049   -14744582.185 6 -11489278.49421
  18606544.1584  -26694230.90648 -20419033.95562
  20582220.885   -11466400.580 7  -8841149.30121
 91  5  4  0 47 44.9940000  0  4G 2G 6G13G12
  21009763.5724   -3373011.65646  -2456554.34561
  20346221.1664  -14709728.28046 -11462119.67561
  18607358.0964  -26689960.75748 -20415706.57062
  20572313.057   -11518485.479 7  -8881734.88221
 91  5  4  0 47 59.9940000  0  4G 2G 6G13G12
  21014059.9324   -3350453.80546  -2438976.86161
  20352874.9474  -14674767.09846 -11434877.26661
  18608189.8934  -26685583.01248 -20412295.34462
  20562415.190   -11570495.220 7  -8922261.90321
 91  5  4  0 48 14.9940000  0  4G 2G 6G13G12
  21018357.3694   -3327840.84646  -2421356.43161
  20359547.3224  -14639701.40046 -11407553.41361
  18609043.2524  -26681100.42648 -20408802.42662
  20552529.768   -11622432.096 7  -8962732.14521
 91  5  4  0 48 29.9940000  0  4G 2G 6G13G12
  21022670.299    -3305174.947 6  -2403694.76221
  20366240.3934  -14604533.68446 -11380150.07161
  18609915.6434  -26676515.47148 -20405229.73762
  20542661.565   -11674297.993 7  -9003147.07121
 91  5  4  0 48 44.9940000  0  4G 2G 6G13G12
  21026999.3154   -3282447.97046  -2385985.49761
  20372953.4404  -14569256.26246 -11352661.23661
  18610809.1194  -26671820.58048 -20401571.38662
  20532806.830   -11726084.541 7  -9043500.17121
 91  5  4  0 48 59.9940000  0  4G 2G 6G13G12
  21031338.7214   -3259664.06646  -2368231.86361
  20379686.3774  -14533873.10746 -11325090.01261
  18611722.2134  -26667019.82748 -20397830.54762
  20522966.2134  -11777795.36747  -9083794.26361
 91  5  4  0 49 14.9940000  0  4G 2G 6G13G12
  21035680.5574   -3236826.88546  -2350436.72161
  20386438.1044  -14498388.31146 -11297439.59461
  18612655.3694  -26662117.17148 -20394010.30262
  20513138.7214  -11829433.71847  -9124031.88361
 91  5  4  0 49 29.9940000  0  4G 2G 6G13G12
  21040041.1504   -3213933.13446  -2332597.50161
  20393211.3544  -14462798.70546 -11269707.49561
  18613608.5804  -26657109.47948 -20390108.21262
  20503327.5414  -11880995.82947  -9164210.09161
 91  5  4  0 49 44.9940000  0  4G 2G 6G13G12
  21044408.088    -3190981.971 6  -2314713.54621
  20400003.9794  -14427103.77246 -11241893.33261
  18614582.3544  -26651996.28748 -20386123.90962
  20493531.2364  -11932480.60347  -9204328.03561
 91  5  4  0 49 59.9940000  0  4G 2G 6G13G12
  21048786.0724   -3167970.43946  -2296782.54461
  20406818.1744  -14391300.75846 -11213994.94461
  18615575.7524  -26646774.84948 -20382055.26262
  20483748.6504  -11983884.54747  -9244382.99461
 91  5  4  0 50 14.9940000  0  4G 2G 6G13G12
  21053176.002    -3144906.217 6  -2278810.48521
  20413650.2294  -14355397.59146 -11186018.51861
  18616588.1824  -26641453.27948 -20377908.58962
  20473980.088   -12035215.137 7  -9284380.80321
 91  5  4  0 50 29.9940000  0  4G 2G 6G13G12
  21057575.080    -3121785.475 6  -2260794.39521
  20420502.275   -14319390.846 6 -11157961.38521
  18617621.1194  -26636028.10248 -20373681.18662
  20464228.3774  -12086468.36947  -9324318.32361
 91  5  4  0 50 44.9940000  0  4G 2G 6G13G12
  21061983.3854   -3098609.77446  -2242735.48161
  20427373.6434  -14283282.27746 -11129824.90761
  18618672.1824  -26630500.94048 -20369374.31362
  20454488.6744  -12137645.24047  -9364196.33961
 91  5  4  0 50 59.9940000  0  4G 2G 6G13G12
  21066408.611    -3075379.233 6  -2224633.82821
  20434261.6354  -14247072.23746 -11101609.35561
  18619744.6664  -26624872.24648 -20364988.32462
  20444764.150   -12188745.638 7  -9404014.78221
 91  5  4  0 51 14.9940000  0  4G 2G 6G13G12
  21070838.5654   -3052093.93746  -2206489.50461
  20441173.572   -14210761.138 6 -11073315.06521
  18620834.3224  -26619142.46148 -20360523.56262
  20435054.6504  -12239769.44747  -9443773.52561
 91  5  4  0 51 29.9940000  0  4G 2G 6G13G12
  21075276.721    -3028753.772 6  -2188302.43521
  20448101.940   -14174348.918 6 -11044941.97721
  18621942.9004  -26613311.68448 -20355980.10362
  20425358.0724  -12290715.97947  -9483472.06061
 91  5  4  0 51 44.9940000  0  4G 2G 6G13G12
  21079731.557    -3005356.141 6  -2170070.59221
  20455051.9714  -14137833.40046 -11016488.39061
  18623072.5414  -26607377.63048 -20351356.17062
  20415680.5724  -12341582.48947  -9523108.24461
 91  5  4  0 51 59.9940000  0  4G 2G 6G13G12
  21084191.588    -2981899.462 6  -2151792.73221
  20462019.682   -14101213.274 6 -10987953.30521
  18624221.5804  -26601338.87648 -20346650.65162
  20406015.775   -12392366.851 7  -9562680.41521
 91  5  4  0 52 14.9940000  0  4G 2G 6G13G12
  21088663.6824   -2958388.39146  -2133472.48961
  20469006.1504  -14064493.37746 -10959340.45761
  18625389.4404  -26595200.39248 -20341867.42362
  20396367.2754  -12443073.31147  -9602191.88161
 91  5  4  0 52 29.9940000  0  4G 2G 6G13G12
  21093150.4714   -2934824.73246  -2115111.26361
  20476012.057   -14027675.772 6 -10930651.49321
  18626576.4164  -26588964.39848 -20337008.20662
  20386731.5804  -12493703.46947  -9641643.89961
 91  5  4  0 52 44.9940000  0  4G 2G 6G13G12
  21097648.635    -2911202.955 6  -2096704.75821
  20483039.5104  -13990755.31046 -10901882.37261
  18627782.9244  -26582625.41048 -20332068.74662
  20377112.9004  -12544251.44647  -9681031.87461
 91  5  4  0 52 59.9940000  0  4G 2G 6G13G12
  21102155.385    -2887518.930 6  -2078249.75021
  20490082.807   -13953727.919 6 -10873029.93421
  18629009.2054  -26576179.56448 -20327046.01062
  20367511.010   -12594712.720 7  -9720352.28921
 91  5  4  0 53 14.9940000  0  4G 2G 6G13G12
  21106671.4714   -2863780.84646  -2059752.60861
  20497150.338   -13916602.146 6 -10844100.82621
  18630253.8544  -26569635.23748 -20321946.54362
  20357922.236   -12645095.012 7  -9759611.16521
 91  5  4  0 53 29.9940000  0  4G 2G 6G13G12
  21111200.502    -2839988.934 6  -2041213.52721
  20504232.768   -13879378.309 6 -10815095.31821
  18631518.2524  -26562992.94448 -20316770.73462
  20348351.260   -12695398.122 7  -9798808.34121
 91  5  4  0 53 44.9940000  0  4G 2G 6G13G12
  21115735.2444   -2816147.26246  -2022635.66261
  20511336.0254  -13842060.75546 -10786016.77761
  18632800.1194  -26556257.20348 -20311522.11162
  20338792.861   -12745625.737 7  -9837946.69021
 91  5  4  0 53 59.9940000  0  4G 2G 6G13G12
  21120283.525    -2792256.537 6  -2004019.58321
  20518455.4554  -13804650.44546 -10756865.96961
  18634098.9004  -26549429.11448 -20306201.52962
  20329248.596   -12795778.231 7  -9877026.50521
 91  5  4  0 54 14.9940000  0  4G 2G 6G13G12
  21124842.2914   -2768313.04446  -1985362.37761
  20525588.994   -13767144.203 6 -10727640.39921
  18635416.7834  -26542505.22948 -20300806.29962
  20319720.330   -12845851.739 7  -9916044.76721
 91  5  4  0 54 29.9940000  0  4G 2G 6G13G12
  21129403.986    -2744317.331 6  -1966664.49521
  20532746.635   -13729542.522 6 -10698340.46421
  18636753.6114  -26535486.21048 -20295336.94162
  20310208.549   -12895846.303 7  -9955001.52021
 91  5  4  0 54 44.9940000  0  4G 2G 6G13G12
  21133979.2524   -2720270.79246  -1947926.98461
  20539919.275   -13691847.261 6 -10668967.61521
  18638107.1504  -26528373.59548 -20289794.64962
  20300707.932   -12945762.918 7  -9993897.54221
 91  5  4  0 54 59.9940000  0  4G 2G 6G13G12
  21138567.9714   -2696174.66846  -1929150.85461
  20547110.400   -13654059.862 6 -10639522.95721
  18639477.2134  -26521169.09148 -20284180.75562
  20291223.705   -12995602.507 7 -10032733.54221
 91  5  4  0 55 14.9930000  0  4G 2G 6G13G12
  21143161.403    -2672028.986 6  -1910336.10521
  20554319.685   -13616181.608 6 -10610007.51221
  18640865.4894  -26513871.86448 -20278494.61262
  20281756.138   -13045359.913 7 -10071505.49621
 91  5  4  0 55 29.9930000  0  4G 2G 6G13G12
  21147767.0604   -2647829.29846  -1891479.26261
  20561546.200   -13578206.447 6 -10580416.55921
  18642271.8804  -26506479.93548 -20272734.66962
  20272300.4894  -13095040.32747 -10110217.46961
 91  5  4  0 55 44.9930000  0  4G 2G 6G13G12
  21152381.1224   -2623580.57746  -1872584.21861
  20568787.771   -13540140.514 6 -10550754.86921
  18643696.2554  -26498997.59648 -20266904.28162
  20262862.739   -13144643.336 7 -10148869.11821
 91  5  4  0 55 59.9930000  0  4G 2G 6G13G12
  21157001.8024   -2599279.77946  -1853648.59261
  20576050.216   -13501980.923 6 -10521020.20521
  18645138.3174  -26491421.94148 -20261001.18262
  20253438.825   -13194165.375 7 -10187457.67921
 91  5  4  0 56 14.9930000  0  4G 2G 6G13G12
  21161637.911    -2574932.590 6  -1834676.83421
  20583328.817   -13463733.746 6 -10491217.28921
  18646596.6144  -26483759.07048 -20255030.11862
  20244028.6854  -13243611.84547 -10225987.35761
 91  5  4  0 56 29.9930000  0  4G 2G 6G13G12
  21166285.1854   -2550529.14646  -1815661.23461
  20590625.466   -13425389.424 6 -10461338.67521
  18648073.4504  -26475999.19748 -20248983.46962
  20234634.8414  -13292972.43547 -10264450.11461
 91  5  4  0 56 44.9930000  0  4G 2G 6G13G12
  21170938.5994   -2526065.03646  -1796598.35061
  20597941.200   -13386943.648 6 -10431381.00921
  18649568.3104  -26468138.15248 -20242857.98962
  20225260.7164  -13342242.44947 -10302842.29361
 91  5  4  0 56 59.9930000  0  4G 2G 6G13G12
  21175603.1854   -2501546.28046  -1777492.89761
  20605274.747   -13348402.760 6 -10401349.22621
  18651083.5914  -26460182.22548 -20236658.56462
  20215900.9744  -13391427.52147 -10341168.28361
 91  5  4  0 57 14.9930000  0  4G 2G 6G13G12
  21180278.1304   -2476973.14946  -1758345.07861
  20612627.005   -13309767.337 6 -10371243.77221
  18652615.3254  -26452131.94048 -20230385.62862
  20206556.5284  -13440527.64847 -10379428.08961
 91  5  4  0 57 29.9930000  0  4G 2G 6G13G12
  21184964.5444   -2452346.19346  -1739155.30161
  20619997.411   -13271038.145 6 -10341065.27021
  18654164.4664  -26443988.30948 -20224039.94862
  20197230.255   -13489542.976 7 -10417621.80821
 91  5  4  0 57 44.9930000  0  4G 2G 6G13G12
  21189659.3494   -2427672.00046  -1719928.72561
  20627383.380   -13232222.059 6 -10310819.04021
  18655730.4744  -26435758.13948 -20217626.83462
  20187917.8024  -13538479.64847 -10455754.24561
 91  5  4  0 57 59.9930000  0  4G 2G 6G13G12
  21194360.4664   -2402951.48246  -1700666.05361
  20634786.966   -13193320.213 6 -10280505.99621
  18657312.6534  -26427442.48048 -20211147.10962
  20178619.7944  -13587338.04247 -10493825.68261
 91  5  4  0 58 14.9930000  0  4G 2G 6G13G12
  21199078.9824   -2378176.14546  -1681360.65561
  20642208.763   -13154324.148 6 -10250119.53721
  18658913.8964  -26419032.85548 -20204594.16162
  20169339.7164  -13636109.29647 -10531829.21661
 91  5  4  0 58 29.9930000  0  4G 2G 6G13G12
  21203809.9504   -2353341.98146  -1662009.41761
  20649646.724   -13115230.434 6 -10219656.98121
  18660532.1074  -26410525.67148 -20197965.19662
  20160075.614   -13684789.189 7 -10569761.56121
 91  5  4  0 58 44.9930000  0  4G 2G 6G13G12
  21208539.8024   -2328456.09346  -1642617.88361
  20657102.630   -13076046.475 6 -10189124.11021
  18662169.0284  -26401928.46948 -20191266.08262
  20150827.4274  -13733384.56547 -10607628.05161
 91  5  4  0 58 59.9930000  0  4G 2G 6G13G12
  21213285.8174   -2303523.20246  -1623189.72861
  20664576.5134  -13036777.11746 -10158524.69661
  18663820.2004  -26393246.14348 -20184500.64962
  20141595.7244  -13781899.57647 -10645431.91761
 91  5  4  0 59 14.9930000  0  4G 2G 6G13G12
  21218038.3804   -2278537.89046  -1603720.70861
  20672066.583   -12997417.229 6 -10127854.73821
  18665490.1224  -26384473.65248 -20177664.94262
  20132380.482   -13830328.435 7 -10683168.64821
 91  5  4  0 59 29.9930000  0  4G 2G 6G13G12
  21222805.786    -2253499.116 6  -1584210.05121
  20679573.802   -12957965.966 6 -10097113.57821
  18667175.9974  -26375610.12548 -20170758.30862
  20123181.349   -13878669.837 7 -10720837.22521
 91  5  4  0 59 44.9930000  0  4G 2G 6G13G12
  21227579.505    -2228406.488 6  -1564657.42921
  20687097.974   -12918423.408 6 -10066301.27721
  18668880.2474  -26366655.57348 -20163780.75062
  20113997.8644  -13926923.09347 -10758437.13361
 91  5  4  0 59 59.9930000  0  4G 2G 6G13G12
  21232366.919    -2203261.364 6  -1545063.89521
  20694641.3494  -12878791.14646 -10035419.08261
  18670600.7244  -26357611.68148 -20156733.55962
  20104832.6144  -13975089.16247 -10795969.08861
 91  5  4  1  0 14.9930000  0  4G 2G 6G13G12
  21237164.067    -2178064.749 6  -1525430.24721
  20702198.4194  -12839070.34846 -10004467.89661
  18672339.6464  -26348479.57748 -20149617.64062
  20095684.5284  -14023168.68547 -10833433.61161
 91  5  4  1  0 29.9930000  0  4G 2G 6G13G12
  21241963.278    -2152818.419 6  -1505757.84521
  20709773.9034  -12799263.00946  -9973449.27161
  18674093.2164  -26339261.04448 -20142434.37762
  20086548.849   -14071162.986 7 -10870831.72321
 91  5  4  1  0 44.9930000  0  4G 2G 6G13G12
  21246784.075    -2127515.434 6  -1486041.31021
  20717368.302   -12759362.618 6  -9942358.14721
  18675865.4744  -26329949.75048 -20135178.83062
  20077435.083   -14119064.960 7 -10908157.88721
 91  5  4  1  0 59.9930000  0  4G 2G 6G13G12
  21251604.888    -2102160.165 6  -1466284.02821
  20724976.255   -12719373.810 6  -9911198.12121
  18677653.6694  -26320550.54948 -20127854.78762
  20068336.927   -14166878.587 7 -10945415.21721
 91  5  4  1  1 14.9930000  0  4G 2G 6G13G12
  21256437.9194   -2076748.79846  -1446483.04361
  20732604.091   -12679292.917 6  -9879966.33421
  18679459.4504  -26311059.56648 -20120459.22562
  20059256.325   -14214599.515 7 -10982600.30821
 91  5  4  1  1 29.9930000  0  4G 2G 6G13G12
  21261289.4194   -2051283.16946  -1426639.76561
  20740248.185   -12639121.977 6  -9848664.40021
  18681283.3494  -26301479.00848 -20112993.86762
  20050192.075   -14262229.234 7 -11019714.32821
 91  5  4  1  1 44.9930000  0  4G 2G 6G13G12
  21266142.974    -2025763.826 6  -1406754.64321
  20747910.3334  -12598862.02046  -9817293.09661
  18683123.3254  -26291809.92748 -20105459.52562
  20041145.544   -14309768.086 7 -11056757.53921
 91  5  4  1  1 59.9930000  0  4G 2G 6G13G12
  21271015.052    -2000186.234 6  -1386824.13721
  20755589.7084  -12558508.48146  -9785848.86561
  18684980.7164  -26282047.56448 -20097852.50062
  20032116.857   -14357210.840 7 -11093725.87421
 91  5  4  1  2 14.9930000  0  4G 2G 6G13G12
  21275894.411    -1974550.549 6  -1366848.34821
  20763285.0364  -12518062.07146  -9754332.27561
  18686856.5914  -26272192.52248 -20090173.26262
  20023106.489   -14404557.568 7 -11130619.38221
 91  5  4  1  2 29.9930000  0  4G 2G 6G13G12
  21280779.771    -1948859.286 6  -1346829.25721
  20771000.2394  -12477525.51546  -9722745.43461
  18688749.3174  -26262247.55848 -20082423.94462
  20014115.896   -14451810.372 7 -11167439.69921
 91  5  4  1  2 44.9930000  0  4G 2G 6G13G12
  21285673.997    -1923118.015 6  -1326771.20021
  20778731.271   -12436904.724 6  -9691092.95721
  18690657.5604  -26252218.64948 -20074609.22062
  20005140.130   -14498974.419 7 -11204190.85821
 91  5  4  1  2 59.9930000  0  4G 2G 6G13G12
  21290583.3494   -1897325.23546  -1306673.01161
  20786475.1614  -12396198.16346  -9659373.64761
  18692582.2164  -26242104.40048 -20066727.99662
  19996182.732   -14546047.580 7 -11240871.19821
 91  5  4  1  3 14.9930000  0  4G 2G 6G13G12
  21295505.3574   -1871475.59246  -1286530.51461
  20794240.5994  -12355400.87446  -9627583.64361
  18694523.1534  -26231899.59348 -20058776.20662
  19987243.661   -14593024.298 7 -11277476.37921
 91  5  4  1  3 29.9930000  0  4G 2G 6G13G12
  21300434.278    -1845569.667 6  -1266344.15421
  20802018.7244  -12314513.85046  -9595723.71161
  18696482.7324  -26221605.19148 -20050754.60462
  19978322.817   -14639904.960 7 -11314006.72121
 91  5  4  1  3 44.9930000  0  4G 2G 6G13G12
  21305373.4504   -1819612.61146  -1246117.96561
  20809816.263   -12273542.465 6  -9563798.04321
  18698457.7394  -26211226.61148 -20042667.40762
  19969419.497   -14686694.318 7 -11350465.91421
 91  5  4  1  3 59.9930000  0  4G 2G 6G13G12
  21310320.653    -1793601.587 6  -1225849.71021
  20817627.7004  -12232484.03846  -9531804.55961
  18700448.9354  -26200761.25348 -20034512.59262
  19960531.958   -14733389.100 7 -11386851.41121
 91  5  4  1  4 14.9930000  0  4G 2G 6G13G12
  21315279.763    -1767534.181 6  -1205537.53121
  20825460.325   -12191336.595 6  -9499741.69721
  18702457.7864  -26190206.92948 -20026288.45262
  19951666.521   -14779986.529 7 -11423161.04922
 91  5  4  1  4 29.9930000  0  4G 2G 6G13G12
  21320251.528    -1741411.572 6  -1185182.33221
  20833306.4584  -12150101.68146  -9467610.68961
  18704483.3494  -26179565.40648 -20017996.36862
  19942816.357   -14826487.487 7 -11459395.51521
 91  5  4  1  4 44.9930000  0  4G 2G 6G13G12
  21325234.9894   -1715235.01946  -1164785.10561
  20841168.3804  -12108780.70646  -9435412.61961
  18706524.6074  -26168838.19448 -20009637.50962
  19933986.239   -14872892.776 7 -11495555.43822
 91  5  4  1  4 59.9930000  0  4G 2G 6G13G12
  21330222.950    -1689005.924 6  -1144346.90821
  20849049.7394  -12067375.15646  -9403148.64961
  18708581.9274  -26158026.67248 -20001212.95462
  19925173.216   -14919203.302 7 -11531641.51722
 91  5  4  1  5 14.9930000  0  4G 2G 6G13G12
  21335224.614    -1662715.360 6  -1123860.84121
  20856948.9354  -12025876.59346  -9370812.19961
  18710655.6464  -26147122.22048 -19992715.98962
  19916380.208   -14965409.903 7 -11567646.61721
 91  5  4  1  5 29.9930000  0  4G 2G 6G13G12
  21340238.521    -1636367.221 6  -1103329.90121
  20864860.0754  -11984289.07946  -9338406.43561
  18712748.5134  -26136129.09148 -19984149.92562
  19907606.614   -15011516.012 7 -11603573.41122
 91  5  4  1  5 44.9930000  0  4G 2G 6G13G12
  21345272.1384   -1609966.38746  -1082757.90361
  20872789.138   -11942617.869 6  -9305935.46421
  18714855.7714  -26125052.46848 -19975518.79762
  19898850.997   -15057526.203 7 -11639425.47022
 91  5  4  1  5 59.9930000  0  4G 2G 6G13G12
  21350299.544    -1583514.119 6  -1062145.82121
  20880733.8724  -11900864.54246  -9273400.49061
  18716979.8494  -26113893.94848 -19966823.85662
  19890114.521   -15103441.509 7 -11675203.58322
 91  5  4  1  6 14.9930000  0  4G 2G 6G13G12
  21355348.3574   -1557007.72546  -1041491.56261
  20888696.8644  -11859026.63846  -9240799.63061
  18719119.1774  -26102650.98348 -19958063.11162
  19881394.7394  -15149258.91147 -11710905.42162
 91  5  4  1  6 29.9930000  0  4G 2G 6G13G12
  21360395.942    -1530449.905 6  -1020797.23721
  20896672.5364  -11817106.98946  -9208135.06361
  18721273.4354  -26091326.40248 -19949238.77262
  19872694.3964  -15194980.51647 -11746532.60662
 91  5  4  1  6 44.9930000  0  4G 2G 6G13G12
  21365459.692    -1503831.445 6  -1000055.65621
  20904668.1074  -11775096.80046  -9175399.94461
  18723446.3494  -26079911.30748 -19940343.89962
  19864015.0214  -15240596.83547 -11782077.74962
 91  5  4  1  6 59.9930000  0  4G 2G 6G13G12
  21370542.903    -1477155.474 6   -979269.27021
  20912680.2944  -11732999.47046  -9142596.92761
  18725634.942   -26068409.305 8 -19931381.31022
  19855353.8254  -15286110.58047 -11817542.96962
 91  5  4  1  7 14.9930000  0  4G 2G 6G13G12
  21375625.7714   -1450424.53746   -958440.03661
  20920705.7864  -11690817.67046  -9109728.08361
  18727840.4424  -26056822.81848 -19922352.88662
  19846710.9824  -15331523.82647 -11852929.87662
 91  5  4  1  7 29.9930000  0  4G 2G 6G13G12
  21380721.9424   -1423642.36046   -937570.88661
  20928749.317   -11648555.689 6  -9076796.77521
  18730059.9424  -26045156.17348 -19913262.00062
  19838087.3254  -15376840.25247 -11888241.33962
 91  5  4  1  7 44.9930000  0  4G 2G 6G13G12
  21385832.0134   -1396803.43546   -916657.51661
  20936805.0524  -11606208.16046  -9043798.79261
  18732296.0524  -26033404.02648 -19904104.49062
  19829483.3884  -15422053.79847 -11923472.63762
 91  5  4  1  7 59.9930000  0  4G 2G 6G13G12
  21390950.7324   -1369902.83146   -895696.07461
  20944883.6694  -11563770.38046  -9010730.48861
  18734549.9424  -26021561.77148 -19894876.76862
  19820899.4114  -15467159.10847 -11958619.60162
 91  5  4  1  8 14.9930000  0  4G 2G 6G13G12
  21396078.1924   -1342947.15346   -874691.72461
  20952974.5364  -11521249.21146  -8977597.20161
  18736818.7714  -26009636.15148 -19885584.08362
  19812336.1534  -15512162.42447 -11993687.08162
 91  5  4  1  8 29.9930000  0  4G 2G 6G13G12
  21401220.778    -1315936.805 6   -853644.77921
  20961079.4424  -11478645.37346  -8944399.50961
  18739104.7324  -25997627.88748 -19876227.00462
  19803792.3414  -15557063.82847 -12028675.15462
 91  5  4  1  8 44.9930000  0  4G 2G 6G13G12
  21406369.4354   -1288874.90346   -832557.65761
  20969203.6384  -11435962.31246  -8911140.08461
  18741404.1774  -25985540.34648 -19866808.14362
  19795265.9664  -15601866.06547 -12063585.95262
 91  5  4  1  8 59.9930000  0  4G 2G 6G13G12
  21411532.0834   -1261754.14046   -811424.67861
  20977342.2164  -11393192.97546  -8877813.42261
  18743720.4354  -25973366.42748 -19857321.98062
  19786761.1224  -15646561.53847 -12098413.56262
 91  5  4  1  9 14.9930000  0  4G 2G 6G13G12
  21416696.263    -1234579.384 6   -790249.60821
  20985496.9034  -11350342.47446  -8844423.51161
  18746052.7714  -25961111.24048 -19847772.48962
  19778275.2944  -15691154.55547 -12133161.33562
 91  5  4  1  9 29.9930000  0  4G 2G 6G13G12
  21421880.6534   -1207345.45846   -769028.43961
  20993669.3884  -11307405.87446  -8810966.52061
  18748400.7944  -25948770.09048 -19838156.01662
  19769809.3494  -15735639.69547 -12167825.04262
 91  5  4  1  9 44.9930000  0  4G 2G 6G13G12
  21427078.357    -1180051.538 6   -747760.53321
  21001855.958   -11264382.542 6  -8777441.94721
  18750767.0444  -25936342.18148 -19828471.94062
  19761366.4744  -15780015.59447 -12202403.63162
 91  5  4  1  9 59.9930000  0  4G 2G 6G13G12
  21432280.708    -1152700.634 6   -726448.22721
  21010058.2554  -11221275.88146  -8743852.43561
  18753147.5364  -25923830.83748 -19818722.84862
  19752941.2944  -15824284.86947 -12236899.13862
 91  5  4  1 10 14.9930000  0  4G 2G 6G13G12
  21437497.388    -1125294.069 6   -705092.53721
  21018275.200   -11178087.645 6  -8710199.36721
  18755543.5914  -25911237.94348 -19808910.21362
  19744535.8644  -15868448.71847 -12271312.48862
 91  5  4  1 10 29.9930000  0  4G 2G 6G13G12
  21442720.7244   -1097836.58046   -683697.17161
  21026510.700   -11134822.579 6  -8676486.43221
  18757954.114   -25898568.069 8 -19799037.59122
  19736151.9114  -15912511.14747 -12305646.81262
 91  5  4  1 10 44.9930000  0  4G 2G 6G13G12
  21447962.333    -1070319.329 6   -662255.23321
  21034758.4824  -11091472.19246  -8642707.02061
  18760381.7244  -25885812.70348 -19789098.35362
  19727787.5994  -15956463.16247 -12339895.09962
 91  5  4  1 10 59.9930000  0  4G 2G 6G13G12
  21453207.5214   -1042749.49646   -640772.33661
  21043023.786   -11048044.024 6  -8608866.98721
  18762823.8024  -25872979.50748 -19779098.46862
  19719443.8724  -16000311.67347 -12374062.73562
 91  5  4  1 11 14.9930000  0  4G 2G 6G13G12
  21458460.692    -1015119.339 6   -619242.42221
  21051301.4664  -11004530.55346  -8574960.49361
  18765282.5754  -25860060.85448 -19769031.99662
  19711120.9274  -16044048.46847 -12408143.31562
 91  5  4  1 11 29.9930000  0  4G 2G 6G13G12
  21463731.474     -987436.748 6   -597671.66421
  21059596.9354  -10960939.73046  -8540993.73261
  18767756.5444  -25847064.63548 -19758905.08062
  19702817.1694  -16087680.89047 -12442142.57162
 91  5  4  1 11 44.9930000  0  4G 2G 6G13G12
  21469007.5524    -959698.80746   -576057.77461
  21067907.872   -10917269.320 6  -8506964.93921
  18770243.442   -25833988.171 8 -19748715.63722
  19694535.5524  -16131205.84247 -12476058.08061
 91  5  4  1 11 59.9930000  0  4G 2G 6G13G12
  21474296.091     -931906.857 6   -554401.78021
  21076235.896   -10873520.751 6  -8472875.25221
  18772746.6304  -25820833.16448 -19738464.98562
  19686273.8804  -16174624.30747 -12509890.60762
 91  5  4  1 12 14.9930000  0  4G 2G 6G13G12
  21479594.802     -904053.779 5   -532698.17321
  21084575.653   -10829687.280 5  -8438719.41421
  18775266.8254  -25807592.86248 -19728147.88262
  19678032.9824  -16217928.93147 -12543634.43562
 91  5  4  1 12 29.9930000  0  4G 2G 6G13G12
  21484910.528     -876147.772 6   -510953.32621
  21092931.177   -10785777.299 5  -8404503.95921
  18777800.5674  -25794275.77348 -19717770.93862
  19669812.2864  -16261127.37147 -12577295.51962
 91  5  4  1 12 44.9930000  0  4G 2G 6G13G12
  21490230.5444    -848190.52746   -489168.54961
  21101300.052   -10741792.913 5  -8370230.51921
  18780349.8964  -25780883.98348 -19707335.79162
  19661613.1464  -16304221.09347 -12610875.00662
 91  5  4  1 12 59.9930000  0  4G 2G 6G13G12
  21495558.888     -820182.021 5   -467343.81721
  21109684.302   -10697734.244 6  -8335899.20021
  18782911.3724  -25767417.54748 -19696842.47062
  19653431.1464  -16347209.55347 -12644372.47362
 91  5  4  1 13 14.9930000  0  4G 2G 6G13G12
  21500896.0364    -792111.74745   -445470.96061
  21118083.5994  -10653591.07345  -8301502.03461
  18785490.4824  -25753866.30748 -19686283.07062
  19645273.357   -16390081.870 7 -12677779.43022
 91  5  4  1 13 29.9930000  0  4G 2G 6G13G12
  21506253.8104    -763992.96646   -423560.32561
  21126498.692   -10609376.903 5  -8267049.55021
  18788083.489   -25740243.727 8 -19675668.08922
  19637134.4354  -16432850.94847 -12711105.95162
 91  5  4  1 13 44.9930000  0  4G 2G 6G13G12
  21511613.060     -735822.933 6   -401609.72321
  21134926.0284  -10565089.30746  -8232539.84261
  18790689.3254  -25726547.13048 -19664995.42562
  19629015.3414  -16475513.65947 -12744349.58462
 91  5  4  1 13 59.9930000  0  4G 2G 6G13G12
  21516988.0214    -707601.00046   -379618.70061
  21143371.560   -10520727.791 6  -8197972.53921
  18793309.7944  -25712776.21548 -19654264.85262
  19620917.4824  -16518068.88647 -12777509.46562
 91  5  4  1 14 14.9930000  0  4G 2G 6G13G12
  21522362.435     -679320.652 6   -357582.15221
  21151826.8804  -10476286.27346  -8163342.90361
  18795945.3804  -25698924.60348 -19643471.40062
  19612841.6144  -16560509.80947 -12810580.27162
 91  5  4  1 14 29.9930000  0  4G 2G 6G13G12
  21527758.864     -650990.976 6   -335507.16221
  21160295.0754  -10431774.19446  -8128658.28561
  18798594.396   -25685001.577 8 -19632622.30222
  19604785.3884  -16602845.26847 -12843568.90762
 91  5  4  1 14 44.9930000  0  4G 2G 6G13G12
  21533157.2244    -622607.81946   -313390.50561
  21168781.747   -10387187.460 6  -8093915.49221
  18801259.2324  -25671003.31748 -19621714.57062
  19596750.8414  -16645070.48447 -12876471.63262
 91  5  4  1 14 59.9930000  0  4G 2G 6G13G12
  21538566.669     -594173.556 6   -291234.01821
  21177278.724   -10342528.903 6  -8059116.73021
  18803936.2244  -25656932.44048 -19610750.26162
  19588735.8494  -16687187.78447 -12909290.27262
 91  5  4  1 15 14.9930000  0  4G 2G 6G13G12
  21543987.8334    -565686.89046   -269036.70661
  21185793.5284  -10297797.51346  -8024261.21961
  18806628.9034  -25642788.15348 -19599728.74262
  19580742.4664  -16729195.34347 -12942023.40162
 91  5  4  1 15 29.9930000  0  4G 2G 6G13G12
  21549422.0914    -537143.89646   -246795.49761
  21194319.5054  -10252989.63946  -7989346.11561
  18809334.3724  -25628566.85748 -19588647.22662
  19572769.9584  -16771088.96947 -12974667.74862
 91  5  4  1 15 44.9930000  0  4G 2G 6G13G12
  21554862.6464    -508546.81346   -224512.13161
  21202858.2864  -10208107.75146  -7954373.33561
  18812054.6224  -25614270.87748 -19577507.51162
  19564818.2714  -16812870.32347 -13007224.60962
 91  5  4  1 15 59.9930000  0  4G 2G 6G13G12
  21560307.833     -479898.202 5   -202188.62221
  21211413.653   -10163154.689 5  -7919345.08421
  18814788.9354  -25599902.78248 -19566311.60162
  19556889.0834  -16854541.63147 -13039695.72162
 91  5  4  1 16 14.9930000  0  4G 2G 6G13G12
  21565773.075     -451193.726 5   -179821.59521
  21219984.6304  -10118126.41445  -7884258.23561
  18817537.3414  -25585458.68248 -19555056.46762
  19548980.5834  -16896098.23947 -13072077.46362
 91  5  4  1 16 29.9930000  0  4G 2G 6G13G12
  21571249.1304    -422433.82446   -157411.37961
  21228565.6384  -10073023.50545  -7849113.23461
  18820301.1304  -25570939.26148 -19543742.63662
  19541094.7714  -16937540.11647 -13104369.79862
 91  5  4  1 16 44.9930000  0  4G 2G 6G13G12
  21576732.8024    -393621.37846   -134960.19961
  21237158.794   -10027849.229 5  -7813912.61321
  18823077.0054  -25556347.64248 -19532372.54862
  19533230.5674  -16978869.94847 -13136574.82862
 91  5  4  1 16 59.9930000  0  4G 2G 6G13G12
  21582217.310     -364760.030 5   -112470.92921
  21245771.4824   -9982607.55945  -7778659.47761
  18825866.7784  -25541687.85448 -19520949.34762
  19525385.8804  -17020091.03147 -13168695.11662
 91  5  4  1 17 14.9930000  0  4G 2G 6G13G12
  21587727.1224    -335845.02046    -89939.84861
  21254394.5364   -9937294.09745  -7743350.40161
  18828670.7784  -25526955.03648 -19509469.23262
  19517563.0834  -17061198.25547 -13200726.68862
 91  5  4  1 17 29.9930000  0  4G 2G 6G13G12
  21593244.880     -306874.432 6    -67365.44021
  21263030.8254   -9891907.07245  -7707984.01961
  18831488.4744  -25512147.73648 -19497931.08462
  19509763.5214  -17102189.28147 -13232667.70962
 91  5  4  1 17 44.9930000  0  4G 2G 6G13G12
  21598761.0134    -277857.57045    -44754.98361
  21271678.3804   -9846456.00945  -7672567.70661
  18834318.7324  -25497275.39748 -19486342.25062
  19501984.7244  -17143072.91147 -13264525.05162
